[[{"header":{"parameterUnit":"m.s-1","parameterCategory":1,"la1":30.6,"la2":29.2853,"lo1":-89.7004,"lo2":-87.6739,"dy":0.0162,"dx":0.0183,"nx":112,"ny":82,"refTime":"2025-02-26T06:00:00:Z","depth":0,"parameterNumber":2,"parameterNumberName":"U-component_of_WINDS"},"data":[0.0,0.0,0.0,0.0,0.0,0.0,0.0,0.0,0.0,0.0,0.0,0.0,0.0,0.0,0.0,0.0,0.0,0.0,0.0,0.0,0.0,0.0,0.0,0.0,0.0,0.0,0.0,0.0,0.0,0.0,0.0,0.0,0.0,0.0,0.0,0.0,0.0,0.0,0.0,0.0,0.0,0.0,0.0,0.0,0.0,0.0,0.0,0.0,0.0,0.0,0.0,0.0,0.0,0.0,0.0,0.0,0.0,0.0,0.0,0.0,0.0,0.0,0.0,0.0,0.0,0.0,0.0,0.0,0.0,0.0,0.0,0.0,0.0,0.0,0.0,0.0,0.0,0.0,0.0,0.0,0.0,0.0,0.0,0.0,0.0,0.0,0.0,0.0,0.0,0.0,0.0,0.4721,0.5153,0.5344,0.5176,0.509,0.4833,0.4287,0.0,0.0,0.0,0.0,0.0,0.0,0.0,0.0,0.0,0.0,0.0,0.0,0.0,0.0,0.0,0.0,0.0,0.0,0.0,0.0,0.0,0.0,0.0,0.0,0.0,0.0,0.0,0.0,0.0,0.0,0.0,0.0,0.0,0.0,0.0,0.0,0.0,0.0,0.0,0.0,0.0,0.0,0.0,0.0,0.0,0.0,0.0,0.0,0.0,0.0,0.0,0.0,0.0,0.0,0.0,0.0,0.0,0.0,0.0,0.0,0.0,0.0,0.0,0.0,0.0,0.0,0.0,0.0,0.0,0.0,0.0,0.0,0.0,0.0,0.0,0.0,0.0,0.0,0.0,0.0,0.0,0.0,0.0,0.0,0.0,0.0,0.0,0.0,0.0,0.0,0.0,0.0,0.0,0.0,0.0,0.0,0.0,0.0,0.0,0.0,0.0,0.0,0.0,0.0,0.4261,0.4961,0.5243,0.5385,0.5358,0.5094,0.4802,0.4477,0.0,0.0,0.0,0.0,0.0,0.0,0.0,0.0,0.0,0.0,0.0,0.0,0.0,0.0,0.0,0.0,0.0,0.0,0.0,0.0,0.0,0.0,0.0,0.0,0.0,0.0,0.0,0.0,0.0,0.0,0.0,0.0,0.0,0.0,0.0,0.0,0.0,0.0,0.0,0.0,0.0,0.0,0.0,0.0,0.0,0.0,0.0,0.0,0.0,0.0,0.0,0.0,0.0,0.0,0.0,0.0,0.0,0.0,0.0,0.0,0.0,0.0,0.0,0.0,0.0,0.0,0.0,0.0,0.0,0.0,0.0,0.0,0.0,0.0,0.0,0.0,0.0,0.0,0.0,0.0,0.0,0.0,0.0,0.0,0.0,0.0,0.0,0.0,0.0,0.0,0.0,0.0,0.0,0.0,0.0,0.0,0.0,0.0,0.0,0.0,0.0,0.0,0.0,0.4253,0.4606,0.5196,0.5351,0.5392,0.5392,0.5087,0.4789,0.4511,0.3993,0.0,0.0,0.0,0.0,0.0,0.0,0.0,0.0,0.0,0.0,0.0,0.0,0.0,0.0,0.0,0.0,0.0,0.0,0.0,0.0,0.0,0.0,0.0,0.0,0.0,0.0,0.0,0.0,0.0,0.0,0.0,0.0,0.0,0.0,0.0,0.0,0.0,0.0,0.0,0.0,0.0,0.0,0.0,0.0,0.0,0.0,0.0,0.0,0.0,0.0,0.0,0.0,0.0,0.0,0.0,0.0,0.0,0.0,0.0,0.0,0.0,0.0,0.0,0.0,0.0,0.0,0.0,0.0,0.0,0.0,0.0,0.0,0.0,0.0,0.0,0.0,0.0,0.0,0.0,0.0,0.0,0.0,0.0,0.0,0.0,0.0,0.0,0.0,0.0,0.0,0.0,0.0,0.0,0.0,0.0,0.0,0.0,0.0,0.0,0.0,0.0,0.0,0.4728,0.4938,0.5351,0.5392,0.5392,0.5392,0.506,0.4748,0.4505,0.3897,0.0,0.0,0.0,0.0,0.0,0.0,0.0,0.0,0.0,0.0,0.0,0.0,0.0,0.0,0.0,0.0,0.0,0.0,0.0,0.0,0.0,0.0,0.0,0.0,0.0,0.0,0.0,0.0,0.0,0.0,0.0,0.0,0.0,0.0,0.0,0.0,0.0,0.0,0.0,0.0,0.0,0.0,0.0,0.0,0.0,0.0,0.0,0.0,0.0,0.0,0.0,0.0,0.0,0.0,0.0,0.0,0.0,0.0,0.0,0.0,0.0,0.0,0.0,0.0,0.0,0.0,0.0,0.0,0.0,0.0,0.0,0.0,0.0,0.0,0.0,0.0,0.0,0.0,0.0,0.0,0.0,0.0,0.0,0.0,0.0,0.0,0.0,0.0,0.0,0.0,0.0,0.0,0.0,0.0,0.0,0.0,0.0,0.0,0.0,0.0,0.0,0.0,0.4843,0.5169,0.5378,0.5392,0.5392,0.5392,0.4989,0.4662,0.4498,0.3818,0.0,0.0,0.0,0.0,0.0,0.0,0.0,0.0,0.0,0.0,0.0,0.0,0.0,0.0,0.0,0.0,0.0,0.0,0.0,0.0,0.0,0.0,0.0,0.0,0.0,0.0,0.0,0.0,0.0,0.0,0.0,0.0,0.0,0.0,0.0,0.0,0.0,0.0,0.0,0.0,0.0,0.0,0.0,0.0,0.0,0.0,0.0,0.0,0.0,0.0,0.0,0.0,0.0,0.0,0.0,0.0,0.0,0.0,0.0,0.0,0.0,0.0,0.0,0.0,0.0,0.0,0.0,0.0,0.0,0.0,0.0,0.0,0.0,0.0,0.0,0.0,0.0,0.0,0.0,0.0,0.0,0.0,0.0,0.0,0.0,0.0,0.0,0.0,0.0,0.0,0.0,0.0,0.0,0.0,0.0,0.0,0.0,0.0,0.0,0.0,0.0,0.0,0.4736,0.5036,0.0,0.5229,0.5195,0.5331,0.4898,0.4604,0.4505,0.0,0.0,0.0,0.0,0.0,0.0,0.0,0.0,0.0,0.0,0.0,0.0,0.0,0.0,0.0,0.0,0.0,0.0,0.0,0.0,0.0,0.0,0.0,0.0,0.0,0.0,0.0,0.0,0.0,0.0,0.0,0.0,0.0,0.0,0.0,0.0,0.0,0.0,0.0,0.0,0.0,0.0,0.0,0.0,0.0,0.0,0.0,0.0,0.0,0.0,0.0,0.0,0.0,0.0,0.0,0.0,0.0,0.0,0.0,0.0,0.0,0.0,0.0,0.0,0.0,0.0,0.0,0.0,0.0,0.0,0.0,0.0,0.0,0.0,0.0,0.0,0.0,0.0,0.0,0.0,0.0,0.0,0.0,0.0,0.0,0.0,0.0,0.0,0.0,0.0,0.0,0.0,0.0,0.0,0.0,0.0,0.0,0.0,0.0,0.0,0.0,0.0,0.4408,0.4695,0.4979,0.0,0.5164,0.5139,0.5202,0.481,0.4503,0.4354,0.0,0.0,0.0,0.0,0.0,0.0,0.0,0.0,0.0,0.0,0.0,0.0,0.0,0.0,0.0,0.0,0.0,0.0,0.0,0.0,0.0,0.0,0.0,0.0,0.0,0.0,0.0,0.0,0.0,0.0,0.0,0.0,0.0,0.0,0.0,0.0,0.0,0.0,0.0,0.0,0.0,0.0,0.0,0.0,0.0,0.0,0.0,0.0,0.0,0.0,0.0,0.0,0.0,0.0,0.0,0.0,0.0,0.0,0.0,0.0,0.0,0.0,0.0,0.0,0.0,0.0,0.0,0.0,0.0,0.0,0.0,0.0,0.0,0.0,0.0,0.0,0.0,0.0,0.0,0.0,0.0,0.0,0.0,0.0,0.0,0.0,0.0,0.0,0.0,0.0,0.0,0.0,0.0,0.0,0.0,0.0,0.0,0.0,0.0,0.0,0.0,0.0,0.434,0.4764,0.5049,0.5177,0.5249,0.5209,0.5001,0.4697,0.4367,0.0,0.0,0.0,0.0,0.0,0.0,0.0,0.0,0.0,0.0,0.0,0.0,0.0,0.0,0.0,0.0,0.0,0.0,0.0,0.0,0.0,0.0,0.0,0.0,0.0,0.0,0.0,0.0,0.0,0.0,0.0,0.0,0.0,0.0,0.0,0.0,0.0,0.0,0.0,0.0,0.0,0.0,0.0,0.0,0.0,0.0,0.0,0.0,0.0,0.0,0.0,0.0,0.0,0.0,0.0,0.0,0.0,0.0,0.0,0.0,0.0,0.0,0.0,0.0,0.0,0.0,0.0,0.0,0.0,0.0,0.0,0.0,0.0,0.0,0.0,0.0,0.0,0.0,0.0,0.0,0.0,0.0,0.0,0.0,0.0,0.0,0.0,0.0,0.0,0.0,0.0,0.0,0.0,0.0,0.0,0.0,0.0,0.0,0.0,0.0,0.0,0.0,0.0,0.434,0.4713,0.4973,0.5132,0.5004,0.4946,0.4932,0.4569,0.4297,0.4155,0.0,0.0,0.0,0.0,0.0,0.0,0.0,0.0,0.0,0.0,0.0,0.0,0.0,0.0,0.0,0.0,0.0,0.0,0.0,0.0,0.0,0.0,0.0,0.0,0.0,0.0,0.0,0.0,0.0,0.0,0.0,0.0,0.0,0.0,0.0,0.0,0.0,0.0,0.0,0.0,0.0,0.0,0.0,0.0,0.0,0.0,0.0,0.0,0.0,0.0,0.0,0.0,0.0,0.0,0.0,0.0,0.0,0.0,0.0,0.0,0.0,0.0,0.0,0.0,0.0,0.0,0.0,0.0,0.0,0.0,0.0,0.0,0.0,0.0,0.0,0.0,0.0,0.0,0.0,0.0,0.0,0.0,0.0,0.0,0.0,0.0,0.0,0.0,0.0,0.0,0.0,0.0,0.0,0.0,0.0,0.0,0.0,0.0,0.0,0.0,0.0,0.0,0.4299,0.4679,0.4975,0.5147,0.5086,0.5044,0.5026,0.4657,0.4375,0.4136,0.0,0.0,0.0,0.0,0.0,0.0,0.0,0.0,0.0,0.0,0.0,0.0,0.0,0.0,0.0,0.0,0.0,0.0,0.0,0.0,0.0,0.0,0.0,0.0,0.0,0.0,0.0,0.0,0.0,0.0,0.0,0.0,0.0,0.0,0.0,0.0,0.0,0.0,0.0,0.0,0.0,0.0,0.0,0.0,0.0,0.0,0.0,0.0,0.0,0.0,0.0,0.0,0.0,0.0,0.0,0.0,0.0,0.0,0.0,0.0,0.0,0.0,0.0,0.0,0.0,0.0,0.0,0.0,0.0,0.0,0.0,0.0,0.0,0.0,0.0,0.0,0.0,0.0,0.0,0.0,0.0,0.0,0.0,0.0,0.0,0.0,0.0,0.0,0.0,0.0,0.0,0.0,0.0,0.0,0.0,0.0,0.0,0.0,0.0,0.0,0.0,0.0,0.4285,0.4603,0.493,0.5295,0.5372,0.5359,0.5255,0.4922,0.4528,0.4072,0.0,0.0,0.0,0.0,0.0,0.0,0.0,0.0,0.0,0.0,0.0,0.0,0.0,0.0,0.0,0.0,0.0,0.0,0.0,0.0,0.0,0.0,0.0,0.0,0.0,0.0,0.0,0.0,0.0,0.0,0.0,0.0,0.0,0.0,0.0,0.0,0.0,0.0,0.0,0.0,0.0,0.0,0.0,0.0,0.0,0.0,0.0,0.0,0.0,0.0,0.0,0.0,0.0,0.0,0.0,0.0,0.0,0.0,0.0,0.0,-0.1529,0.0,0.0,0.0,0.0,0.0,0.0,0.0,0.0,0.0,0.0,0.0,0.0,0.0,0.0,0.0,0.0,0.0,0.0,0.0,0.0,0.0,0.0,0.0,0.0,0.0,0.0,0.0,0.0,0.0,0.0,0.0,0.0,0.0,0.0,0.0,0.0,0.0,0.0,0.0,0.0,0.0,0.4535,0.434,0.4478,0.5449,0.5532,0.5536,0.5439,0.5185,0.4852,0.4499,0.0,0.0,0.0,0.0,0.0,0.0,0.0,0.0,0.0,0.0,0.0,0.0,0.0,0.0,0.0,0.0,0.0,0.0,0.0,0.0,0.0,0.0,0.0,0.0,0.0,0.0,0.0,0.0,0.0,0.0,0.0,0.0,0.0,0.0,0.0,0.0,0.0,0.0,0.0,0.0,0.0,0.0,0.0,0.0,0.0,0.0,0.0,0.0,0.0,0.0,0.0,0.0,0.0,0.0,0.0,0.0,0.0,0.0,0.0,0.0,0.0,-0.1798,0.0,0.0,0.0,0.0,0.0,0.0,0.0,0.0,0.0,0.0,0.0,0.0,0.0,0.0,0.0,0.0,0.0,0.0,0.0,0.0,0.0,0.0,0.0,0.0,0.0,0.0,0.0,0.0,0.0,0.0,0.0,0.0,0.0,0.0,0.0,0.0,0.0,0.0,0.0,0.0,0.3951,0.3774,0.3792,0.4327,0.4501,0.4727,0.5139,0.4819,0.4675,0.4821,0.4171,0.0,0.0,0.0,0.0,0.0,0.0,0.0,0.0,0.0,0.0,0.0,0.0,0.0,0.0,0.0,0.0,0.0,0.0,0.0,0.0,0.0,0.0,0.0,0.0,0.0,0.0,0.0,0.0,0.0,0.0,0.0,0.0,0.0,0.0,0.0,0.0,0.0,0.0,0.0,0.0,0.0,0.0,0.0,0.0,0.0,0.0,0.0,0.0,0.0,0.0,0.0,0.0,0.0,-0.3155,-0.3247,-0.334,-0.3392,-0.3668,-0.4072,-0.3358,-0.3137,-0.3188,0.0,0.0,0.0,0.0,0.0,0.0,0.0,0.0,0.0,0.0,0.0,0.0,0.0,0.0,0.0,0.0,0.0,0.0,0.0,0.0,0.0,0.0,0.0,0.0,0.0,0.0233,0.0193,0.0,0.0,0.0,0.0,0.0,0.0,0.0,0.0,0.0,0.0,0.0,0.0,0.3219,0.3098,0.3047,0.32,0.3366,0.3767,0.4558,0.4256,0.4293,0.497,0.4364,0.3982,0.0,0.0,0.0,0.0,0.0,0.0,0.0,0.0,0.0,0.0,0.0,0.0,0.0,0.0,0.0,0.0,0.0,0.0,0.0,0.0,0.0,0.0,0.0,0.0,0.0,0.0,0.0,0.0,0.0,0.0,0.0,0.0,-0.5721,-0.5961,0.0,0.0,0.0,0.0,0.0,0.0,0.0,0.0,0.0,0.0,0.0,0.0,0.0,-0.4244,-0.4464,-0.4609,-0.466,-0.4696,-0.4991,-0.5147,-0.5178,-0.5282,-0.5372,-0.5458,-0.5325,0.0,-0.3518,-0.3376,0.0,0.0,0.0,0.0,0.0,0.0,0.0,0.0,0.0,0.0,0.0,0.0,0.0,0.0,0.0,0.0,0.0,0.0,0.0,0.0,0.0,0.0,0.0038,0.0037,0.0037,0.0037,0.0,0.0186,0.0323,0.0375,0.0,0.0,0.0,0.0,0.0,0.0,0.0,0.0,0.2897,0.2478,0.2477,0.3589,0.3713,0.3787,0.393,0.3722,0.3875,0.4624,0.4191,0.4173,0.4716,0.4078,0.0,0.0,0.0,0.0,0.0,0.0,0.0,0.0,0.0,0.0,0.0,0.0,0.0,0.0,0.0,0.0,0.0,0.0,0.0,0.0,0.0,0.0,0.0,0.0,0.0,0.0,0.0,0.0,0.0,-0.5109,-0.5793,-0.5381,-0.5416,-0.5136,0.0,0.0,0.0,0.0,0.0,0.0,0.0,0.0,0.0,-0.4697,-0.4833,-0.4985,-0.5154,-0.5333,-0.5453,-0.5518,-0.5676,-0.5784,-0.5855,-0.5909,-0.5931,-0.5931,-0.5931,-0.5549,-0.4839,-0.4236,-0.3491,-0.273,0.0,0.0,0.0,0.0,-0.2192,-0.2315,-0.3126,-0.3358,0.0,0.0,0.0,0.0,0.0,0.0,0.0,0.0,0.0,0.0,0.0,0.0,0.0,0.0,0.0,0.0,0.0,0.0074,0.017,0.0,0.0426,0.0678,0.1005,0.0,0.0,0.0,0.0,0.0,0.1873,0.1496,0.1396,0.1957,0.2116,0.2429,0.3015,0.2911,0.3381,0.4641,0.4335,0.4455,0.5143,0.4687,0.428,0.0,0.0,0.0,0.0,0.0,0.0,0.0,0.0,0.0,0.0,0.0,0.0,0.0,0.0,0.0,0.0,0.0,0.0,0.0,0.0,0.0,0.0,0.0,0.0,0.0,0.0,0.0,0.0,-0.5777,-0.6304,-0.5419,-0.622,-0.6291,0.0,0.0,0.0,0.0,0.0,0.0,-0.6172,-0.5765,-0.5438,-0.5322,-0.5457,-0.5561,-0.5642,-0.5734,-0.5882,-0.5996,-0.5996,-0.6056,-0.6176,-0.6176,-0.6176,-0.6176,-0.6176,-0.6105,-0.5917,-0.5042,-0.4434,-0.399,-0.3472,-0.3133,-0.2992,-0.3221,-0.3291,-0.3423,-0.4241,-0.4467,-0.444,-0.4395,0.0,-0.376,-0.2433,0.0,0.0,0.0,0.0,-0.0538,-0.0274,-0.0281,-0.0285,-0.0042,0.0,0.0,0.0,0.0041,0.008,0.0,0.0231,0.041,0.0817,0.0,0.0,0.0,0.0,0.0919,0.0894,0.0662,0.056,0.06,0.0716,0.1149,0.202,0.2013,0.2594,0.4109,0.3944,0.4237,0.5192,0.488,0.461,0.4428,0.0,0.0,0.0,0.0,0.0,0.0,0.0,0.0,0.0,0.0,0.0,0.0,0.0,0.0,0.0,0.0,0.0,0.0,0.0,0.0,0.0,0.0,0.0,0.0,0.0,0.0,0.0,0.0,0.0,-0.764,-0.8659,0.0,0.0,0.0,0.0,-0.8286,-0.8412,-0.8219,-0.7626,-0.7439,-0.7037,-0.6264,-0.6008,-0.5937,-0.6056,-0.6067,-0.6127,-0.63,-0.63,-0.6312,-0.6371,-0.6371,-0.6371,-0.6371,-0.6371,-0.6355,-0.6225,-0.581,-0.519,-0.4475,-0.429,-0.3794,-0.3305,-0.4104,-0.4437,-0.4536,-0.5352,-0.5539,-0.5454,-0.5555,-0.5019,-0.4254,-0.4021,-0.3407,0.0,0.0,-0.2749,-0.2518,-0.1572,-0.1319,-0.1087,-0.0223,0.0,0.0,0.0,0.013,0.0211,0.0,0.0,0.0072,0.0209,0.0,0.0238,0.0286,0.0259,0.0268,0.0322,0.0331,0.0378,0.0588,0.0617,0.0731,0.0974,0.0994,0.145,0.2543,0.2482,0.3119,0.4758,0.4383,0.4436,0.5056,0.4483,0.0,0.0,0.0,0.0,0.0,0.0,0.0,0.0,0.0,0.0,0.0,0.0,0.0,0.0,0.0,0.0,0.0,0.0,0.0,0.0,0.0,0.0,0.0,0.0,0.0,0.0,0.0,0.0,-0.8765,-0.9848,0.0,-0.8815,-0.872,-0.9047,-0.973,-0.9523,-0.9517,-0.9851,-0.9463,-0.9099,-0.8808,-0.8823,-0.8427,-0.757,-0.757,-0.7162,-0.6377,-0.6377,-0.6399,-0.6387,-0.6387,-0.6387,-0.6387,-0.6387,-0.6365,-0.6366,-0.6187,-0.5926,-0.5522,-0.5481,-0.5285,-0.5108,-0.542,-0.5527,-0.5578,-0.585,-0.5931,-0.5888,-0.5855,-0.5211,-0.4402,-0.4368,-0.3293,-0.2054,-0.2059,-0.1547,-0.095,-0.0577,-0.049,-0.04,-0.009,0.0,0.0,0.0,0.0044,0.0088,0.0,0.0122,0.0194,0.019,0.0112,0.0112,0.0191,0.0117,0.008,0.0124,0.0126,0.0168,0.0379,0.0418,0.0538,0.0855,0.0889,0.1357,0.2434,0.2452,0.2887,0.3907,0.4232,0.4378,0.4461,0.459,0.4308,0.0,0.0,0.0,0.0,0.0,0.0,0.0,0.0,0.0,0.0,0.0,0.0,0.0,0.0,0.0,0.0,0.0,0.0,0.0,0.0,0.0,0.0,0.0,0.0,0.0,0.0,-1.0347,-0.9606,-1.0979,-1.1458,-1.0155,-1.0375,-1.0867,-1.1569,-1.1314,-1.1275,-1.1614,-1.1189,-1.077,-1.0434,-1.0405,-0.9976,-0.9099,-0.9099,-0.8605,-0.777,-0.777,-0.7571,-0.7229,-0.7129,-0.688,-0.6537,-0.6437,-0.6387,-0.6387,-0.6387,-0.6344,-0.6203,-0.6203,-0.6203,-0.6203,-0.6203,-0.6203,-0.6203,-0.6203,-0.6181,-0.6132,-0.6051,-0.5573,-0.5022,-0.5022,-0.4154,-0.3115,-0.3109,-0.2587,-0.1881,-0.121,-0.1017,-0.0823,-0.0182,0.0,0.0,0.0,0.0,0.0,0.0,0.0086,0.0166,0.0122,0.004,0.0081,0.0244,0.0124,0.0042,0.0129,0.0043,0.0043,0.0172,0.0214,0.0338,0.066,0.0771,0.1114,0.1824,0.1931,0.2297,0.2983,0.3618,0.3991,0.417,0.4546,0.4497,0.3941,0.0,0.0,0.0,0.0,0.0,0.0,0.0,0.0,0.0,0.0,0.0,0.0,0.0,0.0,0.0,0.0,0.0,0.0,0.0,0.0,0.0,0.0,0.0,-1.0051,-1.0633,-1.0961,-1.027,-1.217,-1.3069,-1.1912,-1.2841,-1.3664,-1.3918,-1.3942,-1.3625,-1.2834,-1.2506,-1.1922,-1.0944,-1.069,-1.0534,-1.0485,-1.0485,-1.0485,-1.0435,-1.0435,-0.9846,-0.8817,-0.8528,-0.7839,-0.6853,-0.6598,-0.6492,-0.6492,-0.6492,-0.6437,-0.6437,-0.6387,-0.6387,-0.6387,-0.6387,-0.6387,-0.6387,-0.6387,-0.6366,-0.6322,-0.6322,-0.6192,-0.6094,-0.6094,-0.6094,-0.6047,-0.6047,-0.6047,-0.5569,-0.3521,-0.2996,-0.2508,-0.0558,-0.0093,-0.0046,-0.009,-0.0045,0.0,-0.0045,0.0,0.0,0.0,0.0,0.0085,0.0347,0.0174,0.0,0.0358,0.018,0.0,0.0,0.0,0.0086,0.0296,0.0485,0.0584,0.0607,0.0777,0.1238,0.2037,0.252,0.3218,0.4228,0.4391,0.4382,0.4187,0.0,0.0,0.0,0.0,0.0,0.0,0.0,0.0,0.0,0.0,0.0,0.0,0.0,0.0,0.0,0.0,0.0,0.0,0.0,0.0,0.0,0.0,-1.1461,-1.0869,-1.1947,-1.286,-1.2836,-1.3601,-1.4004,-1.3874,-1.4196,-1.4497,-1.4763,-1.4775,-1.4662,-1.4471,-1.4371,-1.4221,-1.392,-1.3858,-1.3344,-1.2365,-1.2365,-1.1909,-1.0994,-1.0994,-1.0382,-0.9212,-0.916,-0.8955,-0.8704,-0.8601,-0.8538,-0.844,-0.844,-0.7875,-0.6936,-0.6537,-0.6387,-0.6387,-0.6387,-0.6387,-0.6387,-0.6387,-0.6365,-0.6388,-0.6388,-0.6366,-0.6339,-0.6339,-0.5797,-0.5156,-0.5156,-0.4614,-0.3885,-0.3303,-0.3124,-0.2991,-0.2456,-0.1746,-0.1362,-0.2024,-0.1009,-0.0183,-0.09,-0.0447,0.0,0.0,0.0,0.0044,0.0089,0.0045,0.0,0.009,0.0045,0.009,0.0269,0.0268,0.0353,0.0562,0.063,0.065,0.0585,0.0635,0.0765,0.102,0.1618,0.2348,0.3277,0.3747,0.3964,0.0,0.0,0.0,0.0,0.0,0.0,0.0,0.0,0.0,0.0,0.0,0.0,0.0,0.0,0.0,0.0,0.0,0.0,0.0,0.0,0.0,0.0,-1.188,-1.2666,-1.2458,-1.3266,-1.3978,-1.4364,-1.4545,-1.4702,-1.4859,-1.4883,-1.4944,-1.5101,-1.5113,-1.5113,-1.5113,-1.5113,-1.5113,-1.5113,-1.5113,-1.4734,-1.3948,-1.3948,-1.3591,-1.2823,-1.2823,-1.2248,-1.1113,-1.1,-1.0439,0.0,-0.9451,-0.9094,-0.8557,-0.8557,-0.8097,0.0,0.0,0.0,0.0,0.0,-0.6387,-0.6387,-0.6387,-0.6387,-0.6387,-0.6387,-0.6387,-0.6387,-0.6387,-0.5987,-0.5486,-0.5486,-0.5042,-0.4453,-0.3963,-0.388,-0.3743,-0.3328,-0.2743,-0.2441,-0.2956,-0.2136,-0.1426,-0.1956,-0.1263,0.0,-0.0584,-0.0269,0.0045,0.0135,0.009,0.0045,0.0135,0.009,0.0045,0.0224,0.0224,0.0267,0.0392,0.0465,0.0,0.0,0.0,0.058,0.0789,0.134,0.0,0.0,0.0,0.0,0.0,0.0,0.0,0.0,0.4565,0.4819,0.0,0.0,0.0,0.0,0.0,0.0,0.0,0.0,0.0,0.0,0.0,0.0,0.0,0.0,0.0,0.0,-1.3145,-1.4063,-1.4389,-1.4437,-1.4606,-1.5052,-1.5113,-1.5125,-1.5149,-1.5149,-1.5161,-1.5197,-1.5197,-1.5197,-1.5197,0.0,0.0,0.0,0.0,-1.5197,-1.5197,-1.5197,-1.5197,-1.5197,-1.5197,-1.4623,-1.3586,-1.3307,-1.2161,-1.0253,-1.0036,-0.9347,-0.8401,-0.8249,-0.8032,-0.7731,-0.7382,-0.7127,-0.6865,-0.6609,-0.6498,-0.6437,-0.6437,0.0,0.0,-0.6387,-0.6387,-0.6387,-0.6387,-0.6387,-0.6387,-0.6387,-0.6387,-0.6187,-0.5236,-0.4985,-0.4764,-0.3795,-0.3485,-0.3418,-0.3543,-0.3293,-0.306,-0.3138,-0.232,-0.1573,-0.157,-0.0719,0.009,0.0314,0.0135,0.009,0.0314,0.0135,0.0,0.0045,0.0,0.0,0.0044,0.021,0.0203,0.0,0.0152,0.0475,0.0964,0.1353,0.1849,0.2488,0.2792,0.3043,0.3237,0.4158,0.4604,0.4692,0.4953,0.5359,0.0,0.0,0.0,0.0,0.0,0.0,0.0,0.0,0.0,0.0,0.0,0.0,0.0,0.0,0.0,-1.3085,-1.3773,-1.4461,-1.5173,-1.527,-1.5221,-1.5125,-1.5113,-1.5185,-1.5403,-1.5427,-1.5511,-1.5728,-1.5741,-1.5741,-1.5741,-1.5741,-1.5741,-1.5741,-1.5741,-1.5741,-1.5741,-1.5741,-1.5741,-1.5741,0.0,0.0,-1.4083,-1.4029,-1.3752,-1.3324,-1.327,-1.3052,-1.2628,-1.1723,-1.016,-0.8321,-0.7799,-0.7504,-0.7355,-0.7304,-0.703,-0.6742,-0.6742,-0.6592,-0.6387,-0.6387,-0.6387,-0.6387,-0.6387,-0.6387,0.0,-0.6387,-0.6387,-0.6337,-0.6137,-0.6087,-0.6032,-0.5807,-0.5105,-0.4732,-0.5523,-0.4369,-0.3355,-0.4081,-0.3402,-0.2693,-0.2606,-0.1166,0.0,0.009,0.0045,0.0,0.009,0.0045,0.009,0.0314,0.0314,0.0313,0.0312,0.0349,0.0255,0.0,0.004,0.0119,0.0198,0.0435,0.0633,0.0791,0.1518,0.1955,0.2124,0.289,0.3483,0.3944,0.5351,0.6163,0.0,0.0,0.0,0.0,0.0,0.0,0.0,0.0,0.0,0.0,0.0,-1.1297,-1.1999,0.0,-1.3326,-1.4002,-1.4558,-1.504,-1.5439,-1.5608,-1.5644,-1.5511,-1.5499,-1.5547,-1.568,-1.5692,-1.5753,-1.5885,-1.5885,-1.5885,-1.5885,-1.5885,-1.5885,-1.5885,-1.5885,-1.5885,-1.5885,-1.5885,-1.5885,-1.5885,-1.5885,-1.5618,-1.503,-1.503,-1.4761,-1.4223,-1.4223,-1.3826,-1.3123,-1.2525,-1.1237,-0.9555,-0.9287,-0.8514,-0.7495,-0.7235,-0.6947,-0.6681,-0.6681,-0.6592,-0.6387,-0.6387,-0.6387,-0.6387,-0.6387,-0.6387,-0.6387,-0.6387,-0.6387,-0.6387,-0.6387,-0.6387,-0.6387,-0.6387,-0.5987,-0.5722,-0.6267,-0.5517,-0.4865,-0.5299,-0.4571,-0.3828,-0.3789,-0.2518,-0.1316,-0.0764,-0.0719,-0.0539,-0.0045,0.0,0.0045,0.0179,0.0179,0.0179,0.0179,0.022,0.0129,0.0,0.0,0.0,0.0,0.0207,0.029,0.029,0.0869,0.1164,0.1261,0.2079,0.2628,0.2949,0.4299,0.5389,0.0,0.0,0.0,0.0,0.0,0.0,0.0,0.0,-1.0694,-1.156,-1.1961,-1.2461,-1.3238,-1.3831,-1.434,-1.4787,-1.5221,-1.5511,-1.5572,-1.5753,-1.5885,-1.5885,-1.5885,-1.5885,-1.5885,-1.5885,-1.591,-1.5958,-1.597,-1.5994,-1.6042,-1.6054,-1.6054,-1.6054,-1.6054,-1.6054,-1.6054,-1.6054,-1.6054,-1.6042,-1.5994,-1.597,-1.597,-1.591,-1.5405,-1.4546,-1.4546,-1.3835,-1.2743,-1.2743,-1.2091,-1.1055,-1.0945,-0.98,-0.8037,-0.7322,-0.6967,-0.6809,-0.6757,-0.6573,-0.6419,-0.6419,-0.6403,-0.6387,-0.6387,-0.6387,-0.6387,-0.6387,-0.6387,-0.6387,-0.6387,-0.6387,-0.6387,-0.6387,-0.6387,-0.6387,-0.6387,-0.6366,-0.6295,-0.6322,-0.561,-0.5013,-0.4996,-0.4219,-0.3178,-0.1898,-0.1528,-0.1122,-0.0359,-0.0135,0.0,0.0,0.0,0.0,0.0,0.0,0.0,0.0,0.0,0.0,0.0,0.0171,0.0256,0.0256,0.0434,0.0569,0.0569,0.1339,0.1711,0.1803,0.2803,0.402,-1.0319,-0.9805,-0.9672,-1.031,-1.0358,-1.0743,0.0,0.0,-1.2688,-1.3729,-1.4338,-1.465,-1.4527,-1.4949,-1.5355,-1.5418,-1.5463,-1.5584,-1.5813,-1.5873,-1.5885,-1.5885,-1.5885,-1.5885,-1.5885,-1.5885,-1.5982,-1.6223,-1.6247,-1.6368,-1.6598,-1.661,-1.661,-1.661,-1.661,-1.661,-1.661,-1.661,-1.661,-1.661,-1.6356,-1.6235,-1.6223,-1.5994,-1.5832,-1.5725,-1.5725,-1.5083,-1.3997,-1.3997,-1.3295,-1.22,-1.1928,-1.1084,-0.9781,-0.8568,-0.7849,-0.7469,-0.72,-0.6906,-0.66,-0.66,-0.6473,-0.6387,-0.6387,-0.6387,-0.6387,-0.6387,-0.6387,-0.6387,-0.6387,-0.6387,-0.6387,-0.6387,-0.6387,-0.6387,-0.6387,-0.6376,-0.6388,-0.629,-0.6209,-0.6069,-0.5958,-0.5837,-0.5083,-0.3135,-0.1994,-0.1346,-0.1256,-0.0494,0.0,0.0,0.0,0.0,0.0,0.0,0.0,0.0,0.0,0.0,0.0,0.0,0.0045,0.0045,0.0045,0.009,0.009,0.0183,0.0368,0.0599,0.1551,0.2675,-1.1549,-1.1169,0.0,0.0,-1.1839,-1.2366,-1.3307,-1.3433,-1.3666,-1.4595,-1.4823,-1.4981,-1.532,-1.5593,-1.5776,0.0,-1.6098,-1.6228,-1.6352,-1.6205,-1.605,-1.5891,-1.5907,-1.5885,-1.5885,-1.603,-1.6163,-1.6272,-1.6441,-1.6585,-1.6694,-1.6706,-1.6706,-1.6706,-1.6706,-1.6706,-1.6706,-1.6706,-1.6706,-1.6706,-1.6585,-1.6525,-1.6525,-1.6416,-1.6272,-1.6103,-1.5958,-1.5618,-1.519,-1.519,-1.4482,-1.3457,-1.3349,-1.2526,-1.1311,-0.9727,-0.8574,-0.7707,-0.744,-0.714,-0.6928,-0.6777,-0.6643,-0.6495,-0.6495,-0.6441,-0.6387,-0.6387,-0.6387,-0.6387,-0.6387,-0.6387,-0.6387,-0.6387,-0.6387,-0.6387,-0.6387,-0.6387,-0.6371,-0.6377,-0.6366,-0.635,-0.6301,-0.6236,-0.5931,-0.507,-0.3993,-0.2877,-0.1672,-0.1161,-0.0697,-0.0047,0.0,0.0,0.0,0.0,0.0,0.0,0.0,0.0,0.0,0.0,0.0,0.0,0.0,0.0,0.0,0.0,0.0047,0.0188,0.0576,0.1013,-1.2157,0.0,0.0,-1.249,-1.3102,-1.3689,-1.3909,-1.4141,-1.454,-1.5296,-1.5345,-1.5417,-1.5997,-1.6197,-1.6336,-1.6493,-1.669,-1.6797,-1.6744,-1.648,-1.6172,-1.5848,-1.5712,-1.5704,-1.5777,-1.6091,-1.6308,-1.6392,-1.6658,-1.6839,-1.6911,-1.6911,-1.6911,-1.6911,-1.6911,-1.6911,-1.6911,-1.6911,-1.6911,-1.6911,-1.6839,-1.6803,-1.6803,-1.673,-1.6585,-1.638,-1.6115,-1.5994,-1.5994,-1.5922,-1.5405,-1.4654,-1.4654,-1.3943,-1.2743,-1.1492,-0.9937,-0.8493,-0.8167,-0.7756,-0.7375,-0.7169,-0.6926,-0.6769,-0.6769,-0.6635,-0.6435,-0.6435,-0.6414,-0.6387,-0.6387,-0.6387,-0.6387,-0.6387,-0.6387,-0.6387,-0.6387,-0.6387,-0.6387,-0.6387,-0.6387,-0.6387,-0.6387,-0.6372,-0.6317,-0.6317,-0.5654,-0.4522,-0.2666,-0.1951,-0.119,-0.0095,0.0,0.0,0.0,0.0,0.0,0.0,0.0,0.0,0.0,0.0,0.0,0.0,0.0,0.0,0.0,0.0,0.0,0.0,0.0,0.0,0.0,0.0,-1.2491,-1.3268,-1.3873,-1.4405,-1.4917,-1.5251,-1.5586,-1.6144,-1.6486,-1.6629,-1.669,-1.6925,-1.7145,-1.7146,-1.7197,-1.7089,-1.6829,-1.6551,-1.6184,-1.5587,-1.5282,-1.5234,0.0,-1.5982,-1.6392,-1.667,-1.6936,-1.7189,-1.7443,-1.7455,-1.7455,-1.7455,-1.7455,-1.7455,-1.7455,-1.7455,-1.7455,-1.7455,-1.7201,-1.708,-1.7068,-1.6815,-1.6694,-1.667,-1.6392,-1.6272,-1.6247,-1.5994,-1.5885,-1.5832,-1.5832,-1.5137,-1.4169,-1.4116,-1.2417,-1.0116,-0.9841,-0.8927,-0.7888,-0.7888,-0.7529,-0.7159,-0.7159,-0.6917,-0.6616,-0.6616,-0.6478,-0.6387,-0.6387,-0.6387,-0.6387,-0.6387,-0.6387,-0.6387,-0.6387,-0.6387,-0.6387,-0.6387,-0.6387,-0.6387,-0.6387,-0.6381,-0.6381,-0.6381,-0.6376,-0.5945,-0.4776,-0.2851,-0.119,-0.0095,0.0,0.0,0.0,0.0,0.0,0.0,0.0,0.0,0.0,0.0,0.0,0.0,0.0,0.0,0.0,0.0,0.0,0.0,0.0,0.0,0.0,0.0,-1.3474,-1.4305,-1.4784,-1.514,-1.5477,-1.561,-1.5817,-1.6206,-1.6108,-1.6017,-1.6366,-1.6536,-1.6715,-1.7104,-1.7473,-1.7711,-1.7616,-1.7363,-1.6893,-1.6138,-1.6084,0.0,0.0,0.0,0.0,-1.667,-1.6948,-1.7201,-1.7467,-1.7479,-1.7479,-1.7479,-1.7479,-1.7479,-1.7479,-1.7479,-1.7479,-1.7479,-1.7394,-1.7358,-1.7346,-1.708,-1.696,-1.6948,-1.667,-1.6453,-1.6272,-1.6187,-1.6042,-1.5885,-1.5885,-1.5672,-1.5351,-1.5351,-1.4266,-1.258,-1.0726,-0.9757,-0.9283,-0.8304,-0.7829,-0.7666,-0.7666,-0.7522,-0.7264,-0.7049,-0.6912,-0.6816,-0.6607,-0.6446,-0.6387,-0.6387,-0.6387,-0.6387,-0.6387,-0.6387,-0.6387,-0.6387,-0.6387,-0.6387,-0.6387,-0.6387,-0.6387,-0.6387,-0.5787,-0.5209,-0.4798,-0.2917,-0.1484,-0.1089,-0.0446,0.0,0.0,0.0,0.0,0.0,0.0,0.0,0.0,0.0,0.0,0.0,0.0,0.0,0.0,0.0,0.0,0.0,0.0,0.0,0.0,-1.4095,-1.4344,-1.5257,-1.5578,-1.5752,-1.5939,-1.5992,-1.6046,-1.6281,-1.595,-1.5794,-1.6347,-1.6299,-1.6367,-1.7226,-1.7649,-1.7902,-1.8006,-1.7777,-1.7355,-1.6549,-1.6535,0.0,0.0,0.0,0.0,-1.6658,-1.6948,-1.7201,-1.7467,-1.7479,-1.7479,-1.7479,-1.7479,-1.7479,-1.7479,-1.7479,-1.7479,-1.7479,-1.7479,-1.7479,-1.7479,-1.731,-1.7237,-1.7213,-1.696,-1.6682,-1.6429,-1.6332,-1.6139,-1.5885,-1.5885,-1.5885,-1.5885,-1.5885,-1.5458,-1.4482,-1.2363,-1.1328,-1.0781,-0.9416,-0.8852,-0.8669,-0.824,-0.7929,-0.7718,-0.7499,-0.7305,-0.7102,-0.6889,-0.6678,-0.6556,-0.6462,-0.6452,-0.6441,-0.6398,-0.6387,-0.6387,-0.6387,-0.6387,-0.6387,-0.6387,-0.6387,-0.6387,-0.6387,-0.5837,-0.5236,-0.4834,-0.3575,-0.262,-0.2217,-0.1211,-0.0553,-0.0595,-0.0201,0.0,0.0,0.0,0.0,0.0,0.0,0.0,0.0,0.0,0.0,0.0,0.0,0.0,0.0,0.0,0.0,-1.5546,-1.5514,-1.5094,-1.6086,-1.6335,-1.6321,-1.6321,-1.6308,-1.6246,-1.6281,-1.5992,-1.5904,0.0,0.0,-1.6131,-1.7355,-1.7569,-1.7756,-1.8079,-1.7934,-1.7538,0.0,0.0,0.0,0.0,0.0,0.0,-1.6738,0.0,-1.7189,-1.7467,-1.7479,-1.7479,-1.7479,-1.7479,-1.7479,-1.7479,-1.7479,-1.7479,-1.7479,-1.7479,-1.7479,-1.7479,-1.7479,-1.7479,-1.7467,-1.7213,-1.696,-1.6706,-1.6453,-1.6187,-1.5934,-1.5922,-1.591,-1.591,-1.5897,-1.5885,-1.5725,-1.4654,-1.3511,-1.2309,-1.1164,-1.0562,-1.0123,-0.8975,-0.8333,-0.8014,-0.796,-0.7594,-0.7229,-0.7229,-0.707,-0.6826,-0.6654,-0.6627,-0.6594,-0.643,-0.6403,-0.6403,-0.6403,-0.6398,-0.6392,-0.6387,-0.6387,-0.6387,-0.6387,-0.6387,-0.6037,-0.5035,-0.4834,-0.4433,-0.3374,-0.2318,-0.1663,-0.1663,-0.0706,-0.0101,-0.0101,-0.005,0.0,0.0,0.0,0.0,0.0,0.0,0.0,0.0,0.0,0.0,0.0,0.0,0.0,-1.661,-1.6832,-1.6942,-1.6684,-1.6433,-1.6321,-1.6321,-1.6099,-1.5885,-1.5671,-1.5239,-1.4923,0.0,0.0,0.0,-1.6717,-1.7488,0.0,-1.8619,-1.8632,0.0,0.0,0.0,-1.7764,-1.7283,-1.7518,0.0,0.0,-1.7158,-1.6996,-1.7455,-1.7479,-1.7479,-1.7479,-1.7479,-1.7479,-1.7479,-1.7479,-1.7479,-1.7479,-1.7479,-1.7479,-1.7479,-1.7479,-1.7479,-1.7479,-1.7406,-1.7237,-1.6984,-1.6923,-1.673,-1.6477,-1.6284,-1.6199,-1.6151,-1.5958,-1.5885,-1.5832,-1.5565,-1.4708,-1.3565,-1.2363,-1.1928,-1.1655,-1.0453,-1.0093,-0.9734,-0.8646,-0.8167,-0.7958,-0.7791,-0.7611,-0.7375,-0.7124,-0.7066,-0.7003,-0.6766,-0.6709,-0.6709,-0.6709,-0.6632,-0.6495,-0.6403,-0.6387,-0.6387,-0.6387,-0.6387,-0.6287,-0.6037,-0.5286,-0.4684,-0.4433,-0.3425,-0.2771,-0.2771,-0.1814,-0.1211,-0.1211,-0.0454,0.0,0.0,0.0,0.0,0.0,0.0,0.0,0.0,0.0,0.0,0.0,0.0,0.0,-1.7888,-1.7998,-1.7905,-1.7123,-1.6673,-1.6393,-1.6139,-1.5845,-1.5484,-1.4937,-1.4458,0.0,0.0,0.0,0.0,0.0,0.0,0.0,-1.8624,-1.8838,-1.8741,0.0,-1.8584,0.0,-1.7981,-1.818,-1.822,0.0,-1.7477,-1.7273,-1.7701,-1.7596,-1.7479,-1.7479,-1.7479,-1.7479,-1.7479,-1.7479,-1.7479,-1.7479,-1.7479,-1.7479,-1.7479,-1.7479,-1.7479,-1.7479,0.0,-1.7334,-1.7092,-1.7092,-1.6936,-1.6682,-1.6537,-1.6404,-1.626,-1.6115,-1.5982,-1.5885,-1.5885,-1.5458,-1.4761,-1.3565,-1.3176,-1.296,-1.1819,-1.1437,-1.1164,-0.9849,-0.9304,-0.8961,-0.8314,-0.7985,-0.7756,-0.7582,-0.7517,-0.7446,-0.7235,-0.7065,-0.6959,-0.6801,-0.6747,-0.6676,-0.6611,-0.6594,-0.6594,-0.6594,-0.6594,-0.6594,-0.6594,-0.5946,-0.5505,-0.5597,-0.4552,-0.394,-0.397,-0.2934,-0.2116,-0.1613,-0.1463,-0.0958,-0.005,-0.0454,-0.0456,0.0,0.0,0.0,0.0,0.0,0.0,0.0,0.0,0.0,-1.9256,-1.8993,-1.8408,-1.7432,-1.6927,-1.654,-1.5912,-1.5524,-1.503,-1.4148,0.0,0.0,-1.3854,0.0,-1.4469,-1.5598,0.0,-1.7527,-1.8424,-1.8771,-1.8945,-1.8985,-1.8985,-1.8858,-1.856,-1.8573,-1.862,-1.8519,-1.8083,-1.7873,-1.8018,-1.7726,-1.7537,-1.7479,-1.7479,-1.7479,-1.7479,-1.7479,-1.7479,-1.7479,-1.7479,-1.7479,-1.7479,-1.7479,-1.7479,-1.7479,0.0,0.0,-1.7141,-1.7141,-1.7008,-1.6803,-1.6767,-1.661,-1.638,-1.6344,-1.6187,-1.5994,-1.5958,-1.5946,-1.5773,-1.4773,-1.4439,-1.4223,-1.3014,-1.2635,-1.2417,-1.1273,-1.0726,-1.0233,-0.9085,-0.8595,-0.8287,-0.8058,-0.7979,-0.7948,-0.7783,-0.7487,-0.721,-0.6934,-0.6881,-0.6876,-0.6806,-0.6801,-0.6801,-0.6801,-0.6801,-0.6801,-0.6801,-0.6616,-0.6473,-0.6632,-0.5681,-0.5103,-0.5231,-0.4143,-0.3043,-0.2133,-0.2843,-0.2435,-0.0559,-0.1371,-0.1433,-0.0521,-0.0469,-0.042,-0.0213,-0.0213,-0.016,0.0,0.0,0.0,-2.0167,-2.0061,-1.9525,-1.764,-1.6927,-1.6486,-1.5658,-1.5057,0.0,0.0,0.0,-1.2958,-1.3012,-1.3628,0.0,-1.5598,0.0,0.0,0.0,0.0,-1.9011,0.0,0.0,0.0,0.0,0.0,0.0,0.0,0.0,-1.8597,-1.8357,-1.8077,-1.7784,-1.7479,-1.7479,-1.7479,-1.7479,-1.7479,-1.7479,-1.7479,-1.7479,-1.7479,-1.7479,-1.7479,-1.7479,-1.7479,-1.7479,0.0,-1.7418,-1.7418,-1.7382,-1.7322,-1.7105,-1.6996,-1.6923,-1.6706,-1.6598,-1.6525,-1.6296,-1.6211,-1.6175,-1.5743,-1.5618,-1.5405,-1.4213,-1.3889,-1.3619,-1.2417,-1.2037,-1.1764,-1.0617,-1.0288,-0.9896,-0.8673,-0.8391,-0.8329,-0.8036,-0.792,-0.7725,-0.7348,-0.7271,-0.7183,-0.687,-0.6801,-0.6801,-0.6801,-0.6801,-0.6801,-0.6801,-0.6763,-0.6747,-0.6768,-0.6595,-0.6485,-0.6506,-0.5483,-0.4789,-0.4579,-0.3893,-0.3368,-0.3,-0.3158,-0.3163,-0.2962,-0.2962,-0.249,-0.1489,-0.1489,-0.0966,0.0,0.0,0.0,-2.1293,-2.088,-2.0171,-1.8448,-1.7369,-1.6393,-1.5204,0.0,0.0,0.0,0.0,-1.2328,-1.2328,0.0,0.0,0.0,0.0,0.0,0.0,0.0,0.0,0.0,0.0,0.0,0.0,0.0,0.0,0.0,0.0,-1.8997,-1.8706,-1.8369,-1.8135,-1.7948,-1.7948,-1.7901,-1.7784,-1.7784,-1.7667,-1.7479,-1.7479,-1.7479,-1.7479,-1.7479,-1.7479,-1.7479,-1.7479,0.0,-1.7479,-1.7479,-1.7479,-1.7467,-1.7346,-1.7213,-1.708,-1.6948,-1.6815,-1.6682,-1.6549,-1.6404,-1.626,-1.6151,-1.6006,-1.5779,-1.5244,-1.5083,-1.4869,-1.3673,-1.3349,-1.3068,-1.1873,-1.1164,-1.0507,-0.9794,-0.9147,-0.8602,-0.8318,-0.8263,-0.8134,-0.7798,-0.7731,-0.7653,-0.7431,-0.7419,-0.7365,-0.7262,-0.7208,-0.7148,-0.704,-0.6986,-0.6964,-0.6904,-0.6839,-0.6828,-0.6893,-0.6356,-0.5787,-0.5259,-0.5259,-0.4778,-0.3666,-0.4143,-0.4159,-0.3608,-0.3608,-0.3301,-0.273,-0.213,-0.1482,-0.0942,-0.0277,0.0,-2.2045,-2.1412,-2.0527,-1.9099,-1.7674,-1.6233,-1.4763,-1.3921,0.0,0.0,0.0,-1.1752,-1.1886,0.0,0.0,0.0,0.0,0.0,0.0,0.0,0.0,0.0,0.0,0.0,0.0,0.0,0.0,0.0,0.0,0.0,-1.8939,-1.8648,-1.8473,-1.8415,-1.8415,-1.8311,-1.8089,-1.8089,-1.7901,-1.7608,-1.7608,-1.755,-1.7479,-1.7479,-1.7479,-1.7479,-1.7479,0.0,0.0,-1.7479,-1.7479,-1.7479,-1.7479,-1.7358,-1.7177,-1.7177,-1.7044,-1.6863,-1.6803,-1.6646,-1.6441,-1.6332,-1.6115,-1.5885,-1.5885,-1.5885,-1.5725,-1.4815,-1.4546,-1.4277,-1.3122,-1.2146,-1.1328,-1.0836,-0.9754,-0.883,-0.8657,-0.8595,-0.8491,-0.8152,-0.8097,-0.8097,-0.7992,-0.7992,-0.7937,-0.766,-0.766,-0.7549,-0.7265,-0.7265,-0.7232,-0.7084,-0.6937,-0.6915,-0.7013,-0.6931,-0.6498,-0.5692,-0.6445,-0.6124,-0.4457,-0.5153,-0.5244,-0.4382,-0.4385,-0.425,-0.3971,-0.2798,-0.2071,-0.1791,-0.056,0.0,-2.1833,-2.1412,-2.0515,-1.883,-1.7352,-1.5925,-1.4456,0.0,0.0,0.0,-1.1263,-1.1236,-1.1806,-1.2435,0.0,0.0,0.0,0.0,0.0,0.0,0.0,0.0,0.0,0.0,0.0,0.0,0.0,0.0,0.0,0.0,-1.8939,-1.8881,-1.8706,-1.8415,-1.8415,-1.8357,-1.8357,-1.8357,-1.8252,-1.7972,-1.7972,-1.7784,-1.7479,-1.7479,-1.7479,-1.7479,-1.7479,0.0,0.0,-1.7479,-1.7479,-1.7479,-1.7479,-1.7467,-1.7443,-1.7443,-1.743,-1.737,-1.7141,-1.7044,-1.6936,-1.6441,-1.6103,-1.5885,-1.5885,-1.5885,-1.5885,-1.5779,-1.5725,-1.5458,-1.4331,-1.3954,-1.3349,-1.1219,-0.9754,-0.8885,-0.8885,-0.8885,-0.8768,-0.8484,-0.8429,-0.8374,-0.8042,-0.7992,-0.7937,-0.766,-0.7826,-0.7765,-0.7265,-0.7438,-0.7487,-0.7199,-0.7182,-0.7182,-0.7193,-0.7182,-0.7122,-0.7011,-0.7122,-0.7066,-0.6901,-0.6956,-0.6961,-0.6861,-0.6861,-0.6306,-0.5258,-0.4027,-0.2854,-0.1791,-0.056,0.0,-2.272,-2.2376,-2.1477,-1.9773,-1.8271,-1.6725,-1.4588,0.0,0.0,-1.1575,-1.1196,-1.1116,-1.153,-1.2078,-1.2852,0.0,-1.4416,-1.5057,0.0,0.0,0.0,0.0,0.0,0.0,0.0,0.0,0.0,0.0,0.0,0.0,-1.9185,-1.9185,-1.9127,-1.901,-1.901,-1.8894,-1.8706,-1.8706,-1.8532,-1.8252,-1.8252,-1.8077,-1.7784,-1.7784,-1.7667,-1.7479,-1.7479,0.0,0.0,-1.7479,-1.7479,-1.7479,-1.7479,-1.7479,-1.7479,-1.7479,-1.7479,-1.7467,-1.7358,-1.7225,-1.7056,-1.6839,-1.6585,-1.632,-1.5994,-1.5885,-1.5885,-1.5885,-1.5885,-1.5779,-1.5351,-1.4708,-1.3661,-1.1364,-1.0452,-0.9924,-0.9355,-0.9205,-0.9148,-0.9084,-0.9027,-0.9001,-0.8745,-0.8726,-0.8588,-0.8227,-0.8208,-0.8152,-0.7709,-0.766,-0.7604,-0.7654,-0.7376,-0.721,-0.721,-0.721,-0.721,-0.721,-0.721,-0.721,-0.721,-0.721,-0.721,-0.721,-0.721,-0.6988,-0.6487,-0.5258,-0.4418,-0.3916,-0.1959,-0.1065,-2.2913,-2.2651,-2.1792,-2.0216,-1.8718,-1.6996,0.0,0.0,-1.2422,-1.1549,-1.1129,-1.0982,-1.1322,-1.177,-1.2398,-1.3427,-1.3773,-1.4389,-1.5658,0.0,0.0,0.0,0.0,0.0,0.0,0.0,0.0,0.0,0.0,0.0,0.0,-1.943,-1.943,-1.943,-1.943,-1.9301,-1.9055,-1.9055,-1.8881,-1.8532,-1.8473,-1.8252,-1.7972,-1.7914,-1.7726,-1.7479,0.0,0.0,0.0,-1.7479,-1.7479,-1.7479,-1.7479,-1.7479,-1.7479,-1.7479,-1.7479,-1.7479,-1.7479,-1.7358,-1.7201,-1.7117,-1.6972,-1.673,-1.6272,-1.6066,-1.6018,-1.6103,-1.6127,-1.6127,-1.6127,-1.5301,-1.4022,-1.2506,-1.1868,-1.128,-1.0213,-0.9954,-0.9838,-0.9497,-0.9381,-0.9347,-0.9296,-0.9275,-0.9128,-0.8683,-0.8726,-0.8613,-0.822,-0.8051,-0.8001,-0.8164,-0.7821,-0.7511,-0.7332,-0.7265,-0.721,-0.721,-0.721,-0.721,-0.721,-0.721,-0.721,-0.721,-0.721,-0.7226,-0.7209,-0.6,-0.5454,-0.5447,-0.3334,-0.2205,-2.2071,-2.1819,-2.1016,-1.9732,-1.8133,-1.64,0.0,-1.316,-1.2131,-1.1543,-1.0969,-1.0774,-1.1282,-1.1402,-1.1882,-1.336,-1.36,-1.4119,-1.5571,0.0,0.0,0.0,0.0,0.0,0.0,0.0,0.0,0.0,0.0,0.0,0.0,-1.943,-1.943,-1.943,-1.943,-1.943,-1.9372,-1.9372,-1.9243,-1.8881,-1.8532,-1.8252,-1.7972,-1.7667,-1.7479,0.0,0.0,0.0,0.0,-1.7479,-1.7479,-1.7479,-1.7479,-1.7479,-1.7479,-1.7479,-1.7479,-1.7479,-1.7479,-1.7479,-1.7443,-1.7177,-1.7092,-1.7044,-1.6767,-1.6501,-1.6332,-1.661,-1.6694,-1.6694,-1.6694,-1.5828,-1.4972,-1.4972,-1.4055,-1.2851,-1.1544,-1.1265,-1.092,-0.9671,-0.9381,-0.9381,-0.9381,-0.9381,-0.9265,-0.8975,-0.9207,-0.92,-0.8555,-0.8736,-0.8794,-0.8497,-0.8497,-0.822,-0.7627,-0.7382,-0.721,-0.721,-0.721,-0.721,-0.721,-0.721,-0.721,-0.721,-0.721,-0.7214,-0.7277,-0.6032,-0.5516,-0.5689,-0.4389,-0.3125,-1.9632,-1.97,-1.9167,-1.759,-1.6814,-1.5892,-1.3926,-1.2879,-1.2131,-1.1509,-1.0969,-1.0774,-1.1282,-1.1389,-1.1882,-1.336,-1.36,0.0,0.0,0.0,0.0,0.0,0.0,0.0,0.0,0.0,0.0,0.0,0.0,0.0,0.0,-1.943,-1.943,-1.943,-1.943,-1.943,-1.943,-1.943,-1.9359,-1.9243,-1.9127,-1.8894,-1.859,-1.8532,0.0,0.0,0.0,0.0,0.0,-1.7479,-1.7479,-1.7479,-1.7479,-1.7479,-1.7479,-1.7479,-1.7479,-1.7479,-1.7479,-1.7479,-1.7467,-1.7382,-1.7358,-1.7346,-1.7261,-1.6923,-1.6585,-1.667,-1.6706,-1.6706,-1.6706,-1.6414,-1.5998,-1.5303,-1.4819,-1.4283,-1.3193,-1.2226,-1.1462,-1.1046,-1.0278,-0.9652,-0.9551,-0.9537,-0.9444,-0.9278,-0.9323,-0.9323,-0.9149,-0.8975,-0.8975,-0.9091,-0.8736,-0.8408,-0.8208,-0.8145,-0.8052,-0.7963,-0.7963,-0.7844,-0.7613,-0.7613,-0.7545,-0.7399,-0.7404,-0.7421,-0.7459,-0.7017,-0.6455,-0.5693,-0.5315,-0.3998,0.0,-1.843,-1.8114,-1.6384,-1.5866,-1.5292,-1.349,-1.2572,-1.1971,-1.1383,-1.0889,-1.0734,-1.1182,-1.1263,-1.1677,-1.2894,-1.3227,0.0,0.0,0.0,0.0,0.0,0.0,0.0,0.0,0.0,0.0,0.0,0.0,0.0,0.0,-1.9649,-1.943,-1.943,-1.943,-1.943,-1.943,-1.943,-1.943,-1.943,-1.9243,-1.9113,-1.8881,-1.8765,0.0,0.0,0.0,0.0,0.0,-1.7726,-1.7667,-1.7667,-1.7537,-1.7479,-1.7479,-1.7479,-1.7479,-1.7479,-1.7479,-1.7479,-1.7479,-1.7479,-1.7479,-1.7479,-1.7479,-1.7249,-1.6972,-1.6875,-1.6923,-1.6996,-1.6996,-1.6996,-1.686,-1.6205,-1.6065,-1.5748,-1.4648,-1.3784,-1.3006,-1.2526,-1.139,-1.0514,-1.0419,-0.9986,-0.9659,-0.9557,-0.9544,-0.9544,-0.9544,-0.9373,-0.9314,-0.9551,-0.9189,-0.9012,-0.9012,-0.8676,-0.8466,-0.8386,-0.838,-0.8265,-0.8087,-0.8087,-0.8014,-0.7863,-0.7752,-0.7716,-0.776,-0.7687,-0.7213,-0.6459,-0.5962,-0.4927,0.0,-1.7501,-1.7433,-1.5706,-1.5091,-1.4485,-1.304,-1.2261,0.0,-1.1116,-1.0801,-1.0707,-1.1022,-1.1049,-1.1343,-1.2305,-1.2741,0.0,0.0,0.0,0.0,0.0,0.0,0.0,0.0,0.0,0.0,0.0,0.0,0.0,0.0,-2.027,-1.9591,-1.9533,-1.9533,-1.9475,-1.943,-1.943,-1.943,-1.943,-1.9055,-1.8939,-1.8939,-1.859,0.0,0.0,0.0,0.0,0.0,-1.8135,-1.8031,-1.8031,-1.7667,-1.7537,-1.7537,-1.7479,-1.7479,-1.7479,-1.7479,-1.7479,-1.7479,-1.7479,-1.7479,-1.7479,-1.7479,-1.7479,-1.743,-1.7189,-1.7298,-1.7479,-1.7479,-1.7479,-1.7479,-1.7479,-1.7479,-1.7185,-1.5994,-1.5628,-1.5273,-1.4083,-1.2766,-1.1812,-1.1692,-1.0725,-0.9883,-0.9822,-0.9822,-0.9822,-0.9822,-0.9822,-0.9822,-0.9822,-0.9822,-0.9822,-0.9822,-0.9031,-0.8586,-0.8574,-0.8574,-0.8574,-0.8515,-0.8515,-0.8522,-0.8528,-0.8242,-0.8125,-0.8247,-0.806,-0.7878,-0.7774,-0.6602,-0.6031,-1.3181,0.0,-1.3855,-1.2669,-1.2521,-1.2513,0.0,-1.1623,-1.1423,-1.1062,0.0,-1.0881,-1.1824,-1.1623,-1.1868,-1.3707,-1.4517,0.0,0.0,0.0,0.0,0.0,0.0,0.0,0.0,0.0,0.0,0.0,0.0,0.0,0.0,-2.2297,-2.1744,-2.0788,-2.0788,-2.0328,-1.943,-1.943,-1.943,-1.943,-1.9301,-1.9301,-1.9301,-1.9185,0.0,0.0,0.0,0.0,-1.8415,-1.8298,-1.8311,-1.8311,-1.796,-1.7901,-1.7843,-1.7608,-1.7479,-1.7479,-1.7479,-1.7479,-1.7479,-1.7479,-1.7479,-1.7479,-1.7479,-1.7479,-1.7467,-1.7406,-1.743,-1.7479,-1.7479,-1.7479,-1.7479,-1.7479,-1.7479,-1.742,-1.7126,-1.629,-1.551,-1.5213,-1.4083,-1.2886,-1.1872,-1.145,-1.0906,-0.9943,-0.9822,-0.9822,-0.9822,-0.9822,-0.9822,-0.9822,-0.9822,-0.9822,-0.9822,-0.9633,-0.9427,-0.9327,-0.9314,-0.9255,-0.8953,-0.8953,-0.8885,-0.8817,-0.8757,-0.8715,-0.8745,-0.8714,-0.8653,-0.863,-0.8044,-0.7255,-1.1655,-1.2513,-1.3297,-1.2112,-1.1944,-1.1984,-1.169,0.0,0.0,0.0,0.0,-1.0924,-1.1992,-1.2276,0.0,-1.403,-1.5383,0.0,0.0,0.0,0.0,0.0,0.0,0.0,0.0,0.0,0.0,0.0,0.0,0.0,0.0,-2.3311,-2.2692,-2.207,-2.1517,-2.0615,-1.9417,-1.943,-1.943,-1.943,-1.943,-1.943,-1.943,-1.943,-1.9301,0.0,0.0,0.0,-1.8836,-1.8706,-1.8648,-1.859,-1.8311,-1.8089,-1.7972,-1.7784,-1.7608,-1.7479,-1.7479,-1.7479,-1.7479,-1.7479,-1.7479,-1.7479,-1.7479,-1.7479,-1.7479,-1.7479,-1.7479,-1.7479,-1.7479,-1.7479,-1.7479,-1.7479,-1.7479,-1.7479,-1.7479,-1.695,-1.6467,-1.6467,-1.5451,-1.4321,-1.3605,-1.2466,-1.145,-1.0785,-1.0179,-0.9822,-0.9822,-0.9822,-0.9822,-0.9822,-0.9822,-0.9822,-0.9822,-0.9822,-0.9788,-0.9713,-0.9707,-0.9587,-0.946,-0.94,-0.9318,-0.9092,-0.9098,-0.9037,-0.8915,-0.8915,-0.8915,-0.8915,-0.8732,-0.8238,-1.1269,-1.28,-1.4212,-1.2675,-1.234,-1.2376,-1.2077,0.0,0.0,0.0,0.0,0.0,0.0,0.0,0.0,0.0,0.0,0.0,0.0,0.0,0.0,0.0,0.0,0.0,0.0,0.0,0.0,0.0,0.0,0.0,0.0,-2.4111,-2.348,-2.3255,-2.2297,-2.1174,-1.9938,-1.9591,-1.943,-1.943,-1.943,-1.943,-1.943,-1.943,-1.943,0.0,0.0,0.0,-1.9359,-1.9113,-1.8997,-1.8939,-1.859,-1.8369,-1.8135,-1.8089,-1.7843,-1.755,-1.7537,-1.7479,-1.7479,-1.7479,-1.7479,-1.7479,-1.7479,-1.7479,-1.7479,-1.7479,-1.7479,-1.7479,-1.7479,-1.7479,-1.7479,-1.7479,-1.7479,-1.7479,-1.7479,-1.7479,-1.7479,-1.7479,-1.6644,-1.5806,-1.5628,-1.3784,-1.2225,-1.2053,-1.0906,-1.0065,-1.0065,-0.9943,-0.9822,-0.9822,-0.9822,-0.9822,-0.9822,-0.9822,-0.9822,-0.9822,-0.9822,-0.9822,-0.9822,-0.9822,-0.964,-0.9396,-0.9396,-0.9275,-0.9037,-0.9037,-0.9037,-0.9037,-0.8976,-0.8976,-1.1926,-1.3726,-1.4903,-1.2673,-1.2609,-1.2965,-1.2575,0.0,0.0,0.0,0.0,0.0,0.0,0.0,0.0,0.0,0.0,0.0,0.0,0.0,0.0,0.0,0.0,0.0,0.0,0.0,0.0,0.0,0.0,0.0,0.0,-2.6136,-2.5569,-2.4556,-2.4334,-2.3648,-2.2467,-2.0443,-1.943,-1.943,-1.943,-1.943,-1.943,-1.943,-1.943,0.0,0.0,-1.943,-1.943,-1.9359,-1.9301,-1.9301,-1.8939,-1.8823,-1.8706,-1.8415,-1.8135,-1.7901,-1.7608,-1.7479,-1.7479,-1.7479,-1.7479,-1.7479,-1.7479,-1.7479,-1.7479,-1.7479,-1.7479,-1.7479,-1.7479,-1.7479,-1.7479,-1.7479,-1.7479,-1.7479,-1.7479,-1.7479,-1.7479,-1.7479,-1.7361,-1.6891,-1.5806,-1.5273,-1.4619,-1.3545,-1.2286,-1.139,-1.139,-1.0482,-0.9822,-0.9822,-0.9822,-0.9822,-0.9822,-0.9822,-0.9822,-0.9822,-0.9822,-0.9822,-0.9822,-0.9822,-0.9761,-0.97,-0.97,-0.97,-0.964,-0.964,-0.964,-0.964,-0.9396,-0.9214,-1.1662,-1.3137,-1.444,-1.3781,-1.4268,-1.4813,-1.4413,-1.3808,0.0,0.0,0.0,0.0,0.0,0.0,0.0,0.0,0.0,0.0,0.0,0.0,0.0,0.0,0.0,0.0,0.0,0.0,0.0,0.0,0.0,0.0,0.0,0.0,-2.6354,-2.5789,-2.5128,-2.4556,-2.3999,-2.224,-2.1345,-2.1345,-2.0673,-2.0385,-2.0328,-1.9707,-1.943,-1.943,0.0,-1.943,-1.943,-1.943,-1.943,-1.9359,-1.9243,-1.9055,-1.8823,-1.8369,-1.8089,-1.7972,-1.7608,-1.7479,-1.7479,-1.7479,-1.7479,-1.7479,-1.7479,-1.7479,-1.7479,-1.7479,-1.7479,-1.7479,-1.7479,-1.7479,-1.7479,-1.7479,-1.7479,-1.7479,-1.7479,-1.7479,-1.7479,-1.7479,-1.7479,-1.7303,-1.6703,-1.6053,-1.5391,-1.4798,-1.3006,-1.1692,-1.1692,-1.0604,-0.9822,-0.9822,-0.9822,-0.9822,-0.9822,-0.9822,-0.9822,-0.9822,-0.9822,-0.9822,-0.9822,-0.9822,-0.9822,-0.9822,-0.9822,-0.9822,-0.9822,-0.9822,-0.9822,-0.9822,-0.964,-0.9579,-1.198,-1.3041,-1.4179,-1.5078,0.0,-1.6154,-1.6331,-1.5702,0.0,0.0,0.0,0.0,0.0,0.0,0.0,0.0,0.0,0.0,0.0,0.0,0.0,0.0,0.0,0.0,0.0,0.0,0.0,0.0,0.0,0.0,0.0,0.0,-2.6591,-2.6591,-2.5679,-2.5238,-2.5238,-2.4278,-2.3536,-2.2974,-2.2085,-2.1631,-2.1574,-2.0673,-2.0097,-1.9822,-1.9822,-1.9649,-1.943,-1.943,-1.943,-1.943,-1.943,-1.9243,-1.8939,-1.8428,-1.8194,-1.8135,-1.7784,-1.7608,-1.7608,-1.7537,-1.7479,-1.7479,-1.7479,-1.7479,-1.7479,-1.7479,-1.7479,-1.7479,-1.7479,-1.7479,-1.7479,-1.7479,-1.7479,-1.7479,-1.7479,-1.7479,-1.7479,-1.7479,-1.7479,-1.7479,-1.7479,-1.6703,-1.6053,-1.6053,-1.3844,-1.2174,-1.2174,-1.0785,-0.9822,-0.9822,-0.9822,-0.9822,-0.9822,-0.9822,-0.9822,-0.9822,-0.9822,-0.9822,-0.9822,-0.9822,-0.9822,-0.9822,-0.9822,-0.9822,-0.9822,-0.9822,-0.9822,-0.9822,-0.9822,-0.9822,-1.3819,-1.4679,-1.5084,-1.6201,-1.5884,-1.5762,-1.761,-1.6824,0.0,-1.6661,0.0,0.0,0.0,0.0,0.0,0.0,0.0,0.0,0.0,0.0,0.0,0.0,0.0,0.0,0.0,0.0,0.0,0.0,0.0,0.0,0.0,0.0,0.0,-2.6591,-2.6537,-2.6482,-2.6482,-2.6354,-2.5238,-2.2974,-2.2918,-2.2862,-2.2862,-2.2749,-2.2142,-2.106,-2.106,-2.0443,-1.943,-1.943,-1.943,-1.943,-1.943,-1.9372,-1.9301,-1.8939,-1.8823,-1.8765,-1.8194,-1.7972,-1.7914,-1.7608,-1.7479,-1.7479,-1.7479,-1.7479,-1.7479,-1.7479,-1.7479,-1.7479,-1.7479,-1.7479,-1.7479,-1.7479,-1.7479,-1.7479,-1.7479,-1.7479,-1.7479,-1.7479,-1.7479,-1.7479,-1.7479,-1.742,-1.7361,-1.7361,-1.5213,-1.3545,-1.3545,-1.1382,-0.9822,-0.9822,-0.9822,-0.9822,-0.9822,-0.9822,-0.9822,-0.9822,-0.9822,-0.9822,-0.9822,-0.9822,-0.9822,-0.9822,-0.9822,-0.9822,-0.9822,-0.9822,-0.9822,-0.9822,-0.9822,-0.9822,-1.367,-1.4077,-1.453,-1.6144,-1.6801,0.0,0.0,-1.8975,-1.8852,-1.9336,-1.9423,0.0,0.0,0.0,0.0,0.0,0.0,0.0,0.0,0.0,0.0,0.0,0.0,0.0,0.0,0.0,0.0,0.0,0.0,0.0,0.0,0.0,0.0,-2.6591,-2.6591,-2.6591,-2.6591,-2.6591,-2.6136,-2.5238,-2.4501,-2.4111,-2.4094,-2.3311,-2.2749,-2.2297,-2.1517,-2.0945,-2.0443,-1.9707,-1.9822,-2.05,-2.05,-2.0053,-1.9372,-1.8997,-1.8881,-1.8823,-1.8428,-1.8135,-1.7972,-1.7843,-1.7667,-1.7479,-1.7479,-1.7479,-1.7479,-1.7479,-1.7479,-1.7479,-1.7479,-1.7479,-1.7479,-1.7479,-1.7479,-1.7479,-1.7479,-1.7479,-1.7479,-1.7479,-1.7479,-1.7479,-1.7479,-1.7479,-1.7479,-1.7479,-1.5994,-1.4619,-1.3784,-1.2105,-1.0664,-0.9883,-0.9822,-0.9822,-0.9822,-0.9822,-0.9822,-0.9822,-0.9822,-0.9822,-0.9822,-0.9822,-0.9822,-0.9822,-0.9822,-0.9822,-0.9822,-0.9822,-0.9822,-0.9822,-0.9822,-0.9822,-1.3648,-1.3922,-1.453,-1.6367,0.0,0.0,-2.0158,-2.057,-2.08,-2.1232,-2.1351,0.0,0.0,0.0,0.0,0.0,0.0,0.0,0.0,0.0,0.0,0.0,0.0,0.0,0.0,0.0,0.0,0.0,0.0,0.0,0.0,0.0,0.0,0.0,-2.6591,-2.6591,-2.6591,-2.6591,-2.6591,-2.6591,-2.5734,-2.5348,-2.5348,-2.4501,-2.3944,-2.3536,-2.2692,-2.2127,-2.1687,-2.0443,-2.0213,-2.0615,-2.0615,-2.0097,-1.9372,-1.9127,-1.9055,-1.8997,-1.8648,-1.8428,-1.8252,-1.8135,-1.7901,-1.7667,-1.7667,-1.7596,-1.7479,-1.7479,-1.7479,-1.7479,-1.7479,-1.7479,-1.7479,-1.7479,-1.7479,-1.7479,-1.7479,-1.7479,-1.7479,-1.7479,-1.7479,-1.7479,-1.7479,-1.7479,-1.7479,-1.7479,-1.6408,-1.5273,-1.4441,-1.2766,-1.1209,-0.9943,-0.9822,-0.9822,-0.9822,-0.9822,-0.9822,-0.9822,-0.9822,-0.9822,-0.9822,-0.9822,-0.9822,-0.9822,-0.9822,-0.9822,-0.9822,-0.9822,-0.9822,-0.9822,-0.9822,-0.9822,-1.4179,-1.4623,-1.5331,0.0,0.0,0.0,-2.1229,-2.1376,-2.1346,-2.2171,0.0,0.0,0.0,0.0,0.0,0.0,0.0,0.0,0.0,0.0,0.0,0.0,0.0,0.0,0.0,0.0,0.0,0.0,0.0,0.0,0.0,0.0,0.0,0.0,-2.6591,-2.6591,-2.6591,-2.6591,-2.6591,-2.6591,-2.6591,-2.6591,-2.6591,-2.6591,-2.5971,-2.4834,-2.4778,-2.4111,-2.2918,-2.1744,-2.05,-1.943,-1.943,-1.943,-1.943,-1.943,-1.943,-1.9359,-1.8997,-1.8881,-1.8881,-1.8532,-1.8194,-1.7972,-1.7972,-1.7784,-1.7479,-1.7479,-1.7479,-1.7479,-1.7479,-1.7479,-1.7479,-1.7479,-1.7479,-1.7479,-1.7479,-1.7479,-1.7479,-1.7479,-1.7479,-1.7479,-1.7479,-1.7479,-1.7479,-1.7479,-1.6408,-1.5628,-1.5569,-1.3306,-1.1209,-0.9943,-0.9822,-0.9822,-0.9822,-0.9822,-0.9822,-0.9822,-0.9822,-0.9822,-0.9822,-0.9822,-0.9822,-0.9822,-0.9822,-0.9822,-0.9822,-0.9822,-0.9822,-0.9822,-0.9822,-0.9822,-1.4395,-1.546,0.0,-1.733,0.0,0.0,0.0,-2.1815,0.0,0.0,0.0,0.0,0.0,0.0,0.0,0.0,0.0,0.0,0.0,0.0,0.0,0.0,0.0,0.0,0.0,0.0,0.0,0.0,0.0,0.0,0.0,0.0,0.0,0.0,-2.6591,-2.6591,-2.6591,-2.6591,-2.6591,-2.6591,-2.6591,-2.6591,-2.6591,-2.6591,-2.6427,-2.6026,-2.5183,-2.4612,-2.4223,-2.3888,-2.2523,-2.073,-2.1631,-2.0888,-1.943,-1.943,-1.943,-1.9372,-1.9301,-1.9113,-1.8881,-1.8765,-1.8532,-1.8252,-1.8089,-1.7914,-1.7784,-1.755,-1.7479,-1.7479,-1.7479,-1.7479,-1.7479,-1.7479,-1.7479,-1.7479,-1.7479,-1.7479,-1.7479,-1.7479,-1.7479,-1.7479,-1.7479,-1.7479,-1.7479,-1.7479,-1.7185,-1.6585,-1.5688,-1.4143,-1.2586,-1.1269,-1.1148,-1.0785,-0.9883,-0.9822,-0.9822,-0.9822,-0.9822,-0.9822,-0.9822,-0.9822,-0.9822,-0.9822,-0.9822,-0.9822,-0.9822,-0.9822,-0.9822,-0.9822,-0.9822,-0.9822,-1.5106,-1.64,0.0,-1.8434,-2.0316,-2.2164,-2.2619,0.0,0.0,0.0,0.0,0.0,0.0,0.0,0.0,0.0,0.0,0.0,0.0,0.0,0.0,0.0,0.0,0.0,0.0,0.0,0.0,0.0,0.0,0.0,0.0,0.0,0.0,0.0,-2.6261,-2.6334,-2.6334,-2.6334,-2.6426,-2.6591,-2.6591,-2.6591,-2.6591,-2.6591,-2.6591,-2.6537,-2.5844,-2.5238,-2.4778,-2.4778,-2.3648,-2.1972,-2.2692,-2.1801,-2.0097,-2.0097,-1.9822,-1.943,-1.943,-1.9243,-1.9113,-1.9113,-1.8881,-1.859,-1.8428,-1.8252,-1.8077,-1.7784,-1.7726,-1.7667,-1.7537,-1.7479,-1.7479,-1.7479,-1.7479,-1.7479,-1.7479,-1.7479,-1.7479,-1.7479,-1.7479,-1.7479,-1.7479,-1.7479,-1.7479,-1.7479,-1.7479,-1.7067,-1.5747,-1.4917,-1.3963,-1.2646,-1.1993,-1.139,-1.0604,-1.0065,-0.9822,-0.9822,-0.9822,-0.9822,-0.9822,-0.9822,-0.9822,-0.9822,-0.9822,-0.9822,-0.9822,-0.9822,-0.9822,-0.9822,-0.9822,-0.9822,-1.5951,0.0,0.0,-1.9944,-2.116,0.0,0.0,0.0,0.0,0.0,0.0,0.0,0.0,0.0,0.0,0.0,0.0,0.0,0.0,0.0,0.0,0.0,0.0,0.0,0.0,0.0,0.0,0.0,0.0,0.0,0.0,0.0,0.0,-2.5451,-2.5764,-2.5966,-2.5966,-2.6002,-2.6186,0.0,-2.6518,-2.6518,-2.6481,-2.6554,-2.6591,-2.6591,-2.6591,-2.5971,-2.4944,-2.4944,-2.4278,-2.3143,-2.3143,-2.241,-2.1345,-2.1231,-2.05,-1.9533,-1.943,-1.943,-1.943,-1.943,-1.9185,-1.8939,-1.8939,-1.8706,-1.8357,-1.8077,-1.8031,-1.7972,-1.7608,-1.7537,-1.7537,-1.7479,-1.7479,-1.7479,-1.7479,-1.7479,-1.7479,-1.7479,-1.7479,-1.7479,-1.7479,-1.7479,-1.7479,-1.7479,-1.7479,-1.7067,-1.5935,-1.5747,-1.5273,-1.4023,-1.2766,-1.1993,-1.1776,-1.0671,-0.995,-0.9842,-0.9829,-0.9822,-0.9822,-0.9822,-0.9822,-0.9822,-0.9822,-0.9822,-0.9822,-0.9822,-0.9822,-0.9822,-0.9822,-0.9822,-1.5404,-1.6961,0.0,0.0,-2.193,-2.3586,0.0,0.0,0.0,0.0,0.0,0.0,0.0,0.0,0.0,0.0,0.0,0.0,0.0,0.0,0.0,0.0,0.0,0.0,0.0,0.0,0.0,0.0,0.0,0.0,0.0,0.0,0.0,-2.5433,-2.5506,-2.5543,-2.5543,-2.5855,-2.5911,0.0,-2.6002,-2.5984,-2.5656,-2.6298,-2.6591,-2.6591,-2.6591,-2.6482,-2.619,-2.619,-2.5514,-2.439,-2.439,-2.3648,-2.2523,-2.1574,-2.106,-2.0673,-1.9707,-1.943,-1.943,-1.943,-1.9359,-1.9243,-1.8997,-1.8881,-1.8706,-1.8428,-1.8311,-1.8252,-1.796,-1.7901,-1.7843,-1.755,-1.7479,-1.7479,-1.7479,-1.7479,-1.7479,-1.7479,-1.7479,-1.7479,-1.7479,-1.7479,-1.7479,-1.7479,-1.7479,-1.742,-1.7126,-1.7067,-1.6585,-1.5332,-1.4917,-1.3961,-1.2122,-1.1529,-1.0906,-0.9992,-0.989,-0.9822,-0.9822,-0.9822,-0.9822,-0.9822,-0.9822,-0.9822,-0.9822,-0.9822,-0.9822,-0.9822,-0.9822,-0.9822,-1.5854,0.0,0.0,-2.1716,0.0,0.0,0.0,0.0,0.0,0.0,0.0,0.0,0.0,0.0,0.0,0.0,0.0,0.0,0.0,0.0,0.0,0.0,0.0,0.0,0.0,0.0,0.0,0.0,0.0,0.0,0.0,-2.5323,-2.5249,-2.4845,-2.5029,-2.5087,-2.5087,-2.5341,-2.5433,-2.5414,-2.5635,-2.5617,-2.5381,-2.5803,-2.6114,-2.6279,-2.6279,-2.6408,-2.6591,-2.6591,-2.6245,-2.5679,-2.5679,-2.4944,-2.3704,-2.2523,-2.1687,-2.1002,-1.9822,-1.943,-1.943,-1.943,-1.943,-1.9372,-1.9185,-1.9127,-1.9055,-1.8706,-1.8648,-1.859,-1.8252,-1.8194,-1.8135,-1.7784,-1.7608,-1.7479,-1.7479,-1.7479,-1.7479,-1.7479,-1.7479,-1.7479,-1.7479,-1.7587,-1.7672,-1.7672,-1.7781,-1.7877,-1.7877,-1.7877,-1.7625,-1.6952,-1.6337,-1.546,-1.4223,-1.2847,-1.1797,-1.1205,-1.0454,-1.0039,-1.0039,-0.9971,-0.9897,-0.9822,-0.9822,-0.9822,-0.9822,-0.9822,-0.9822,-0.9822,-0.9822,-0.9822,-1.6215,0.0,-2.0488,-2.3287,-2.3994,0.0,0.0,0.0,0.0,0.0,0.0,0.0,0.0,0.0,0.0,0.0,0.0,0.0,0.0,0.0,0.0,0.0,0.0,0.0,0.0,0.0,0.0,0.0,0.0,0.0,-2.4735,-2.5029,-2.49,-2.422,-2.4551,-2.4716,-2.4716,-2.4739,-2.4904,-2.5212,-2.5212,-2.5212,-2.5212,-2.5212,-2.547,-2.5911,-2.5984,-2.6205,-2.6481,-2.6554,-2.6591,-2.6591,-2.6591,-2.5971,-2.4944,-2.376,-2.2692,-2.1631,-2.0213,-1.9707,-1.9649,-1.9488,-1.943,-1.943,-1.943,-1.943,-1.9359,-1.9055,-1.8997,-1.8881,-1.859,-1.8473,-1.8428,-1.8198,-1.7975,-1.7716,-1.755,-1.7515,-1.7551,-1.7551,-1.7587,-1.7624,-1.7624,-1.7805,-1.795,-1.795,-1.8143,-1.83,-1.83,-1.83,-1.83,-1.83,-1.7341,-1.6662,-1.6458,-1.4163,-1.2658,-1.2439,-1.1109,-1.0283,-1.0283,-1.0154,-0.9957,-0.9863,-0.9836,-0.9822,-0.9822,-0.9822,-0.9822,-0.9822,-0.9822,-0.9822,0.0,0.0,-2.0813,0.0,0.0,0.0,0.0,0.0,0.0,0.0,0.0,0.0,0.0,0.0,0.0,0.0,0.0,0.0,0.0,0.0,0.0,0.0,0.0,0.0,0.0,0.0,0.0,0.0,0.0,0.0,-2.4293,-2.433,-2.4312,-2.4202,-2.4257,-2.4293,-2.4293,-2.4643,-2.4629,-2.4367,-2.4367,-2.4367,-2.4367,-2.4367,-2.479,-2.5525,-2.5855,-2.6039,-2.6131,-2.6444,-2.6591,-2.6591,-2.6591,-2.6482,-2.619,-2.5,-2.4445,-2.3999,-2.1744,-2.0945,-2.0773,-1.9764,-1.943,-1.943,-1.943,-1.943,-1.9372,-1.9359,-1.9301,-1.9243,-1.8939,-1.8823,-1.8829,-1.8792,-1.8724,-1.8483,-1.7703,-1.766,-1.7817,-1.7817,-1.8022,-1.8191,-1.8191,-1.8215,-1.8239,-1.8239,-1.8275,-1.83,-1.83,-1.83,-1.83,-1.83,-1.8165,-1.7619,-1.6686,-1.5011,-1.36,-1.2627,-1.1175,-1.0283,-1.0283,-1.0263,-1.0175,-0.9957,-0.989,-0.9822,-0.9822,-0.9822,-0.9822,-0.9822,-0.9822,-0.9822,-1.623,-1.8556,-2.0814,0.0,0.0,0.0,0.0,0.0,0.0,0.0,0.0,0.0,0.0,0.0,0.0,0.0,0.0,0.0,0.0,0.0,0.0,0.0,0.0,0.0,0.0,0.0,0.0,0.0,0.0,-2.443,-2.4381,-2.4251,-2.4202,-2.4202,-2.4202,-2.4202,-2.4202,-2.4385,-2.4385,-2.4202,-2.4202,-2.4202,-2.4202,-2.4202,-2.4532,-2.5051,-2.5234,-2.5598,-2.6021,-2.6205,-2.6371,-2.6591,-2.6591,-2.6591,-2.6464,-2.5238,-2.4778,-2.4556,-2.2805,-2.1801,-2.1117,-2.0558,-1.9938,-1.943,-1.943,-1.943,-1.943,-1.943,-1.943,-1.9372,-1.9243,-1.9304,-1.9332,-1.9166,-1.9262,-1.9232,-1.8611,-1.8445,-1.8349,-1.8167,-1.8215,-1.83,-1.83,-1.8408,-1.8517,-1.8517,-1.8638,-1.8734,-1.8734,-1.8734,-1.8734,-1.8734,-1.8734,-1.8254,-1.6946,-1.5455,-1.4097,-1.2816,-1.1337,-1.0527,-1.0527,-1.0446,-1.0365,-1.0297,-1.0066,-0.9849,-0.9822,-0.9822,-0.9822,-0.9822,-0.9822,-0.9822,0.0,0.0,0.0,0.0,0.0,0.0,0.0,0.0,0.0,0.0,0.0,0.0,0.0,0.0,0.0,0.0,0.0,0.0,0.0,0.0,0.0,0.0,0.0,0.0,0.0,0.0,0.0,0.0,0.0,-2.4529,-2.443,-2.435,-2.4301,-2.4301,-2.4301,-2.4301,-2.4301,-2.4251,-2.4202,-2.4202,-2.4202,-2.4202,-2.4202,-2.4202,-2.4367,-2.4629,-2.4739,-2.5106,-2.5727,-2.5929,-2.6205,-2.6444,-2.6554,-2.6591,-2.6482,-2.5569,-2.5238,-2.5055,-2.3888,-2.2862,-2.2085,-2.1744,-2.0831,-1.988,-1.988,-1.9649,-1.943,-1.943,-1.943,-1.9444,-1.9452,-1.9639,-1.978,-1.9674,-1.9824,-1.9872,-1.9369,-1.9062,-1.884,-1.8543,-1.8493,-1.8493,-1.8493,-1.865,-1.8782,-1.8782,-1.8951,-1.9072,-1.9072,-1.9072,-1.9072,-1.9072,-1.9072,-1.8676,-1.7636,-1.5944,-1.4455,-1.3407,-1.1703,-1.0717,-1.0717,-1.0609,-1.0534,-1.0493,-1.0276,-1.0066,-0.9876,-0.9842,-0.9822,-0.9822,-0.9822,-0.9822,0.0,0.0,0.0,0.0,0.0,0.0,0.0,0.0,0.0,0.0,0.0,0.0,0.0,0.0,0.0,0.0,0.0,0.0,0.0,0.0,0.0,0.0,0.0,0.0,0.0,0.0,0.0,0.0,0.0,-2.4695,-2.4251,-2.4399,-2.448,-2.448,-2.448,-2.448,-2.448,-2.4301,-2.4202,-2.4202,-2.4202,-2.4202,-2.4202,-2.4202,-2.422,-2.4257,-2.4611,-2.4812,-2.4904,-2.5708,-2.6021,-2.6094,-2.6426,-2.6591,-2.6591,-2.6537,-2.6537,-2.63,-2.5128,-2.4667,-2.4445,-2.3255,-2.207,-2.1117,-2.1117,-2.0328,-1.943,-1.943,-1.943,-1.9439,-1.9706,-1.9786,-1.9947,-2.0494,-2.0641,-2.0407,-1.9399,-1.9212,-1.9174,-1.9051,-1.9036,-1.9036,-1.9036,-1.9048,-1.906,-1.906,-1.906,-1.9072,-1.9072,-1.9072,-1.9072,-1.9072,-1.9072,-1.9072,-1.9008,-1.6473,-1.4847,-1.4782,-1.2231,-1.0717,-1.0717,-1.0711,-1.0636,-1.0493,-1.0473,-1.0324,-0.9977,-0.989,-0.9822,-0.9822,-0.9822,-0.9822,0.0,0.0,0.0,0.0,0.0,0.0,0.0,0.0,0.0,0.0,0.0,0.0,0.0,0.0,0.0,0.0,0.0,0.0,0.0,0.0,0.0,0.0,0.0,0.0,0.0,0.0,0.0,0.0,0.0,0.0,-2.4695,-2.4529,-2.448,-2.448,-2.448,-2.448,-2.448,-2.4301,-2.4202,-2.4202,-2.4202,-2.4202,-2.4202,-2.4202,-2.4202,-2.422,-2.4367,-2.4735,-2.5231,-2.5525,-2.5947,-2.6371,-2.6536,-2.6591,-2.6591,-2.6591,-2.6591,-2.6537,-2.6136,-2.4944,-2.3536,-2.3143,-2.1687,-2.004,-2.004,-1.9764,-1.947,-1.9586,-1.9639,-1.972,-2.0,-2.0214,-2.0468,-2.0855,-2.0949,-2.0823,-2.0194,-1.9954,-1.9726,-1.9495,-1.9456,-1.9328,-1.9136,-1.9072,-1.9072,-1.9072,-1.9072,-1.9072,-1.9072,-1.9072,-1.9072,-1.9072,-1.9072,-1.8752,-1.7829,-1.685,-1.5489,-1.3669,-1.2618,-1.1637,-1.0717,-1.0717,-1.0697,-1.0636,-1.0541,-1.0392,-1.0195,-0.9984,-0.9903,-0.9903,-0.9869,-0.9822,0.0,0.0,0.0,0.0,0.0,0.0,0.0,0.0,0.0,0.0,0.0,0.0,0.0,0.0,0.0,0.0,0.0,0.0,0.0,0.0,0.0,0.0,0.0,0.0,0.0,0.0,0.0,0.0,0.0,0.0,-2.4922,-2.4843,-2.4794,-2.4794,-2.4677,-2.4578,-2.448,-2.4301,-2.4202,-2.4202,-2.4202,-2.4202,-2.4202,-2.4202,-2.4202,-2.4202,-2.4202,-2.4587,-2.5231,-2.5307,-2.5766,-2.6389,-2.6536,-2.6591,-2.6591,-2.6591,-2.6591,-2.6591,-2.6591,-2.5293,-2.3592,-2.3592,-2.1972,-1.9996,-1.9996,-1.9707,-1.9484,-1.972,-1.98,-1.9893,-2.0281,-2.0601,-2.0869,-2.1069,-2.1109,-2.1046,-2.0792,-2.0488,-2.017,-1.9839,-1.9711,-1.952,-1.9328,-1.92,-1.9072,-1.9072,-1.9072,-1.9072,-1.9072,-1.9072,-1.9072,-1.9072,-1.9072,-1.874,-1.7765,-1.7238,-1.6193,-1.4315,-1.3333,-1.2355,-1.1439,-1.0982,-1.0717,-1.0717,-1.0622,-1.0521,-1.0426,-1.0222,-1.0127,-1.0127,-1.0019,-0.9978,0.0,0.0,0.0,0.0,0.0,0.0,0.0,0.0,0.0,0.0,0.0,0.0,0.0,0.0,0.0,0.0,0.0,0.0,0.0,0.0,0.0,0.0,0.0,0.0,0.0,0.0,0.0,0.0,0.0,-2.5186,-2.4941,-2.5137,-2.5284,-2.5284,-2.5039,-2.4775,-2.4529,-2.4301,-2.4202,-2.4202,-2.4202,-2.4202,-2.4202,-2.4202,-2.4202,-2.4202,-2.4202,-2.444,-2.4831,-2.5267,-2.5672,-2.6076,-2.6426,-2.6591,-2.6591,-2.6591,-2.6591,-2.6591,-2.6591,-2.5789,-2.4778,-2.4778,-2.3143,-2.1174,-2.1174,-2.0328,-1.9497,-1.9733,-1.9813,-1.996,-2.0535,-2.0895,-2.1109,-2.1109,-2.1109,-2.1109,-2.1109,-2.0856,-2.0552,-2.017,-1.9839,-1.9635,-1.9647,-1.9328,-1.9136,-1.9136,-1.9136,-1.9072,-1.9072,-1.9072,-1.9072,-1.9072,-1.9072,-1.9072,-1.9072,-1.7829,-1.7044,-1.698,-1.4446,-1.2882,-1.2816,-1.1505,-1.0717,-1.0717,-1.0717,-1.0717,-1.0717,-1.0426,-1.029,-1.0283,-1.0283,-1.0283,-1.2202,0.0,0.0,0.0,0.0,0.0,0.0,0.0,0.0,0.0,0.0,0.0,0.0,0.0,0.0,0.0,0.0,0.0,0.0,0.0,0.0,0.0,0.0,0.0,0.0,0.0,0.0,0.0,-2.5596,-2.5479,-2.5186,-2.5235,-2.5284,-2.5284,-2.5039,-2.4892,-2.4775,-2.4399,-2.4202,-2.4202,-2.4202,-2.4202,-2.4202,-2.4202,-2.4202,-2.4202,-2.4202,-2.4606,-2.5216,-2.5326,-2.5784,-2.6426,-2.6536,-2.6591,-2.6591,-2.6591,-2.6591,-2.6591,-2.6591,-2.5789,-2.4778,-2.4778,-2.3143,-2.1174,-2.1174,-2.0482,-1.9746,-2.0027,-2.0267,-2.0521,-2.0895,-2.1042,-2.1109,-2.1109,-2.1109,-2.1109,-2.1109,-2.1046,-2.0856,-2.0552,-2.0412,-2.0221,-1.9979,-1.9647,-1.9456,-1.9456,-1.9264,-1.9072,-1.9072,-1.9072,-1.9072,-1.9072,-1.9072,-1.9072,-1.9072,-1.8752,-1.8086,-1.7044,-1.6258,-1.4893,-1.2882,-1.2421,-1.1769,-1.0717,-1.0717,-1.0717,-1.0717,-1.0527,-1.0432,-1.0432,-1.0331,-1.0283,0.0,0.0,0.0,0.0,0.0,0.0,0.0,-1.7559,0.0,0.0,0.0,0.0,0.0,0.0,0.0,0.0,0.0,0.0,0.0,0.0,0.0,0.0,0.0,0.0,0.0,0.0,0.0,-2.5674,-2.5693,-2.5645,-2.5479,-2.5479,-2.5479,-2.5479,-2.5088,-2.4892,-2.4892,-2.4449,-2.4202,-2.4202,-2.4202,-2.4202,-2.4202,-2.4202,-2.4202,-2.4202,-2.4202,-2.4661,-2.5414,-2.5414,-2.5858,-2.6591,-2.6591,-2.6591,-2.6591,-2.6591,-2.6591,-2.6591,-2.6591,-2.5789,-2.4778,-2.4778,-2.348,-2.1873,-2.1508,-2.0987,-2.052,-2.0416,-2.0628,-2.0895,-2.1069,-2.1109,-2.1109,-2.1109,-2.1109,-2.1109,-2.1109,-2.1109,-2.1046,-2.0856,-2.0666,-2.0539,-2.0361,-2.0043,-1.9839,-1.9839,-1.952,-1.9328,-1.9328,-1.92,-1.9072,-1.9072,-1.9072,-1.9072,-1.9072,-1.9072,-1.874,-1.7958,-1.7302,-1.6258,-1.4633,-1.3399,-1.2421,-1.1571,-1.0982,-1.0717,-1.0717,-1.0629,-1.0588,-1.0582,-1.05,-1.0466,0.0,0.0,0.0,0.0,0.0,0.0,-1.7339,-1.7263,0.0,0.0,0.0,0.0,0.0,0.0,0.0,0.0,0.0,0.0,0.0,0.0,0.0,0.0,0.0,0.0,0.0,-2.5,-2.5176,-2.5577,-2.5654,-2.5693,-2.5693,-2.5693,-2.5693,-2.5693,-2.5186,-2.4941,-2.4941,-2.4498,-2.4251,-2.4251,-2.4251,-2.4202,-2.4202,-2.4202,-2.4202,-2.4202,-2.4257,-2.4716,-2.5381,-2.547,-2.5894,-2.6591,-2.6591,-2.6591,-2.6591,-2.6591,-2.6591,-2.6591,-2.6591,-2.5916,-2.5,-2.5,-2.4167,-2.3038,-2.2236,-2.1847,-2.1537,-2.0917,-2.0909,-2.1109,-2.1109,-2.1109,-2.1109,-2.1109,-2.1109,-2.1109,-2.1109,-2.1109,-2.1109,-2.1109,-2.0856,-2.0679,-2.0679,-2.0361,-2.017,-2.017,-1.9839,-1.9647,-1.9647,-1.9392,-1.9136,-1.9136,-1.9136,-1.9072,-1.9072,-1.9072,-1.9072,-1.9072,-1.7958,-1.7173,-1.698,-1.4446,-1.2947,-1.2816,-1.1439,-1.0717,-1.0717,-1.0717,-1.0717,-1.0717,-1.0717,-1.0717,0.0,0.0,-1.4516,0.0,0.0,0.0,0.0,-1.468,0.0,0.0,0.0,0.0,0.0,0.0,0.0,0.0,0.0,0.0,0.0,0.0,0.0,0.0,0.0,0.0,0.0,-2.4458,-2.4727,-2.5156,-2.5527,-2.5693,-2.5693,-2.5693,-2.5693,-2.5693,-2.5382,-2.5235,-2.5235,-2.4941,-2.4646,-2.443,-2.443,-2.435,-2.4202,-2.4202,-2.4202,-2.422,-2.4569,-2.4973,-2.5451,-2.5764,-2.6186,-2.6591,-2.6591,-2.6591,-2.6591,-2.6591,-2.6591,-2.6591,-2.6591,-2.6482,-2.6245,-2.6245,-2.5459,-2.4457,-2.4641,-2.3383,-2.1809,-2.1167,-2.1069,-2.1109,-2.1109,-2.1109,-2.1109,-2.1109,-2.1109,-2.1109,-2.1109,-2.1109,-2.1109,-2.1109,-2.1046,-2.0982,-2.0982,-2.0729,-2.0488,-2.0488,-2.0234,-1.9979,-1.9979,-1.9711,-1.952,-1.952,-1.9264,-1.9072,-1.9072,-1.9072,-1.9072,-1.9072,-1.8816,-1.8162,-1.7044,-1.5359,-1.3932,-1.2816,-1.1439,-1.0717,-1.0717,-1.0717,-1.0717,-1.0717,-1.0717,-1.0717,0.0,0.0,-1.4247,-1.3926,0.0,0.0,0.0,0.0,-1.4866,0.0,0.0,0.0,0.0,0.0,0.0,0.0,0.0,0.0,0.0,0.0,0.0,0.0,0.0,0.0,0.0,-2.3782,-2.414,-2.4707,-2.5156,-2.541,-2.541,-2.5557,-2.5693,-2.5693,-2.543,-2.5284,-2.5284,-2.5039,-2.4824,-2.4677,-2.4677,-2.4646,-2.4548,-2.4399,-2.456,-2.4914,-2.4836,-2.5227,-2.5885,-2.5982,-2.626,-2.6591,-2.6591,-2.6591,-2.6591,-2.6591,-2.6591,-2.6591,-2.6591,-2.6591,-2.6591,-2.6591,-2.5876,-2.5064,-2.5497,-2.4161,-2.236,-2.1393,-2.1109,-2.1109,-2.1109,-2.1109,-2.1109,-2.1109,-2.1109,-2.1109,-2.1109,-2.1109,-2.1109,-2.1109,-2.1109,-2.1109,-2.1109,-2.0982,-2.0856,-2.0856,-2.0539,-2.0361,-2.0361,-2.0043,-1.9775,-1.9647,-1.9456,-1.9264,-1.9136,-1.9072,-1.9072,-1.9072,-1.9072,-1.8752,-1.8086,-1.6721,-1.4968,-1.2816,-1.1439,-1.0717,-1.0717,-1.0717,-1.0717,-1.0717,-1.0717,-1.0717,0.0,0.0,0.0,0.0,0.0,-1.4151,0.0,0.0,0.0,-1.5845,0.0,0.0,0.0,0.0,0.0,0.0,0.0,0.0,0.0,0.0,0.0,0.0,0.0,0.0,0.0,-2.2923,-2.3339,-2.4166,-2.4426,-2.4727,-2.5106,-2.541,-2.5596,-2.5693,-2.5499,-2.5382,-2.5382,-2.5137,-2.5039,-2.499,-2.499,-2.4941,-2.4892,-2.477,-2.5045,-2.5566,-2.5298,-2.5641,-2.6393,-2.6254,-2.6333,-2.6591,-2.6591,-2.6591,-2.6591,-2.6591,-2.6591,-2.6591,-2.6591,-2.6591,-2.6591,-2.6683,-2.6104,-2.5428,-2.5194,-2.4186,-2.2827,-2.1475,-2.1109,-2.1109,-2.1109,-2.1109,-2.1109,-2.1109,-2.1109,-2.1109,-2.1109,-2.1109,-2.1109,-2.1109,-2.1109,-2.1109,-2.1109,-2.1109,-2.1109,-2.1109,-2.0856,-2.0666,-2.0666,-2.0425,-2.0106,-1.9839,-1.9711,-1.9584,-1.92,-1.92,-1.92,-1.9072,-1.9072,-1.9072,-1.9072,-1.7765,-1.5674,-1.2882,-1.1703,-1.0982,-1.0717,-1.0717,-1.0717,-1.0717,-1.0717,-1.0717,0.0,0.0,0.0,0.0,-1.6616,0.0,0.0,0.0,-1.3493,-1.2653,0.0,0.0,0.0,0.0,0.0,0.0,0.0,0.0,0.0,0.0,0.0,0.0,0.0,0.0,0.0,0.0,-2.2107,-2.339,-2.2984,-2.3324,-2.5028,-2.5117,-2.5332,-2.5674,-2.5693,-2.5645,-2.5645,-2.5645,-2.5499,-2.5235,-2.5235,-2.5137,-2.4892,-2.532,-2.5528,-2.5654,-2.631,-2.6529,-2.6411,-2.6766,-2.6735,-2.6591,-2.6591,-2.6591,-2.6591,-2.6591,-2.6591,-2.6591,-2.6591,-2.6591,-2.6646,-2.6995,-2.6729,-2.5831,-2.355,-2.2983,-2.2827,-2.1475,-2.1109,-2.1109,-2.1109,-2.1109,-2.1109,-2.1109,-2.1109,-2.1109,-2.1109,-2.1109,-2.1109,-2.1109,-2.1109,-2.1109,-2.1109,-2.1109,-2.1109,-2.1109,-2.1046,-2.1046,-2.1046,-2.0729,-2.0552,-2.0475,-2.0234,-1.9915,-1.9584,-1.9507,-1.9456,-1.9136,-1.9072,-1.9072,-1.9072,-1.7765,-1.5674,-1.2882,-1.2618,-1.1967,-1.0717,-1.0717,-1.0717,-1.0717,-1.0717,-1.0717,0.0,0.0,0.0,0.0,0.0,0.0,0.0,0.0,-1.3126,0.0,0.0,0.0,0.0,0.0,0.0,0.0,0.0,0.0,0.0,0.0,0.0,0.0,0.0,0.0,0.0,0.0,0.0,0.0,0.0,-2.2698,-2.459,-2.4922,-2.5273,-2.5674,-2.5693,-2.5693,-2.5693,-2.5693,-2.5645,-2.5528,-2.5528,-2.5615,-2.5767,-2.5791,-2.6186,-2.684,-2.6822,-2.7002,-2.7283,-2.7239,-2.7043,-2.6845,-2.6845,-2.6736,-2.6591,-2.6591,-2.6591,-2.6591,-2.6591,-2.6738,-2.692,-2.6782,-2.6591,-2.5939,-2.355,-2.2974,-2.2827,-2.1475,-2.1109,-2.1109,-2.1109,-2.1109,-2.1109,-2.1109,-2.1109,-2.1109,-2.1109,-2.1109,-2.1109,-2.1109,-2.1109,-2.1109,-2.1109,-2.1109,-2.1109,-2.1109,-2.1109,-2.1109,-2.1109,-2.0982,-2.0792,-2.0602,-2.0488,-2.0234,-1.9903,-1.9711,-1.9507,-1.9392,-1.92,-1.9072,-1.9072,-1.7765,-1.6073,-1.4063,-1.321,-1.2099,-1.0717,-1.0717,-1.0717,-1.0717,-1.0717,-1.0717,-1.8237,0.0,0.0,0.0,0.0,0.0,0.0,0.0,0.0,0.0,0.0,0.0,0.0,0.0,0.0,0.0,0.0,0.0,0.0,0.0,0.0,0.0,0.0,0.0,0.0,0.0,0.0,0.0,0.0,0.0,-2.4141,-2.4648,-2.5098,-2.5547,-2.5635,-2.5693,-2.5693,-2.5693,-2.5752,-2.5869,-2.5869,-2.6152,-2.6562,-2.6478,-2.6917,-2.7676,-2.7372,-2.7477,-2.7906,-2.7638,-2.7368,-2.7098,-2.7043,-2.6899,-2.6682,-2.6646,-2.6664,-2.6756,-2.6756,-2.7086,-2.743,-2.6678,-2.6194,-2.5671,-2.367,-2.2827,-2.2341,-2.1348,-2.1109,-2.1109,-2.1109,-2.1109,-2.1109,-2.1109,-2.1109,-2.1109,-2.1109,-2.1109,-2.1109,-2.1109,-2.1109,-2.1109,-2.1109,-2.1109,-2.1109,-2.1109,-2.1109,-2.1109,-2.1109,-2.1109,-2.0982,-2.0729,-2.0729,-2.0602,-2.0297,-2.003,-1.9775,-1.9647,-1.9264,-1.9072,-1.9072,-1.8086,-1.6915,-1.5489,-1.4119,-1.2684,-1.124,-1.0916,-1.0717,-1.0717,-1.0717,-1.0717,0.0,0.0,0.0,-1.7692,0.0,0.0,0.0,0.0,-1.1836,0.0,0.0,0.0,0.0,0.0,0.0,0.0,0.0,0.0,0.0,0.0,0.0,0.0,0.0,0.0,0.0,0.0,0.0,0.0,0.0,0.0,-2.3652,-2.4199,-2.4629,-2.5078,-2.5508,-2.5693,-2.5693,-2.5693,-2.5957,-2.6367,-2.6367,-2.6582,-2.7012,-2.7441,-2.7689,-2.7748,-2.8105,-2.8121,-2.7906,-2.7906,-2.7691,-2.7368,-2.7098,-2.6989,-2.6935,-2.6682,-2.683,-2.716,-2.716,-2.7691,-2.8119,-2.6852,-2.578,-2.4794,-2.3497,-2.2215,-2.1172,-2.1109,-2.1109,-2.1109,-2.1109,-2.1109,-2.1109,-2.1109,-2.1109,-2.1109,-2.1109,-2.1109,-2.1109,-2.1109,-2.1109,-2.1109,-2.1109,-2.1109,-2.1109,-2.1109,-2.1109,-2.1109,-2.1109,-2.1109,-2.1109,-2.1109,-2.1109,-2.0919,-2.0615,-2.0539,-2.0284,-1.9647,-1.9264,-1.9072,-1.9072,-1.9072,-1.8355,-1.698,-1.5554,-1.4128,-1.275,-1.1372,-1.0717,-1.0717,-1.0717,-1.0717,0.0,0.0,-2.2649,-1.8947,0.0,0.0,0.0,0.0,0.0,0.0,0.0,0.0,0.0,0.0,0.0,0.0,0.0,0.0,0.0,0.0,0.0,0.0,0.0,0.0,0.0,0.0,0.0,0.0,0.0,0.0,0.0,-2.418,-2.4609,-2.5106,-2.5508,-2.5693,-2.5693,-2.6016,-2.625,-2.6387,-2.666,-2.7031,-2.7461,-2.765,-2.7865,-2.8086,-2.8223,-2.8247,-2.8121,-2.796,-2.7853,-2.7691,-2.7368,-2.7321,-2.7363,-2.7087,-2.7068,-2.7251,-2.7801,-2.8168,-2.8367,-2.8192,-2.6721,-2.4933,-2.4502,-2.2841,-2.1109,-2.1109,-2.1109,-2.1109,-2.1109,-2.1109,-2.1109,-2.1109,-2.1109,-2.1109,-2.1109,-2.1109,-2.1109,-2.1109,-2.1109,-2.1109,-2.1109,-2.1109,-2.1109,-2.1109,-2.1109,-2.1109,-2.1109,-2.1109,-2.1109,-2.1109,-2.1109,-2.1046,-2.0919,-2.0729,-2.0284,-1.9647,-1.9507,-1.9328,-1.9136,-1.9072,-1.8419,-1.7044,-1.6527,-1.5163,-1.2816,-1.2289,-1.1637,-1.0717,-1.0717,-1.0717,-2.3195,-2.3786,0.0,-2.0228,-1.9883,0.0,-1.5414,0.0,0.0,0.0,0.0,0.0,0.0,0.0,0.0,0.0,0.0,0.0,0.0,0.0,0.0,0.0,0.0,0.0,0.0,0.0,-1.7556,-1.9829,0.0,0.0,0.0,0.0,-2.4551,-2.4824,-2.541,-2.5771,-2.5977,-2.625,-2.6543,-2.6855,-2.7109,-2.748,-2.7891,-2.7891,-2.8027,-2.8301,-2.8301,-2.8301,-2.8301,-2.8121,-2.796,-2.7872,-2.7701,-2.76,-2.7567,-2.7401,-2.7474,-2.771,-2.837,-2.8608,-2.8586,-2.8349,-2.7142,-2.5546,-2.4625,-2.3139,-2.1727,-2.1235,-2.1109,-2.1109,-2.1109,-2.1109,-2.1109,-2.1109,-2.1109,-2.1109,-2.1109,-2.1109,-2.1109,-2.1109,-2.1109,-2.1109,-2.1109,-2.1109,-2.1109,-2.1109,-2.1109,-2.1109,-2.1109,-2.1109,-2.1109,-2.1109,-2.1109,-2.1109,-2.1109,-2.0792,-2.0412,-1.9966,-1.9839,-1.9647,-1.9264,-1.9264,-1.8804,-1.7765,-1.7238,-1.6128,-1.4315,-1.3267,-1.2355,-1.1439,-1.0916,-1.0717]},{"header":{"parameterUnit":"m.s-1","parameterCategory":1,"la1":30.6,"la2":29.2853,"lo1":-89.7004,"lo2":-87.6739,"dy":0.0162,"dx":0.0183,"nx":112,"ny":82,"refTime":"2025-02-26T06:00:00:Z","depth":0,"parameterNumber":3,"parameterNumberName":"V-component_of_WINDS"},"data":[0.0,0.0,0.0,0.0,0.0,0.0,0.0,0.0,0.0,0.0,0.0,0.0,0.0,0.0,0.0,0.0,0.0,0.0,0.0,0.0,0.0,0.0,0.0,0.0,0.0,0.0,0.0,0.0,0.0,0.0,0.0,0.0,0.0,0.0,0.0,0.0,0.0,0.0,0.0,0.0,0.0,0.0,0.0,0.0,0.0,0.0,0.0,0.0,0.0,0.0,0.0,0.0,0.0,0.0,0.0,0.0,0.0,0.0,0.0,0.0,0.0,0.0,0.0,0.0,0.0,0.0,0.0,0.0,0.0,0.0,0.0,0.0,0.0,0.0,0.0,0.0,0.0,0.0,0.0,0.0,0.0,0.0,0.0,0.0,0.0,0.0,0.0,0.0,0.0,0.0,0.0,2.6774,2.9038,3.0115,2.9352,2.905,2.7588,2.4471,0.0,0.0,0.0,0.0,0.0,0.0,0.0,0.0,0.0,0.0,0.0,0.0,0.0,0.0,0.0,0.0,0.0,0.0,0.0,0.0,0.0,0.0,0.0,0.0,0.0,0.0,0.0,0.0,0.0,0.0,0.0,0.0,0.0,0.0,0.0,0.0,0.0,0.0,0.0,0.0,0.0,0.0,0.0,0.0,0.0,0.0,0.0,0.0,0.0,0.0,0.0,0.0,0.0,0.0,0.0,0.0,0.0,0.0,0.0,0.0,0.0,0.0,0.0,0.0,0.0,0.0,0.0,0.0,0.0,0.0,0.0,0.0,0.0,0.0,0.0,0.0,0.0,0.0,0.0,0.0,0.0,0.0,0.0,0.0,0.0,0.0,0.0,0.0,0.0,0.0,0.0,0.0,0.0,0.0,0.0,0.0,0.0,0.0,0.0,0.0,0.0,0.0,0.0,0.0,2.4476,2.8319,2.9737,3.0346,3.0192,2.889,2.7236,2.5231,0.0,0.0,0.0,0.0,0.0,0.0,0.0,0.0,0.0,0.0,0.0,0.0,0.0,0.0,0.0,0.0,0.0,0.0,0.0,0.0,0.0,0.0,0.0,0.0,0.0,0.0,0.0,0.0,0.0,0.0,0.0,0.0,0.0,0.0,0.0,0.0,0.0,0.0,0.0,0.0,0.0,0.0,0.0,0.0,0.0,0.0,0.0,0.0,0.0,0.0,0.0,0.0,0.0,0.0,0.0,0.0,0.0,0.0,0.0,0.0,0.0,0.0,0.0,0.0,0.0,0.0,0.0,0.0,0.0,0.0,0.0,0.0,0.0,0.0,0.0,0.0,0.0,0.0,0.0,0.0,0.0,0.0,0.0,0.0,0.0,0.0,0.0,0.0,0.0,0.0,0.0,0.0,0.0,0.0,0.0,0.0,0.0,0.0,0.0,0.0,0.0,0.0,0.0,2.412,2.612,2.9467,3.0154,3.0385,3.0385,2.8852,2.7159,2.5423,2.25,0.0,0.0,0.0,0.0,0.0,0.0,0.0,0.0,0.0,0.0,0.0,0.0,0.0,0.0,0.0,0.0,0.0,0.0,0.0,0.0,0.0,0.0,0.0,0.0,0.0,0.0,0.0,0.0,0.0,0.0,0.0,0.0,0.0,0.0,0.0,0.0,0.0,0.0,0.0,0.0,0.0,0.0,0.0,0.0,0.0,0.0,0.0,0.0,0.0,0.0,0.0,0.0,0.0,0.0,0.0,0.0,0.0,0.0,0.0,0.0,0.0,0.0,0.0,0.0,0.0,0.0,0.0,0.0,0.0,0.0,0.0,0.0,0.0,0.0,0.0,0.0,0.0,0.0,0.0,0.0,0.0,0.0,0.0,0.0,0.0,0.0,0.0,0.0,0.0,0.0,0.0,0.0,0.0,0.0,0.0,0.0,0.0,0.0,0.0,0.0,0.0,0.0,2.6813,2.8005,3.0154,3.0385,3.0385,3.0385,2.8698,2.6928,2.5385,2.1962,0.0,0.0,0.0,0.0,0.0,0.0,0.0,0.0,0.0,0.0,0.0,0.0,0.0,0.0,0.0,0.0,0.0,0.0,0.0,0.0,0.0,0.0,0.0,0.0,0.0,0.0,0.0,0.0,0.0,0.0,0.0,0.0,0.0,0.0,0.0,0.0,0.0,0.0,0.0,0.0,0.0,0.0,0.0,0.0,0.0,0.0,0.0,0.0,0.0,0.0,0.0,0.0,0.0,0.0,0.0,0.0,0.0,0.0,0.0,0.0,0.0,0.0,0.0,0.0,0.0,0.0,0.0,0.0,0.0,0.0,0.0,0.0,0.0,0.0,0.0,0.0,0.0,0.0,0.0,0.0,0.0,0.0,0.0,0.0,0.0,0.0,0.0,0.0,0.0,0.0,0.0,0.0,0.0,0.0,0.0,0.0,0.0,0.0,0.0,0.0,0.0,0.0,2.7467,2.9313,3.0308,3.0385,3.0385,3.0385,2.8115,2.6269,2.5346,2.138,0.0,0.0,0.0,0.0,0.0,0.0,0.0,0.0,0.0,0.0,0.0,0.0,0.0,0.0,0.0,0.0,0.0,0.0,0.0,0.0,0.0,0.0,0.0,0.0,0.0,0.0,0.0,0.0,0.0,0.0,0.0,0.0,0.0,0.0,0.0,0.0,0.0,0.0,0.0,0.0,0.0,0.0,0.0,0.0,0.0,0.0,0.0,0.0,0.0,0.0,0.0,0.0,0.0,0.0,0.0,0.0,0.0,0.0,0.0,0.0,0.0,0.0,0.0,0.0,0.0,0.0,0.0,0.0,0.0,0.0,0.0,0.0,0.0,0.0,0.0,0.0,0.0,0.0,0.0,0.0,0.0,0.0,0.0,0.0,0.0,0.0,0.0,0.0,0.0,0.0,0.0,0.0,0.0,0.0,0.0,0.0,0.0,0.0,0.0,0.0,0.0,0.0,2.7565,2.9693,0.0,3.1245,3.1251,3.1228,2.8884,2.6795,2.5385,0.0,0.0,0.0,0.0,0.0,0.0,0.0,0.0,0.0,0.0,0.0,0.0,0.0,0.0,0.0,0.0,0.0,0.0,0.0,0.0,0.0,0.0,0.0,0.0,0.0,0.0,0.0,0.0,0.0,0.0,0.0,0.0,0.0,0.0,0.0,0.0,0.0,0.0,0.0,0.0,0.0,0.0,0.0,0.0,0.0,0.0,0.0,0.0,0.0,0.0,0.0,0.0,0.0,0.0,0.0,0.0,0.0,0.0,0.0,0.0,0.0,0.0,0.0,0.0,0.0,0.0,0.0,0.0,0.0,0.0,0.0,0.0,0.0,0.0,0.0,0.0,0.0,0.0,0.0,0.0,0.0,0.0,0.0,0.0,0.0,0.0,0.0,0.0,0.0,0.0,0.0,0.0,0.0,0.0,0.0,0.0,0.0,0.0,0.0,0.0,0.0,0.0,2.5322,2.8245,3.0574,0.0,3.1929,3.1774,3.1725,2.9137,2.6733,2.5014,0.0,0.0,0.0,0.0,0.0,0.0,0.0,0.0,0.0,0.0,0.0,0.0,0.0,0.0,0.0,0.0,0.0,0.0,0.0,0.0,0.0,0.0,0.0,0.0,0.0,0.0,0.0,0.0,0.0,0.0,0.0,0.0,0.0,0.0,0.0,0.0,0.0,0.0,0.0,0.0,0.0,0.0,0.0,0.0,0.0,0.0,0.0,0.0,0.0,0.0,0.0,0.0,0.0,0.0,0.0,0.0,0.0,0.0,0.0,0.0,0.0,0.0,0.0,0.0,0.0,0.0,0.0,0.0,0.0,0.0,0.0,0.0,0.0,0.0,0.0,0.0,0.0,0.0,0.0,0.0,0.0,0.0,0.0,0.0,0.0,0.0,0.0,0.0,0.0,0.0,0.0,0.0,0.0,0.0,0.0,0.0,0.0,0.0,0.0,0.0,0.0,0.0,2.6285,2.9659,3.2105,3.2916,3.2232,3.1763,3.1797,2.8641,2.5924,0.0,0.0,0.0,0.0,0.0,0.0,0.0,0.0,0.0,0.0,0.0,0.0,0.0,0.0,0.0,0.0,0.0,0.0,0.0,0.0,0.0,0.0,0.0,0.0,0.0,0.0,0.0,0.0,0.0,0.0,0.0,0.0,0.0,0.0,0.0,0.0,0.0,0.0,0.0,0.0,0.0,0.0,0.0,0.0,0.0,0.0,0.0,0.0,0.0,0.0,0.0,0.0,0.0,0.0,0.0,0.0,0.0,0.0,0.0,0.0,0.0,0.0,0.0,0.0,0.0,0.0,0.0,0.0,0.0,0.0,0.0,0.0,0.0,0.0,0.0,0.0,0.0,0.0,0.0,0.0,0.0,0.0,0.0,0.0,0.0,0.0,0.0,0.0,0.0,0.0,0.0,0.0,0.0,0.0,0.0,0.0,0.0,0.0,0.0,0.0,0.0,0.0,0.0,2.6285,3.0181,3.3026,3.3832,3.3732,3.3346,3.2756,3.0124,2.7518,2.5167,0.0,0.0,0.0,0.0,0.0,0.0,0.0,0.0,0.0,0.0,0.0,0.0,0.0,0.0,0.0,0.0,0.0,0.0,0.0,0.0,0.0,0.0,0.0,0.0,0.0,0.0,0.0,0.0,0.0,0.0,0.0,0.0,0.0,0.0,0.0,0.0,0.0,0.0,0.0,0.0,0.0,0.0,0.0,0.0,0.0,0.0,0.0,0.0,0.0,0.0,0.0,0.0,0.0,0.0,0.0,0.0,0.0,0.0,0.0,0.0,0.0,0.0,0.0,0.0,0.0,0.0,0.0,0.0,0.0,0.0,0.0,0.0,0.0,0.0,0.0,0.0,0.0,0.0,0.0,0.0,0.0,0.0,0.0,0.0,0.0,0.0,0.0,0.0,0.0,0.0,0.0,0.0,0.0,0.0,0.0,0.0,0.0,0.0,0.0,0.0,0.0,0.0,2.6766,3.0621,3.3539,3.4698,3.4549,3.4003,3.3137,3.0703,2.802,2.5051,0.0,0.0,0.0,0.0,0.0,0.0,0.0,0.0,0.0,0.0,0.0,0.0,0.0,0.0,0.0,0.0,0.0,0.0,0.0,0.0,0.0,0.0,0.0,0.0,0.0,0.0,0.0,0.0,0.0,0.0,0.0,0.0,0.0,0.0,0.0,0.0,0.0,0.0,0.0,0.0,0.0,0.0,0.0,0.0,0.0,0.0,0.0,0.0,0.0,0.0,0.0,0.0,0.0,0.0,0.0,0.0,0.0,0.0,0.0,0.0,0.0,0.0,0.0,0.0,0.0,0.0,0.0,0.0,0.0,0.0,0.0,0.0,0.0,0.0,0.0,0.0,0.0,0.0,0.0,0.0,0.0,0.0,0.0,0.0,0.0,0.0,0.0,0.0,0.0,0.0,0.0,0.0,0.0,0.0,0.0,0.0,0.0,0.0,0.0,0.0,0.0,0.0,2.7639,3.1028,3.3743,3.5427,3.4901,3.4073,3.318,3.086,2.7995,2.4666,0.0,0.0,0.0,0.0,0.0,0.0,0.0,0.0,0.0,0.0,0.0,0.0,0.0,0.0,0.0,0.0,0.0,0.0,0.0,0.0,0.0,0.0,0.0,0.0,0.0,0.0,0.0,0.0,0.0,0.0,0.0,0.0,0.0,0.0,0.0,0.0,0.0,0.0,0.0,0.0,0.0,0.0,0.0,0.0,0.0,0.0,0.0,0.0,0.0,0.0,0.0,0.0,0.0,0.0,0.0,0.0,0.0,0.0,0.0,0.0,2.4992,0.0,0.0,0.0,0.0,0.0,0.0,0.0,0.0,0.0,0.0,0.0,0.0,0.0,0.0,0.0,0.0,0.0,0.0,0.0,0.0,0.0,0.0,0.0,0.0,0.0,0.0,0.0,0.0,0.0,0.0,0.0,0.0,0.0,0.0,0.0,0.0,0.0,0.0,0.0,0.0,0.0,2.843,3.1381,3.3727,3.5403,3.543,3.4955,3.41,3.2281,3.0001,2.7248,0.0,0.0,0.0,0.0,0.0,0.0,0.0,0.0,0.0,0.0,0.0,0.0,0.0,0.0,0.0,0.0,0.0,0.0,0.0,0.0,0.0,0.0,0.0,0.0,0.0,0.0,0.0,0.0,0.0,0.0,0.0,0.0,0.0,0.0,0.0,0.0,0.0,0.0,0.0,0.0,0.0,0.0,0.0,0.0,0.0,0.0,0.0,0.0,0.0,0.0,0.0,0.0,0.0,0.0,0.0,0.0,0.0,0.0,0.0,0.0,0.0,2.6541,0.0,0.0,0.0,0.0,0.0,0.0,0.0,0.0,0.0,0.0,0.0,0.0,0.0,0.0,0.0,0.0,0.0,0.0,0.0,0.0,0.0,0.0,0.0,0.0,0.0,0.0,0.0,0.0,0.0,0.0,0.0,0.0,0.0,0.0,0.0,0.0,0.0,0.0,0.0,0.0,2.8793,3.1887,3.4283,3.5558,3.5694,3.531,3.4384,3.2733,3.0819,2.862,2.4927,0.0,0.0,0.0,0.0,0.0,0.0,0.0,0.0,0.0,0.0,0.0,0.0,0.0,0.0,0.0,0.0,0.0,0.0,0.0,0.0,0.0,0.0,0.0,0.0,0.0,0.0,0.0,0.0,0.0,0.0,0.0,0.0,0.0,0.0,0.0,0.0,0.0,0.0,0.0,0.0,0.0,0.0,0.0,0.0,0.0,0.0,0.0,0.0,0.0,0.0,0.0,0.0,0.0,3.2032,3.2965,3.4291,3.4443,3.4532,3.4408,3.2287,3.0817,2.9712,0.0,0.0,0.0,0.0,0.0,0.0,0.0,0.0,0.0,0.0,0.0,0.0,0.0,0.0,0.0,0.0,0.0,0.0,0.0,0.0,0.0,0.0,0.0,0.0,0.0,3.0507,2.9452,0.0,0.0,0.0,0.0,0.0,0.0,0.0,0.0,0.0,0.0,0.0,0.0,2.9394,3.2548,3.4828,3.5677,3.5779,3.5465,3.4623,3.3165,3.1545,2.9902,2.6795,2.4285,0.0,0.0,0.0,0.0,0.0,0.0,0.0,0.0,0.0,0.0,0.0,0.0,0.0,0.0,0.0,0.0,0.0,0.0,0.0,0.0,0.0,0.0,0.0,0.0,0.0,0.0,0.0,0.0,0.0,0.0,0.0,0.0,2.4657,2.5564,0.0,0.0,0.0,0.0,0.0,0.0,0.0,0.0,0.0,0.0,0.0,0.0,0.0,3.0684,3.2271,3.3867,3.4807,3.5078,3.7284,3.8446,3.8678,3.9453,3.9795,3.9783,3.9447,0.0,3.1484,3.0517,0.0,0.0,0.0,0.0,0.0,0.0,0.0,0.0,0.0,0.0,0.0,0.0,0.0,0.0,0.0,0.0,0.0,0.0,0.0,0.0,0.0,0.0,3.4531,3.4141,3.4023,3.3672,0.0,2.8437,2.4685,2.2927,0.0,0.0,0.0,0.0,0.0,0.0,0.0,0.0,3.1155,3.3345,3.4873,3.564,3.5706,3.5659,3.5525,3.4684,3.3684,3.2643,3.0061,2.813,2.7093,2.3278,0.0,0.0,0.0,0.0,0.0,0.0,0.0,0.0,0.0,0.0,0.0,0.0,0.0,0.0,0.0,0.0,0.0,0.0,0.0,0.0,0.0,0.0,0.0,0.0,0.0,0.0,0.0,0.0,0.0,2.5111,2.6963,2.645,2.6921,2.6579,0.0,0.0,0.0,0.0,0.0,0.0,0.0,0.0,0.0,3.3421,3.4389,3.5472,3.6671,3.7947,3.8798,3.9262,4.0384,4.1158,4.1661,4.2048,4.2202,4.2202,4.2202,4.0441,3.7383,3.5136,3.3215,3.1601,0.0,0.0,0.0,0.0,3.086,3.0694,3.2467,3.2287,0.0,0.0,0.0,0.0,0.0,0.0,0.0,0.0,0.0,0.0,0.0,0.0,0.0,3.6758,3.6875,3.6641,3.5781,3.3828,3.1132,0.0,2.6051,2.4874,2.3025,0.0,0.0,0.0,0.0,0.0,3.2368,3.4264,3.5519,3.5845,3.5875,3.5855,3.5811,3.5035,3.4326,3.3824,3.1855,3.026,2.9357,2.6582,2.4274,0.0,0.0,0.0,0.0,0.0,0.0,0.0,0.0,0.0,0.0,0.0,0.0,0.0,0.0,0.0,0.0,0.0,0.0,0.0,0.0,0.0,0.0,0.0,0.0,0.0,0.0,0.0,0.0,2.7326,2.8731,2.7877,2.9108,2.8973,0.0,0.0,0.0,0.0,0.0,0.0,3.3101,3.468,3.6116,3.7278,3.8522,3.9572,4.0468,4.1126,4.1854,4.2667,4.2667,4.3092,4.3943,4.3943,4.3943,4.3943,4.3943,4.344,4.2441,3.9287,3.7119,3.5715,3.4866,3.4506,3.4637,3.5479,3.5394,3.5146,3.722,3.739,3.6489,3.5471,0.0,3.3658,3.092,0.0,0.0,0.0,0.0,3.2847,3.5858,3.6796,3.7343,3.8906,3.9258,3.9023,3.8164,3.7969,3.6562,0.0,3.0194,2.8903,2.6745,0.0,0.0,0.0,0.0,3.2409,3.4129,3.5697,3.6675,3.6675,3.6477,3.631,3.6272,3.5451,3.4904,3.4719,3.3322,3.2183,3.1449,2.9561,2.7547,2.5438,0.0,0.0,0.0,0.0,0.0,0.0,0.0,0.0,0.0,0.0,0.0,0.0,0.0,0.0,0.0,0.0,0.0,0.0,0.0,0.0,0.0,0.0,0.0,0.0,0.0,0.0,0.0,0.0,0.0,3.0785,3.2175,0.0,0.0,0.0,0.0,3.308,3.4055,3.5426,3.7275,3.8268,3.9654,4.1601,4.1757,4.2241,4.3092,4.3169,4.3595,4.4478,4.4478,4.491,4.5691,4.5691,4.5691,4.5691,4.5691,4.522,4.4291,4.1667,4.0095,3.9277,3.8394,3.8093,3.8256,3.9043,3.9321,3.9427,4.031,4.0048,3.9429,4.0164,3.8778,3.6629,3.5633,3.4206,0.0,0.0,3.4931,3.6006,3.7897,3.9001,3.9868,4.0859,4.1055,4.082,3.9961,3.9765,3.871,0.0,3.375,3.2851,3.1874,0.0,3.1132,3.2772,3.3866,3.5116,3.6874,3.7889,3.8475,3.8472,3.7729,3.7219,3.7214,3.6432,3.5908,3.5808,3.4951,3.4351,3.4123,3.169,2.9907,2.8857,2.5587,0.0,0.0,0.0,0.0,0.0,0.0,0.0,0.0,0.0,0.0,0.0,0.0,0.0,0.0,0.0,0.0,0.0,0.0,0.0,0.0,0.0,0.0,0.0,0.0,0.0,0.0,0.0,0.0,3.3441,3.5211,0.0,3.363,3.4179,3.4982,3.569,3.7158,3.8529,3.9694,4.1193,4.2354,4.3053,4.3609,4.4124,4.4636,4.4636,4.4901,4.5374,4.5374,4.5529,4.5807,4.5807,4.5807,4.5807,4.5807,4.5652,4.5297,4.4375,4.3189,4.1943,4.1633,4.154,4.1602,4.1877,4.1981,4.2014,4.2293,4.2202,4.1893,4.1661,4.0604,3.9403,3.9093,3.861,3.8383,3.9282,3.9384,3.9559,4.0699,4.0856,4.0779,4.1133,4.1211,4.1094,4.0781,4.0742,4.0351,3.9101,3.7265,3.5624,3.4765,3.4375,3.4375,3.4999,3.582,3.6797,3.7968,3.8398,3.8593,3.8592,3.8318,3.7926,3.7334,3.7021,3.6576,3.5933,3.5071,3.4293,3.3641,3.2144,3.0666,2.9192,2.7431,2.4586,0.0,0.0,0.0,0.0,0.0,0.0,0.0,0.0,0.0,0.0,0.0,0.0,0.0,0.0,0.0,0.0,0.0,0.0,0.0,0.0,0.0,0.0,0.0,0.0,0.0,0.0,3.6085,3.6006,3.7976,3.8527,3.6464,3.7254,3.8211,3.8902,4.0115,4.118,4.2059,4.3264,4.4014,4.4095,4.4623,4.5001,4.5227,4.5227,4.5323,4.5513,4.5513,4.5547,4.5642,4.5658,4.5696,4.5786,4.58,4.5807,4.5807,4.5807,4.5142,4.4136,4.4136,4.4136,4.4136,4.4136,4.4136,4.4136,4.4136,4.3982,4.3634,4.3053,4.233,4.1651,4.1651,4.1708,4.1916,4.2464,4.2304,4.2028,4.2639,4.2371,4.1906,4.1679,4.1601,4.1523,4.125,4.1211,4.1211,4.1211,3.957,3.8007,3.7422,3.707,3.6992,3.7265,3.7812,3.8476,3.9336,3.9453,3.9492,3.9492,3.9218,3.8709,3.7807,3.7218,3.6467,3.5539,3.4673,3.3907,3.3265,3.2062,3.0836,2.9669,2.7913,2.5505,2.235,0.0,0.0,0.0,0.0,0.0,0.0,0.0,0.0,0.0,0.0,0.0,0.0,0.0,0.0,0.0,0.0,0.0,0.0,0.0,0.0,0.0,0.0,0.0,3.4625,3.6042,3.7452,3.8497,4.0435,4.1138,3.9737,4.0882,4.2054,4.2835,4.2909,4.3379,4.4393,4.4527,4.4687,4.4936,4.4957,4.4954,4.4966,4.4966,4.4966,4.4977,4.4977,4.511,4.5362,4.5457,4.562,4.5858,4.5856,4.5831,4.5831,4.5831,4.58,4.58,4.5807,4.5807,4.5807,4.5807,4.5807,4.5807,4.5807,4.5297,4.4632,4.4632,4.4059,4.3363,4.3363,4.3363,4.3369,4.3369,4.3369,4.3394,4.353,4.353,4.3326,4.2613,4.2422,4.2226,4.1406,4.1211,4.1211,4.1211,4.0508,3.9922,3.9922,3.9258,3.8984,3.9803,3.9921,0.0,4.1014,4.1171,4.1211,4.1211,4.043,3.9609,3.871,3.7067,3.5698,3.4799,3.3897,3.3375,3.3297,3.1579,3.0613,3.0568,2.7147,2.501,2.4211,0.0,0.0,0.0,0.0,0.0,0.0,0.0,0.0,0.0,0.0,0.0,0.0,0.0,0.0,0.0,0.0,0.0,0.0,0.0,0.0,0.0,0.0,3.6075,3.6257,3.8624,4.0631,4.1498,4.2649,4.3423,4.3669,4.4017,4.4618,4.5435,4.5472,4.5632,4.5898,4.5929,4.5976,4.6068,4.6046,4.6157,4.6348,4.6348,4.6467,4.6692,4.6692,4.6832,4.7116,4.7126,4.7165,4.7252,4.7271,4.6925,4.6387,4.6387,4.6129,4.5727,4.5786,4.5807,4.5807,4.5807,4.5807,4.5807,4.5807,4.5652,4.5452,4.5452,4.5297,4.5104,4.5104,4.5176,4.5254,4.5254,4.4841,4.4401,4.4448,4.3991,4.3452,4.3251,4.3246,4.3025,4.2139,4.2019,4.1875,4.124,4.0974,4.0859,4.0859,4.0625,4.0586,4.082,4.0859,0.0,4.1133,4.1172,4.1172,4.1132,4.0897,4.0428,3.9605,3.851,3.7221,3.5737,3.4213,3.339,3.3383,3.2225,3.1593,3.151,2.8702,2.7134,0.0,0.0,0.0,0.0,0.0,0.0,0.0,0.0,0.0,0.0,0.0,0.0,0.0,0.0,0.0,0.0,0.0,0.0,0.0,0.0,0.0,0.0,3.7253,3.9421,3.9815,4.1444,4.302,4.4209,4.4766,4.5249,4.5732,4.5807,4.5992,4.6475,4.6513,4.6513,4.6513,4.6513,4.6513,4.6513,4.6513,4.6552,4.6712,4.6712,4.6817,4.7033,4.7033,4.7146,4.7426,4.7412,4.7579,0.0,4.7785,4.7616,4.7318,4.7318,4.7122,0.0,0.0,0.0,0.0,0.0,4.5807,4.5807,4.5807,4.5807,4.5807,4.5807,4.5807,4.5807,4.5807,4.5861,4.5923,4.5923,4.5581,4.5211,4.5296,4.4911,4.4452,4.4132,4.4055,4.3838,4.2945,4.2524,4.2163,4.1673,4.1348,0.0,4.1168,4.1171,4.1172,4.1172,4.1172,4.1172,4.1172,4.1172,4.1172,4.1132,4.1132,4.0819,3.9959,3.8786,0.0,0.0,0.0,3.3237,3.2881,3.2316,0.0,0.0,0.0,0.0,0.0,0.0,0.0,0.0,2.692,2.7154,0.0,0.0,0.0,0.0,0.0,0.0,0.0,0.0,0.0,0.0,0.0,0.0,0.0,0.0,0.0,0.0,4.0457,4.328,4.4283,4.4432,4.4952,4.6327,4.6513,4.655,4.6624,4.6624,4.6661,4.6773,4.6773,4.6773,4.6773,0.0,0.0,0.0,0.0,4.6773,4.6773,4.6773,4.6773,4.6773,4.6773,4.6914,4.7185,4.7183,4.7451,4.7979,4.7985,4.8084,4.8259,4.8324,4.8321,4.8133,4.6606,4.5974,4.5935,4.5933,4.587,4.58,4.58,0.0,0.0,4.5807,4.5807,4.5807,4.5807,4.5807,4.5807,4.5807,4.5807,4.5834,4.5953,4.598,4.5808,4.5075,4.4904,4.4674,4.3802,4.3038,4.2429,4.2227,4.1654,4.1181,4.1103,4.1166,4.1172,4.1132,4.1172,4.1172,4.1132,4.1172,4.1211,4.1172,0.0,0.0,4.0117,3.8515,3.7226,3.6367,3.4765,3.3473,3.272,3.2628,3.2565,3.2522,3.3164,3.3926,3.4811,3.546,3.5878,3.5945,3.1053,3.039,0.0,0.0,0.0,0.0,0.0,0.0,0.0,0.0,0.0,0.0,0.0,0.0,0.0,0.0,0.0,4.0271,4.2389,4.4506,4.6698,4.6995,4.6847,4.655,4.6513,4.6735,4.7404,4.7478,4.7738,4.8407,4.8444,4.8444,4.8444,4.8444,4.8444,4.8444,4.8444,4.8444,4.8444,4.8444,4.8444,4.8444,0.0,0.0,4.8911,4.8927,4.8965,4.9083,4.9097,4.8711,4.8177,4.8365,4.8318,4.8114,4.7885,4.7378,4.6769,4.6777,4.6345,4.5795,4.5795,4.5817,4.5807,4.5807,4.5807,4.5807,4.5807,4.5807,0.0,4.5807,4.5807,4.5814,4.5841,4.5848,4.5815,4.5648,4.5692,4.5497,4.4581,4.4356,4.3856,4.2382,4.205,4.1788,4.1128,4.1116,4.1211,4.1172,4.1172,4.1211,4.1172,4.1172,4.1172,4.1132,4.1132,4.1053,4.0897,3.9959,3.9023,3.8164,3.7109,3.6484,3.6288,3.6286,3.6283,3.6241,3.5671,3.5806,3.6696,3.6722,3.7456,3.8745,3.5537,3.4731,0.0,0.0,0.0,0.0,0.0,0.0,0.0,0.0,0.0,0.0,0.0,3.4897,3.6928,0.0,4.1014,4.3095,4.4804,4.629,4.7516,4.8036,4.8147,4.7738,4.7701,4.785,4.8259,4.8296,4.8481,4.889,4.889,4.889,4.889,4.889,4.889,4.889,4.889,4.889,4.889,4.889,4.889,4.889,4.889,4.8976,4.916,4.916,4.9241,4.9399,4.9399,4.9228,4.8975,4.9091,4.9162,4.9158,4.9209,4.8596,4.7656,4.7697,4.7187,4.6436,4.6436,4.6172,4.5807,4.5807,4.5807,4.5807,4.5807,4.5807,4.5807,4.5807,4.5807,4.5807,4.5807,4.5807,4.5807,4.5807,4.5861,4.5776,4.5311,4.4936,4.4422,4.3546,4.3039,4.268,4.2252,4.1917,4.1581,4.1204,4.1166,4.1168,4.1211,4.1211,4.1172,4.1132,4.1132,4.1132,4.1132,4.039,3.9531,3.8672,3.8203,3.7969,3.7969,3.7968,3.7968,3.7968,3.792,3.8107,3.8534,3.8851,3.9444,4.0283,3.9257,3.8965,0.0,0.0,0.0,0.0,0.0,0.0,0.0,0.0,3.2669,3.5057,3.6406,3.7927,4.0591,4.2411,4.3971,4.5509,4.6847,4.7738,4.7924,4.8481,4.889,4.889,4.889,4.889,4.889,4.889,4.8964,4.9113,4.915,4.9224,4.9373,4.941,4.941,4.941,4.941,4.941,4.941,4.941,4.941,4.9373,4.9224,4.915,4.915,4.8964,4.9044,4.9305,4.9305,4.9469,4.9721,4.9721,4.9884,5.0123,5.0147,4.9548,4.8677,4.8631,4.8052,4.7325,4.7332,4.6767,4.6039,4.6039,4.5923,4.5807,4.5807,4.5807,4.5807,4.5807,4.5807,4.5807,4.5807,4.5807,4.5807,4.5807,4.5807,4.5807,4.5807,4.5297,4.4794,4.4632,4.4098,4.358,4.3424,4.2839,4.2146,4.1402,4.1182,4.1117,4.117,4.1172,4.1211,4.1211,4.1211,4.1211,4.1211,4.0547,3.9844,3.9141,3.9101,3.9101,3.9101,3.9101,3.9101,3.9101,3.9802,4.0152,4.0152,4.0915,4.1254,4.1289,4.2055,4.2231,3.1641,3.0288,2.988,3.1849,3.1998,3.2941,0.0,0.0,3.7646,4.0015,4.1788,4.3003,4.3415,4.4839,4.6227,4.7276,4.759,4.7961,4.8667,4.8853,4.889,4.889,4.889,4.889,4.889,4.889,4.9187,4.993,5.0005,5.0376,5.1082,5.1119,5.1119,5.1119,5.1119,5.1119,5.1119,5.1119,5.1119,5.1119,5.0339,4.9968,4.993,4.9224,4.8907,4.8942,4.8942,4.9144,4.9423,4.9423,4.9617,4.9857,4.9923,4.9997,5.0029,4.9538,4.8866,4.8174,4.8176,4.7627,4.696,4.696,4.6426,4.5807,4.5807,4.5807,4.5807,4.5807,4.5807,4.5807,4.5807,4.5807,4.5807,4.5807,4.5807,4.5807,4.5807,4.5729,4.5452,4.4755,4.453,4.4234,4.3421,4.3241,4.2942,4.2188,4.1515,4.1111,4.1114,4.1169,4.1211,4.1211,4.1211,4.1211,4.1211,4.1094,4.1016,4.0937,4.0898,4.0898,4.0898,4.0898,4.0898,4.0898,4.1016,4.1054,4.1054,4.1835,4.2225,4.2261,4.3058,4.2964,3.4896,3.3747,0.0,0.0,3.5129,3.6559,3.8921,3.929,3.983,4.2237,4.3356,4.4293,4.5786,4.6601,4.7322,0.0,4.8286,4.8324,4.8695,4.8785,4.8672,4.819,4.8595,4.889,4.889,4.9336,4.9745,5.0079,5.0599,5.1045,5.1379,5.1416,5.1416,5.1416,5.1416,5.1416,5.1416,5.1416,5.1416,5.1416,5.1045,5.0859,5.0859,5.0525,5.0079,4.9559,4.9113,4.8976,4.911,4.911,4.9283,4.9573,4.9602,4.9776,4.9986,5.004,4.9576,4.9007,4.9048,4.8501,4.7781,4.7843,4.727,4.6581,4.6581,4.6194,4.5807,4.5807,4.5807,4.5807,4.5807,4.5807,4.5807,4.5807,4.5807,4.5807,4.5807,4.5807,4.5691,4.5374,4.5297,4.5181,4.4833,4.4369,4.3937,4.3652,4.294,4.2481,4.2545,4.2562,4.2611,4.2656,4.2656,4.2461,4.1953,4.2344,4.2226,4.125,4.1641,4.168,4.1211,4.1211,4.1406,4.1875,4.1914,4.2148,4.2656,4.3008,4.3164,4.3164,4.402,4.4207,3.6464,0.0,0.0,3.6145,3.7917,3.9616,3.9829,4.0492,4.1636,4.3647,4.4251,4.5094,4.7124,4.7716,4.8123,4.8936,4.8993,4.8956,4.8975,4.8899,4.8508,4.771,4.8002,4.8333,4.8556,4.9522,5.019,5.045,5.1268,5.1825,5.2048,5.2048,5.2048,5.2048,5.2048,5.2048,5.2048,5.2048,5.2048,5.2048,5.1825,5.1714,5.1714,5.1491,5.1045,5.0413,4.9596,4.9224,4.9224,4.9002,4.9044,4.9273,4.9273,4.9439,4.9721,5.0025,4.9959,4.9749,4.9803,4.9316,4.8623,4.8694,4.8137,4.741,4.741,4.6837,4.6155,4.6155,4.6,4.5807,4.5807,4.5807,4.5807,4.5807,4.5807,4.5807,4.5807,4.5807,4.5807,4.5807,4.5807,4.5807,4.5807,4.5336,4.4949,4.4949,4.4446,4.3948,4.359,4.3589,4.3616,4.3672,4.3711,4.3437,4.2812,4.3359,4.3164,4.1953,4.2422,4.25,4.1914,4.1875,4.2148,4.2734,4.2773,4.3086,4.3711,4.3945,4.4062,4.4062,4.4961,4.5351,0.0,0.0,3.6929,3.8397,4.0007,4.1393,4.2124,4.2918,4.371,4.4506,4.5296,4.6158,4.7132,4.7961,4.8753,4.9621,4.9769,4.9806,4.9936,4.9287,4.8545,4.7796,4.7033,4.6884,0.0,4.9187,5.045,5.1305,5.2122,5.2902,5.3683,5.372,5.372,5.372,5.372,5.372,5.372,5.372,5.372,5.372,5.294,5.2568,5.2531,5.1751,5.1379,5.1305,5.045,5.0079,5.0005,4.9224,4.889,4.8907,4.8907,4.9127,4.9415,4.943,4.9803,5.0281,5.0336,4.999,4.9453,4.9453,4.8916,4.8261,4.8261,4.7704,4.7076,4.7076,4.6464,4.5807,4.5807,4.5807,4.5807,4.5807,4.5807,4.5807,4.5807,4.5807,4.5807,4.5807,4.5807,4.5807,4.5807,4.5768,4.5768,4.5768,4.5729,4.5157,4.3606,4.35,4.3616,4.3672,4.3711,4.3672,4.3672,4.3672,4.3672,4.3633,4.3633,4.3633,4.3633,4.3633,4.3633,4.3672,4.3672,4.3672,4.3711,4.4531,4.4961,4.4961,4.5859,4.625,0.0,0.0,3.8449,3.9979,4.1176,4.2169,4.2961,4.3328,4.3752,4.4525,4.5017,4.5547,4.6377,4.7186,4.8034,4.8808,4.9341,4.9671,4.9746,4.9546,4.8716,4.687,4.7383,0.0,0.0,0.0,0.0,5.1305,5.2159,5.294,5.3757,5.3794,5.3794,5.3794,5.3794,5.3794,5.3794,5.3794,5.3794,5.3794,5.3534,5.3423,5.3385,5.2568,5.2197,5.2159,5.1305,5.0636,5.0079,4.9819,4.9373,4.889,4.889,4.8959,4.9061,4.9061,4.9346,4.9762,5.0195,5.0193,5.0084,5.0296,4.9779,4.9092,4.9092,4.8522,4.789,4.7882,4.731,4.6653,4.6644,4.6232,4.5807,4.5807,4.5807,4.5807,4.5807,4.5807,4.5807,4.5807,4.5807,4.5807,4.5807,4.5807,4.5807,4.5807,4.5886,4.572,4.5176,4.5258,4.5327,4.5377,4.5388,4.5195,4.4609,4.5078,4.4922,4.3789,4.4258,4.4297,4.3711,4.3711,4.3984,4.4531,4.457,4.4844,4.543,4.5703,4.5859,4.5859,4.6172,4.6289,0.0,3.8726,4.0089,4.1919,4.28,4.3277,4.3791,4.3938,4.4085,4.4581,4.4576,4.4756,4.5844,4.6027,4.6542,4.8144,4.8822,4.9353,4.998,4.9855,4.901,4.7223,4.7683,0.0,0.0,0.0,0.0,5.1268,5.2159,5.294,5.3757,5.3794,5.3794,5.3794,5.3794,5.3794,5.3794,5.3794,5.3794,5.3794,5.3794,5.3794,5.3794,5.3274,5.3051,5.2977,5.2197,5.1342,5.0562,5.0265,4.967,4.889,4.889,4.889,4.889,4.889,4.9027,4.9283,4.9817,5.0062,5.0183,5.0497,5.0202,4.9798,4.991,4.9367,4.8728,4.8723,4.816,4.7519,4.7511,4.7146,4.6651,4.6348,4.6271,4.6194,4.5884,4.5807,4.5807,4.5807,4.5807,4.5807,4.5807,4.5807,4.5807,4.5807,4.588,4.5953,4.5997,4.6072,4.6137,4.6158,4.6234,4.6051,4.5465,4.5976,4.582,4.4687,4.5156,4.5195,4.4648,4.4648,4.4883,4.5469,4.5469,4.5742,4.6289,4.6289,4.6289,4.6289,4.6289,4.6484,3.9848,4.0949,4.1895,4.4195,4.4728,4.4691,4.4691,4.4654,4.4635,4.4581,4.3938,4.3845,0.0,0.0,4.4469,4.7682,4.8269,4.8949,5.0701,5.0296,4.9525,0.0,0.0,0.0,0.0,0.0,0.0,5.1324,0.0,5.2902,5.3757,5.3794,5.3794,5.3794,5.3794,5.3794,5.3794,5.3794,5.3794,5.3794,5.3794,5.3794,5.3794,5.3794,5.3794,5.3757,5.2977,5.2197,5.1416,5.0636,4.9819,4.9039,4.9002,4.8964,4.8964,4.8927,4.889,4.8942,4.9273,4.9558,4.983,5.0099,5.023,5.032,5.0577,5.0132,4.9551,4.956,4.8985,4.8369,4.8369,4.8392,4.8191,4.7347,4.7154,4.6922,4.6116,4.5923,4.5923,4.5923,4.5884,4.5845,4.5807,4.5807,4.5807,4.5807,4.5807,4.5854,4.5975,4.5997,4.6037,4.6087,4.6153,4.6181,4.6181,4.6245,4.6289,4.6289,4.6289,4.6289,4.6289,4.6289,4.6289,4.6289,4.6289,4.6289,4.6289,4.6289,4.6328,4.6367,4.6367,4.6836,4.0727,4.2323,4.3706,4.5224,4.5149,4.4691,4.4691,4.4232,4.3644,4.3057,4.2299,4.1707,0.0,0.0,0.0,4.6085,4.8049,0.0,5.1503,5.154,0.0,0.0,0.0,4.9818,4.9491,4.9988,0.0,0.0,5.1844,5.2308,5.372,5.3794,5.3794,5.3794,5.3794,5.3794,5.3794,5.3794,5.3794,5.3794,5.3794,5.3794,5.3794,5.3794,5.3794,5.3794,5.3571,5.3051,5.2271,5.2085,5.1491,5.0711,5.0116,4.9856,4.9707,4.9113,4.889,4.8907,4.8993,4.9257,4.9544,4.9817,4.9923,4.9987,5.0252,5.0167,5.0078,5.0317,4.9803,4.9204,4.9191,4.8745,4.8268,4.8029,4.7998,4.7929,4.7765,4.7734,4.7734,4.7734,4.7192,4.6581,4.5923,4.5807,4.5807,4.5807,4.5807,4.5821,4.5854,4.5947,4.6012,4.6037,4.6084,4.6128,4.6128,4.6175,4.6234,4.6234,4.6287,4.6289,4.6289,4.6289,4.6289,4.6289,4.6289,4.6289,4.6289,4.6289,4.6641,4.7266,4.7266,4.7734,4.1887,4.3451,4.488,4.6103,4.581,4.5039,4.4342,4.3534,4.2543,4.1038,4.0131,0.0,0.0,0.0,0.0,0.0,0.0,0.0,5.1169,5.1756,5.1667,0.0,5.1059,0.0,5.0777,5.1163,5.1811,0.0,5.2232,5.2382,5.368,5.3756,5.3794,5.3794,5.3794,5.3794,5.3794,5.3794,5.3794,5.3794,5.3794,5.3794,5.3794,5.3794,5.3794,5.3794,0.0,5.3348,5.2605,5.2605,5.2122,5.1342,5.0896,5.0488,5.0042,4.9596,4.9187,4.889,4.889,4.9027,4.9241,4.9544,4.9608,4.9665,4.9949,5.0038,5.0099,5.0374,5.02,4.9865,5.0017,4.9714,4.9316,4.8908,4.8839,4.8731,4.8408,4.8354,4.8369,4.8392,4.8005,4.7502,4.7038,4.6922,4.6922,4.6922,4.6922,4.6922,4.6922,4.6339,4.6078,4.6421,4.6222,4.6199,4.655,4.6313,4.6162,4.6183,4.6227,4.624,4.6289,4.6287,4.6443,4.6875,4.6875,4.707,4.7422,4.7422,4.7695,4.8164,4.8164,4.8633,4.3251,4.4474,4.5562,4.6779,4.6507,4.5443,4.3718,4.2653,4.1295,3.8872,0.0,0.0,3.8065,0.0,3.9753,4.3001,0.0,4.7993,5.0618,5.1573,5.205,5.216,5.216,5.2165,5.223,5.2267,5.2582,5.3404,5.2892,5.284,5.3657,5.3754,5.3775,5.3794,5.3794,5.3794,5.3794,5.3794,5.3794,5.3794,5.3794,5.3794,5.3794,5.3794,5.3794,5.3794,0.0,0.0,5.2754,5.2754,5.2345,5.1714,5.1602,5.1119,5.0413,5.0302,4.9819,4.9224,4.9113,4.9076,4.9091,4.9279,4.9337,4.9399,4.9651,4.9749,4.9803,5.0075,5.0195,5.0298,5.0557,5.0682,5.0536,4.9821,4.9676,4.9483,4.8797,4.8646,4.8609,4.857,4.8577,4.8539,4.843,4.8392,4.8392,4.8392,4.8392,4.8392,4.8392,4.7076,4.6426,4.7192,4.6687,4.6596,4.729,4.677,4.6424,4.6514,4.6476,4.646,4.6598,4.6542,4.6892,4.7731,4.7732,4.8123,4.8867,4.8867,4.8945,4.9062,4.9062,4.9531,4.4769,4.5458,4.586,4.6868,4.6507,4.5296,4.302,4.1368,0.0,0.0,0.0,3.5481,3.5628,3.7316,0.0,4.3001,0.0,0.0,0.0,0.0,5.2234,0.0,0.0,0.0,0.0,0.0,0.0,0.0,0.0,5.3252,5.3501,5.3637,5.3735,5.3794,5.3794,5.3794,5.3794,5.3794,5.3794,5.3794,5.3794,5.3794,5.3794,5.3794,5.3794,5.3794,5.3794,0.0,5.3608,5.3608,5.3497,5.3311,5.2642,5.2308,5.2085,5.1416,5.1082,5.0859,5.0153,4.9893,4.9782,4.9182,4.8976,4.9044,4.9362,4.9454,4.9529,4.9803,4.9897,4.9962,5.0218,5.0286,5.0325,5.0471,5.0479,5.045,5.0379,5.0358,5.019,4.9536,4.9389,4.9165,4.85,4.8392,4.8392,4.8392,4.8392,4.8392,4.8392,4.8121,4.8005,4.8159,4.8065,4.8041,4.8196,4.8126,4.8082,4.8103,4.8124,4.8164,4.8188,4.8178,4.8256,4.8425,4.8425,4.853,4.8727,4.8727,4.917,4.9961,4.9961,5.0391,4.4894,4.5818,4.639,4.6682,4.6302,4.5039,4.1772,0.0,0.0,0.0,0.0,3.3757,3.3757,0.0,0.0,0.0,0.0,0.0,0.0,0.0,0.0,0.0,0.0,0.0,0.0,0.0,0.0,0.0,0.0,5.3277,5.338,5.3538,5.3617,5.3639,5.3639,5.3696,5.3735,5.3735,5.3774,5.3794,5.3794,5.3794,5.3794,5.3794,5.3794,5.3794,5.3794,0.0,5.3794,5.3794,5.3794,5.3757,5.3385,5.2977,5.2568,5.2159,5.1751,5.1342,5.0933,5.0488,5.0042,4.9707,4.9262,4.8925,4.9094,4.9144,4.9209,4.9514,4.9602,4.9637,4.9936,5.0099,5.0241,5.0385,5.0586,5.0721,5.0729,5.0738,5.064,5.0297,5.0229,5.0083,4.9721,4.9644,4.9652,4.9707,4.9714,4.9684,4.9699,4.9707,4.9552,4.9126,4.8662,4.8585,4.9049,4.8688,4.8444,4.8505,4.8505,4.8515,4.8612,4.8574,4.8768,4.9282,4.9282,4.9538,5.0004,5.0033,5.0291,5.0772,5.0819,5.1016,4.4703,4.5917,4.6789,4.6251,4.5894,4.4599,4.0561,3.8248,0.0,0.0,0.0,3.2179,3.2546,0.0,0.0,0.0,0.0,0.0,0.0,0.0,0.0,0.0,0.0,0.0,0.0,0.0,0.0,0.0,0.0,0.0,5.3297,5.34,5.3461,5.3481,5.3481,5.3558,5.3674,5.3674,5.3696,5.3793,5.3793,5.3812,5.3794,5.3794,5.3794,5.3794,5.3794,0.0,0.0,5.3794,5.3794,5.3794,5.3794,5.3423,5.2865,5.2865,5.2457,5.1899,5.1714,5.1231,5.0599,5.0265,4.9596,4.889,4.889,4.889,4.8942,4.9225,4.9305,4.9384,4.9622,4.987,5.0062,5.0171,5.0472,5.0721,5.0712,5.0682,5.074,5.0756,5.0764,5.0764,5.0821,5.0821,5.0829,5.0872,5.0872,5.0888,5.089,5.089,5.0658,5.0008,4.9359,4.9204,4.99,4.932,4.8945,4.9006,4.8952,4.8994,4.9095,4.9027,4.9371,5.0082,5.0121,5.0485,5.1174,5.1252,5.1286,5.1297,5.1364,5.1406,4.4764,4.5917,4.6624,4.5601,4.5055,4.3754,3.9717,0.0,0.0,0.0,3.0944,3.087,3.2326,3.405,0.0,0.0,0.0,0.0,0.0,0.0,0.0,0.0,0.0,0.0,0.0,0.0,0.0,0.0,0.0,0.0,5.3297,5.3318,5.338,5.3481,5.3481,5.3501,5.3501,5.3501,5.3578,5.3714,5.3714,5.3735,5.3794,5.3794,5.3794,5.3794,5.3794,0.0,0.0,5.3794,5.3794,5.3794,5.3794,5.3757,5.3683,5.3683,5.3645,5.346,5.2754,5.2457,5.2122,5.0599,4.9559,4.889,4.889,4.889,4.889,4.8925,4.8942,4.9027,4.9368,4.9476,4.9602,5.0087,5.0472,5.0712,5.0712,5.0712,5.0693,5.0701,5.071,5.072,5.0773,5.0821,5.0829,5.0872,5.0846,5.0816,5.089,5.0905,5.0858,5.0821,5.0705,5.0705,5.0782,5.0705,5.0674,5.0689,5.0674,5.0681,5.0704,5.0697,5.0735,5.0828,5.0828,5.09,5.1097,5.117,5.1249,5.1297,5.1364,5.1406,4.4232,4.5499,4.6188,4.5072,4.4522,4.3287,3.9543,0.0,0.0,3.1911,3.076,3.054,3.1678,3.3183,3.5312,0.0,3.9606,4.1368,0.0,0.0,0.0,0.0,0.0,0.0,0.0,0.0,0.0,0.0,0.0,0.0,5.3251,5.3251,5.3272,5.3314,5.3314,5.3355,5.338,5.338,5.344,5.3578,5.3578,5.3637,5.3735,5.3735,5.3774,5.3794,5.3794,0.0,0.0,5.3794,5.3794,5.3794,5.3794,5.3794,5.3794,5.3794,5.3794,5.3757,5.3423,5.3014,5.2494,5.1825,5.1045,5.0228,4.9224,4.889,4.889,4.889,4.889,4.8925,4.9061,4.9257,4.9679,5.0735,5.109,5.1354,5.2057,5.2202,5.2212,5.2184,5.2194,5.204,5.1568,5.1453,5.1318,5.0862,5.0747,5.0756,5.0825,5.0872,5.088,5.0833,5.0874,5.0898,5.0898,5.0898,5.0898,5.0898,5.0898,5.0898,5.0898,5.0898,5.0898,5.0898,5.0898,5.0929,5.0995,5.1097,5.1138,5.1178,5.1291,5.1356,4.3207,4.4575,4.5305,4.4361,4.3699,4.2467,0.0,0.0,3.4014,3.1837,3.0577,3.0173,3.1213,3.2339,3.4064,3.7015,3.797,3.9533,4.302,0.0,0.0,0.0,0.0,0.0,0.0,0.0,0.0,0.0,0.0,0.0,0.0,5.3203,5.3203,5.3203,5.3203,5.3209,5.3256,5.3256,5.3318,5.344,5.3461,5.3578,5.3714,5.3733,5.3754,5.3794,0.0,0.0,0.0,5.3794,5.3794,5.3794,5.3794,5.3794,5.3794,5.3794,5.3794,5.3794,5.3794,5.3423,5.294,5.2679,5.2234,5.1491,5.0079,4.9447,4.9299,4.9559,4.9633,4.9633,4.9633,4.9853,5.0349,5.1351,5.1662,5.1953,5.285,5.3059,5.308,5.3182,5.3203,5.301,5.2385,5.2269,5.2097,5.1539,5.1453,5.1472,5.1536,5.1563,5.161,5.1545,5.1559,5.1407,5.0959,5.089,5.0898,5.0898,5.0898,5.0898,5.0898,5.0898,5.0898,5.0898,5.0898,5.1014,5.1293,5.1173,5.1352,5.1824,5.1728,5.1789,4.1619,4.2938,4.3814,4.3422,4.2462,4.1107,0.0,3.6156,3.333,3.1715,3.0136,2.95,3.1103,3.1433,3.2755,3.6831,3.7492,3.8924,4.2927,0.0,0.0,0.0,0.0,0.0,0.0,0.0,0.0,0.0,0.0,0.0,0.0,5.3203,5.3203,5.3203,5.3203,5.3203,5.3225,5.3225,5.323,5.3318,5.344,5.3578,5.3714,5.3774,5.3794,0.0,0.0,0.0,0.0,5.3794,5.3794,5.3794,5.3794,5.3794,5.3794,5.3794,5.3794,5.3794,5.3794,5.3794,5.3683,5.2865,5.2605,5.2457,5.1602,5.0785,5.0265,5.1119,5.1379,5.1379,5.1379,5.1571,5.1785,5.1785,5.2001,5.2271,5.2616,5.2716,5.2788,5.3151,5.3203,5.3203,5.3203,5.3203,5.3223,5.3273,5.3233,5.3195,5.3262,5.3273,5.3263,5.3272,5.3272,5.2643,5.1035,5.0913,5.0898,5.0898,5.0898,5.0898,5.0898,5.0898,5.0898,5.0898,5.0898,5.1331,5.219,5.1444,5.1934,5.3566,5.2826,5.2994,3.9054,4.0502,4.1576,4.0697,4.022,3.9459,3.7497,3.5385,3.333,3.1727,3.0136,2.95,3.1103,3.1397,3.2755,3.6831,3.7492,0.0,0.0,0.0,0.0,0.0,0.0,0.0,0.0,0.0,0.0,0.0,0.0,0.0,0.0,5.3203,5.3203,5.3203,5.3203,5.3203,5.3203,5.3203,5.3188,5.323,5.3272,5.3355,5.342,5.344,0.0,0.0,0.0,0.0,0.0,5.3794,5.3794,5.3794,5.3794,5.3794,5.3794,5.3794,5.3794,5.3794,5.3794,5.3794,5.3757,5.3497,5.3423,5.3385,5.3125,5.2085,5.1045,5.1305,5.1416,5.1416,5.1416,5.147,5.1723,5.2503,5.2763,5.3073,5.3917,5.4305,5.4511,5.4597,5.4786,5.4741,5.4164,5.4087,5.3905,5.33,5.3213,5.3213,5.3243,5.3273,5.3273,5.3253,5.3273,5.3088,5.2566,5.2536,5.2314,5.1734,5.1734,5.1713,5.1708,5.1708,5.2034,5.2647,5.2685,5.2801,5.3072,5.2856,5.3046,5.3605,5.3369,5.3797,0.0,3.8209,3.9179,3.8834,3.8542,3.7848,3.6201,3.4541,3.2889,3.1274,2.9916,2.939,3.0723,3.0944,3.2082,3.5546,3.634,0.0,0.0,0.0,0.0,0.0,0.0,0.0,0.0,0.0,0.0,0.0,0.0,0.0,0.0,5.3082,5.3203,5.3203,5.3203,5.3203,5.3203,5.3203,5.3203,5.3203,5.323,5.3235,5.3318,5.3359,0.0,0.0,0.0,0.0,0.0,5.3754,5.3774,5.3774,5.3775,5.3794,5.3794,5.3794,5.3794,5.3794,5.3794,5.3794,5.3794,5.3794,5.3794,5.3794,5.3794,5.3088,5.2234,5.1936,5.2085,5.2308,5.2308,5.2308,5.2475,5.3212,5.3377,5.3593,5.443,5.4776,5.4966,5.5078,5.5364,5.5378,5.4879,5.488,5.478,5.4203,5.4126,5.4126,5.4126,5.4195,5.4205,5.4164,5.4187,5.4217,5.4217,5.3639,5.3079,5.2577,5.2539,5.2557,5.2545,5.2545,5.2833,5.3409,5.3464,5.3627,5.3937,5.4263,5.4328,5.4069,5.444,5.4936,0.0,3.5881,3.6651,3.7339,3.7002,3.6193,3.4993,3.3573,0.0,3.054,2.9574,2.9317,3.0283,3.0356,3.1164,3.3807,3.477,0.0,0.0,0.0,0.0,0.0,0.0,0.0,0.0,0.0,0.0,0.0,0.0,0.0,0.0,5.2806,5.3103,5.3124,5.3124,5.3146,5.3203,5.3203,5.3203,5.3203,5.3256,5.3297,5.3297,5.342,0.0,0.0,0.0,0.0,0.0,5.3617,5.3694,5.3694,5.3774,5.3775,5.3775,5.3794,5.3794,5.3794,5.3794,5.3794,5.3794,5.3794,5.3794,5.3794,5.3794,5.3794,5.3645,5.2902,5.3237,5.3794,5.3794,5.3794,5.3794,5.3794,5.3794,5.3889,5.4213,5.4279,5.438,5.47,5.5023,5.5275,5.5301,5.5497,5.5692,5.5703,5.5703,5.5703,5.5703,5.5703,5.5703,5.5703,5.5703,5.5703,5.5703,5.4333,5.3455,5.3378,5.3378,5.3378,5.3388,5.3388,5.3426,5.3465,5.3549,5.3962,5.4773,5.559,5.5617,5.4882,5.5782,5.6201,3.0772,0.0,3.3244,3.3003,3.3268,3.3355,0.0,3.1935,3.1384,3.0393,0.0,2.9794,3.2485,3.1935,3.2719,3.7661,3.7817,0.0,0.0,0.0,0.0,0.0,0.0,0.0,0.0,0.0,0.0,0.0,0.0,0.0,0.0,5.1897,5.2173,5.2604,5.2604,5.2783,5.3203,5.3203,5.3203,5.3203,5.3209,5.3209,5.3209,5.3251,0.0,0.0,0.0,0.0,5.3481,5.3521,5.3558,5.3558,5.3676,5.3696,5.3716,5.3793,5.3794,5.3794,5.3794,5.3794,5.3794,5.3794,5.3794,5.3794,5.3794,5.3794,5.3757,5.3571,5.3645,5.3794,5.3794,5.3794,5.3794,5.3794,5.3794,5.3813,5.3907,5.4125,5.4313,5.4397,5.47,5.4995,5.5262,5.5351,5.5461,5.5682,5.5703,5.5703,5.5703,5.5703,5.5703,5.5703,5.5703,5.5703,5.5703,5.534,5.486,5.4282,5.4205,5.4216,5.4227,5.4227,5.4555,5.5278,5.5287,5.5413,5.5605,5.5808,5.5817,5.5663,5.5909,5.6056,2.8489,3.0586,3.2502,3.2504,3.2816,3.2926,3.2118,0.0,0.0,0.0,0.0,2.9612,3.1548,3.1773,0.0,3.679,3.76,0.0,0.0,0.0,0.0,0.0,0.0,0.0,0.0,0.0,0.0,0.0,0.0,0.0,0.0,5.1449,5.1725,5.1994,5.2268,5.2672,5.3167,5.3203,5.3203,5.3203,5.3203,5.3203,5.3203,5.3203,5.3209,0.0,0.0,0.0,5.3375,5.338,5.34,5.342,5.3558,5.3674,5.3714,5.3735,5.3793,5.3794,5.3794,5.3794,5.3794,5.3794,5.3794,5.3794,5.3794,5.3794,5.3794,5.3794,5.3794,5.3794,5.3794,5.3794,5.3794,5.3794,5.3794,5.3794,5.3794,5.3963,5.4072,5.4072,5.433,5.4639,5.4821,5.5091,5.5351,5.5485,5.5599,5.5703,5.5703,5.5703,5.5703,5.5703,5.5703,5.5703,5.5703,5.5703,5.5511,5.5088,5.5049,5.507,5.5052,5.5063,5.5314,5.5827,5.5865,5.5875,5.5895,5.5895,5.5895,5.5895,5.5924,5.5959,2.7718,3.034,3.288,3.3127,3.3336,3.3323,3.2517,0.0,0.0,0.0,0.0,0.0,0.0,0.0,0.0,0.0,0.0,0.0,0.0,0.0,0.0,0.0,0.0,0.0,0.0,0.0,0.0,0.0,0.0,0.0,0.0,5.1123,5.1373,5.1475,5.1897,5.2408,5.2974,5.3103,5.3203,5.3203,5.3203,5.3203,5.3203,5.3203,5.3203,0.0,0.0,0.0,5.3188,5.3235,5.3277,5.3297,5.342,5.3538,5.3617,5.3674,5.3716,5.3812,5.3775,5.3794,5.3794,5.3794,5.3794,5.3794,5.3794,5.3794,5.3794,5.3794,5.3794,5.3794,5.3794,5.3794,5.3794,5.3794,5.3794,5.3794,5.3794,5.3794,5.3794,5.3794,5.4017,5.4228,5.4279,5.4776,5.5145,5.5223,5.5461,5.566,5.566,5.5682,5.5703,5.5703,5.5703,5.5703,5.5703,5.5703,5.5703,5.5703,5.5703,5.5703,5.5703,5.5703,5.5735,5.5776,5.5776,5.5797,5.5875,5.5875,5.5875,5.5875,5.5885,5.5885,2.9518,3.1473,3.2143,3.0689,3.1306,3.2089,3.132,0.0,0.0,0.0,0.0,0.0,0.0,0.0,0.0,0.0,0.0,0.0,0.0,0.0,0.0,0.0,0.0,0.0,0.0,0.0,0.0,0.0,0.0,0.0,0.0,5.0206,5.0453,5.091,5.1017,5.1296,5.1824,5.2739,5.3203,5.3203,5.3203,5.3203,5.3203,5.3203,5.3203,0.0,0.0,5.3203,5.3203,5.3188,5.3209,5.3209,5.3297,5.3339,5.338,5.3481,5.3617,5.3696,5.3793,5.3794,5.3794,5.3794,5.3794,5.3794,5.3794,5.3794,5.3794,5.3794,5.3794,5.3794,5.3794,5.3794,5.3794,5.3794,5.3794,5.3794,5.3794,5.3794,5.3794,5.3794,5.3832,5.3981,5.4228,5.438,5.456,5.4836,5.5132,5.5364,5.5364,5.5543,5.5703,5.5703,5.5703,5.5703,5.5703,5.5703,5.5703,5.5703,5.5703,5.5703,5.5703,5.5703,5.5714,5.5724,5.5724,5.5724,5.5735,5.5735,5.5735,5.5735,5.5776,5.5807,2.7725,2.9769,3.1324,3.1321,3.2813,3.4067,3.3347,3.2628,0.0,0.0,0.0,0.0,0.0,0.0,0.0,0.0,0.0,0.0,0.0,0.0,0.0,0.0,0.0,0.0,0.0,0.0,0.0,0.0,0.0,0.0,0.0,0.0,5.0092,5.0341,5.0675,5.091,5.1175,5.1922,5.2338,5.2338,5.2649,5.2761,5.2783,5.306,5.3203,5.3203,0.0,5.3203,5.3203,5.3203,5.3203,5.3188,5.323,5.3256,5.3339,5.3538,5.3674,5.3714,5.3793,5.3794,5.3794,5.3794,5.3794,5.3794,5.3794,5.3794,5.3794,5.3794,5.3794,5.3794,5.3794,5.3794,5.3794,5.3794,5.3794,5.3794,5.3794,5.3794,5.3794,5.3794,5.3794,5.3851,5.3999,5.4196,5.4347,5.4511,5.4966,5.5301,5.5301,5.552,5.5703,5.5703,5.5703,5.5703,5.5703,5.5703,5.5703,5.5703,5.5703,5.5703,5.5703,5.5703,5.5703,5.5703,5.5703,5.5703,5.5703,5.5703,5.5703,5.5703,5.5735,5.5745,2.6907,2.8699,3.0756,3.2707,0.0,3.5652,3.5528,3.4355,0.0,0.0,0.0,0.0,0.0,0.0,0.0,0.0,0.0,0.0,0.0,0.0,0.0,0.0,0.0,0.0,0.0,0.0,0.0,0.0,0.0,0.0,0.0,0.0,5.0011,5.0011,5.0397,5.062,5.062,5.1044,5.1347,5.1601,5.203,5.2221,5.2244,5.2649,5.2872,5.3017,5.3017,5.3082,5.3203,5.3203,5.3203,5.3203,5.3203,5.323,5.3297,5.3518,5.3598,5.3617,5.3735,5.3793,5.3793,5.3775,5.3794,5.3794,5.3794,5.3794,5.3794,5.3794,5.3794,5.3794,5.3794,5.3794,5.3794,5.3794,5.3794,5.3794,5.3794,5.3794,5.3794,5.3794,5.3794,5.3794,5.3794,5.3999,5.4196,5.4196,5.4761,5.5197,5.5197,5.5485,5.5703,5.5703,5.5703,5.5703,5.5703,5.5703,5.5703,5.5703,5.5703,5.5703,5.5703,5.5703,5.5703,5.5703,5.5703,5.5703,5.5703,5.5703,5.5703,5.5703,5.5703,5.5703,3.0062,3.0434,3.0671,3.3776,3.4357,3.4586,3.6306,3.5773,0.0,3.688,0.0,0.0,0.0,0.0,0.0,0.0,0.0,0.0,0.0,0.0,0.0,0.0,0.0,0.0,0.0,0.0,0.0,0.0,0.0,0.0,0.0,0.0,0.0,5.0011,5.004,5.0068,5.0068,5.0092,5.062,5.1601,5.1626,5.1651,5.1651,5.1701,5.2006,5.2454,5.2454,5.2739,5.3203,5.3203,5.3203,5.3203,5.3203,5.3225,5.3209,5.3297,5.3339,5.3359,5.3598,5.3714,5.3733,5.3793,5.3794,5.3794,5.3794,5.3794,5.3794,5.3794,5.3794,5.3794,5.3794,5.3794,5.3794,5.3794,5.3794,5.3794,5.3794,5.3794,5.3794,5.3794,5.3794,5.3794,5.3794,5.3813,5.3832,5.3832,5.4397,5.4836,5.4836,5.5326,5.5703,5.5703,5.5703,5.5703,5.5703,5.5703,5.5703,5.5703,5.5703,5.5703,5.5703,5.5703,5.5703,5.5703,5.5703,5.5703,5.5703,5.5703,5.5703,5.5703,5.5703,5.5703,2.8579,2.9596,3.0808,3.3284,3.4832,0.0,0.0,3.7241,3.7915,4.0201,4.0722,0.0,0.0,0.0,0.0,0.0,0.0,0.0,0.0,0.0,0.0,0.0,0.0,0.0,0.0,0.0,0.0,0.0,0.0,0.0,0.0,0.0,0.0,5.0011,5.0011,5.0011,5.0011,5.0011,5.0206,5.062,5.0937,5.1123,5.1087,5.1449,5.1701,5.1897,5.2268,5.2499,5.2739,5.306,5.3017,5.2717,5.2717,5.293,5.3225,5.3277,5.3318,5.3339,5.3518,5.3617,5.3714,5.3716,5.3774,5.3794,5.3794,5.3794,5.3794,5.3794,5.3794,5.3794,5.3794,5.3794,5.3794,5.3794,5.3794,5.3794,5.3794,5.3794,5.3794,5.3794,5.3794,5.3794,5.3794,5.3794,5.3794,5.3794,5.4213,5.456,5.4776,5.5172,5.5508,5.5692,5.5703,5.5703,5.5703,5.5703,5.5703,5.5703,5.5703,5.5703,5.5703,5.5703,5.5703,5.5703,5.5703,5.5703,5.5703,5.5703,5.5703,5.5703,5.5703,5.5703,2.7982,2.9107,3.0721,3.2738,0.0,0.0,3.8212,3.8789,3.964,4.201,4.2475,0.0,0.0,0.0,0.0,0.0,0.0,0.0,0.0,0.0,0.0,0.0,0.0,0.0,0.0,0.0,0.0,0.0,0.0,0.0,0.0,0.0,0.0,0.0,5.0011,5.0011,5.0011,5.0011,5.0011,5.0011,5.0369,5.0564,5.0564,5.0937,5.1201,5.1347,5.1725,5.197,5.2197,5.2739,5.2828,5.2672,5.2672,5.2872,5.3225,5.3272,5.3256,5.3277,5.34,5.3518,5.3578,5.3617,5.3696,5.3774,5.3774,5.3756,5.3794,5.3794,5.3794,5.3794,5.3794,5.3794,5.3794,5.3794,5.3794,5.3794,5.3794,5.3794,5.3794,5.3794,5.3794,5.3794,5.3794,5.3794,5.3794,5.3794,5.4089,5.438,5.4607,5.5023,5.5401,5.5682,5.5703,5.5703,5.5703,5.5703,5.5703,5.5703,5.5703,5.5703,5.5703,5.5703,5.5703,5.5703,5.5703,5.5703,5.5703,5.5703,5.5703,5.5703,5.5703,5.5703,2.907,2.933,3.0417,0.0,0.0,0.0,4.0032,4.0308,4.0146,4.1698,0.0,0.0,0.0,0.0,0.0,0.0,0.0,0.0,0.0,0.0,0.0,0.0,0.0,0.0,0.0,0.0,0.0,0.0,0.0,0.0,0.0,0.0,0.0,0.0,5.0011,5.0011,5.0011,5.0011,5.0011,5.0011,5.0011,5.0011,5.0011,5.0011,5.0291,5.0776,5.0803,5.1123,5.1626,5.2173,5.2717,5.3203,5.3203,5.3203,5.3203,5.3203,5.3203,5.3188,5.3277,5.3318,5.3318,5.344,5.3598,5.3714,5.3714,5.3735,5.3794,5.3794,5.3794,5.3794,5.3794,5.3794,5.3794,5.3794,5.3794,5.3794,5.3794,5.3794,5.3794,5.3794,5.3794,5.3794,5.3794,5.3794,5.3794,5.3794,5.4089,5.4279,5.4296,5.4895,5.5401,5.5682,5.5703,5.5703,5.5703,5.5703,5.5703,5.5703,5.5703,5.5703,5.5703,5.5703,5.5703,5.5703,5.5703,5.5703,5.5703,5.5703,5.5703,5.5703,5.5703,5.5703,2.8176,2.9384,0.0,3.2593,0.0,0.0,0.0,4.1136,0.0,0.0,0.0,0.0,0.0,0.0,0.0,0.0,0.0,0.0,0.0,0.0,0.0,0.0,0.0,0.0,0.0,0.0,0.0,0.0,0.0,0.0,0.0,0.0,0.0,0.0,5.0011,5.0011,5.0011,5.0011,5.0011,5.0011,5.0011,5.0011,5.0011,5.0011,5.0097,5.0263,5.0647,5.0884,5.107,5.1228,5.1799,5.2627,5.2221,5.2522,5.3203,5.3203,5.3203,5.3225,5.3209,5.3235,5.3318,5.3359,5.344,5.3578,5.3674,5.3733,5.3735,5.3812,5.3794,5.3794,5.3794,5.3794,5.3794,5.3794,5.3794,5.3794,5.3794,5.3794,5.3794,5.3794,5.3794,5.3794,5.3794,5.3794,5.3794,5.3794,5.3889,5.4035,5.4262,5.4685,5.5064,5.5389,5.5413,5.5485,5.5692,5.5703,5.5703,5.5703,5.5703,5.5703,5.5703,5.5703,5.5703,5.5703,5.5703,5.5703,5.5703,5.5703,5.5703,5.5703,5.5703,5.5703,2.8864,3.0521,0.0,3.4306,3.7418,4.0504,4.1768,0.0,0.0,0.0,0.0,0.0,0.0,0.0,0.0,0.0,0.0,0.0,0.0,0.0,0.0,0.0,0.0,0.0,0.0,0.0,0.0,0.0,0.0,0.0,0.0,0.0,0.0,0.0,4.939,4.9528,4.9528,4.9528,4.97,5.0011,5.0011,5.0011,5.0011,5.0011,5.0011,5.004,5.0313,5.062,5.0803,5.0803,5.1296,5.2078,5.1725,5.215,5.2872,5.2872,5.3017,5.3203,5.3203,5.323,5.3235,5.3235,5.3318,5.342,5.3518,5.3578,5.3637,5.3735,5.3754,5.3774,5.3775,5.3794,5.3794,5.3794,5.3794,5.3794,5.3794,5.3794,5.3794,5.3794,5.3794,5.3794,5.3794,5.3794,5.3794,5.3794,5.3794,5.3926,5.4245,5.4479,5.4731,5.505,5.5236,5.5364,5.552,5.566,5.5703,5.5703,5.5703,5.5703,5.5703,5.5703,5.5703,5.5703,5.5703,5.5703,5.5703,5.5703,5.5703,5.5703,5.5703,5.5703,3.0318,0.0,0.0,3.6732,3.8471,0.0,0.0,0.0,0.0,0.0,0.0,0.0,0.0,0.0,0.0,0.0,0.0,0.0,0.0,0.0,0.0,0.0,0.0,0.0,0.0,0.0,0.0,0.0,0.0,0.0,0.0,0.0,0.0,4.7741,4.8327,4.8706,4.8706,4.8775,4.912,0.0,4.9873,4.9873,4.9804,4.9942,5.0011,5.0011,5.0011,5.0291,5.0721,5.0721,5.1044,5.1525,5.1525,5.1848,5.2338,5.2384,5.2717,5.3124,5.3203,5.3203,5.3203,5.3203,5.3251,5.3297,5.3297,5.338,5.3501,5.3637,5.3694,5.3714,5.3793,5.3775,5.3775,5.3794,5.3794,5.3794,5.3794,5.3794,5.3794,5.3794,5.3794,5.3794,5.3794,5.3794,5.3794,5.3794,5.3794,5.3926,5.4231,5.4245,5.438,5.4716,5.5023,5.5236,5.5403,5.5547,5.572,5.5818,5.5742,5.5703,5.5703,5.5703,5.5703,5.5703,5.5703,5.5703,5.5703,5.5703,5.5703,5.5703,5.5703,5.5703,2.8972,3.1239,0.0,0.0,3.9563,4.2441,0.0,0.0,0.0,0.0,0.0,0.0,0.0,0.0,0.0,0.0,0.0,0.0,0.0,0.0,0.0,0.0,0.0,0.0,0.0,0.0,0.0,0.0,0.0,0.0,0.0,0.0,0.0,4.7707,4.7844,4.7913,4.7913,4.8499,4.8603,0.0,4.8775,4.8741,4.8252,4.9459,5.0011,5.0011,5.0011,5.0068,5.0178,5.0178,5.0481,5.0991,5.0991,5.1296,5.1799,5.2244,5.2454,5.2649,5.306,5.3203,5.3203,5.3203,5.3188,5.323,5.3277,5.3318,5.338,5.3518,5.3558,5.3578,5.3676,5.3696,5.3716,5.3812,5.3794,5.3794,5.3794,5.3794,5.3794,5.3794,5.3794,5.3794,5.3794,5.3794,5.3794,5.3794,5.3794,5.3813,5.3907,5.3926,5.4035,5.4364,5.4479,5.4973,5.6128,5.5734,5.578,5.6665,5.6088,5.5703,5.5703,5.5703,5.5703,5.5703,5.5703,5.5703,5.5703,5.5703,5.5703,5.5703,5.5703,5.5703,2.9661,0.0,0.0,3.8877,0.0,0.0,0.0,0.0,0.0,0.0,0.0,0.0,0.0,0.0,0.0,0.0,0.0,0.0,0.0,0.0,0.0,0.0,0.0,0.0,0.0,0.0,0.0,0.0,0.0,0.0,0.0,4.75,4.7362,4.6603,4.6948,4.7182,4.7182,4.7534,4.7707,4.7672,4.8086,4.8051,4.7734,4.8528,4.9114,4.9424,4.9424,4.9666,5.0011,5.0011,5.0149,5.0397,5.0397,5.0721,5.127,5.1799,5.2197,5.2477,5.3017,5.3203,5.3203,5.3203,5.3203,5.3225,5.3251,5.3272,5.3256,5.338,5.34,5.342,5.3578,5.3598,5.3617,5.3735,5.3793,5.3794,5.3794,5.3794,5.3794,5.3794,5.3794,5.3794,5.3794,5.4128,5.4388,5.4388,5.4723,5.502,5.502,5.502,5.506,5.523,5.5375,5.5747,5.6519,5.6487,5.6716,5.7313,5.7098,5.6934,5.6934,5.6549,5.6126,5.5703,5.5703,5.5703,5.5703,5.5703,5.5703,5.5703,5.5703,5.5703,3.0177,0.0,3.7057,4.1265,4.2302,0.0,0.0,0.0,0.0,0.0,0.0,0.0,0.0,0.0,0.0,0.0,0.0,0.0,0.0,0.0,0.0,0.0,0.0,0.0,0.0,0.0,0.0,0.0,0.0,0.0,4.6397,4.6948,4.6707,4.5432,4.6052,4.6362,4.6362,4.6527,4.6837,4.7293,4.7293,4.7293,4.7293,4.7293,4.7775,4.8603,4.8741,4.9154,4.9804,4.9942,5.0011,5.0011,5.0011,5.0291,5.0721,5.1244,5.1725,5.2221,5.2828,5.306,5.3082,5.3182,5.3203,5.3203,5.3203,5.3203,5.3188,5.3256,5.3277,5.3318,5.342,5.3461,5.3518,5.3802,5.3918,5.3922,5.3812,5.3905,5.4017,5.4017,5.4128,5.424,5.424,5.4797,5.5243,5.5243,5.5837,5.632,5.632,5.632,5.632,5.632,5.65,5.6704,5.6926,5.7339,5.769,5.7898,5.8167,5.8319,5.8319,5.7588,5.683,5.5934,5.578,5.5703,5.5703,5.5703,5.5703,5.5703,5.5703,5.5703,0.0,0.0,3.6786,0.0,0.0,0.0,0.0,0.0,0.0,0.0,0.0,0.0,0.0,0.0,0.0,0.0,0.0,0.0,0.0,0.0,0.0,0.0,0.0,0.0,0.0,0.0,0.0,0.0,0.0,0.0,4.5569,4.5638,4.5604,4.5397,4.55,4.5569,4.5569,4.6224,4.632,4.5707,4.5707,4.5707,4.5707,4.5707,4.65,4.7879,4.8499,4.8844,4.9016,4.9735,5.0011,5.0011,5.0011,5.0068,5.0178,5.0694,5.0964,5.1175,5.2173,5.2499,5.2568,5.3039,5.3203,5.3203,5.3203,5.3203,5.3225,5.3188,5.3209,5.323,5.3297,5.3339,5.3543,5.4384,5.4572,5.4448,5.3885,5.4351,5.4834,5.4834,5.5466,5.5986,5.5986,5.606,5.6134,5.6134,5.6246,5.632,5.632,5.632,5.632,5.632,5.6323,5.6741,5.7714,5.7527,5.7756,5.8776,5.8513,5.8319,5.8319,5.8204,5.7703,5.683,5.6088,5.5703,5.5703,5.5703,5.5703,5.5703,5.5703,5.5703,2.9814,3.3304,3.6695,0.0,0.0,0.0,0.0,0.0,0.0,0.0,0.0,0.0,0.0,0.0,0.0,0.0,0.0,0.0,0.0,0.0,0.0,0.0,0.0,0.0,0.0,0.0,0.0,0.0,0.0,4.523,4.5257,4.5371,4.5397,4.5397,4.5397,4.5397,4.5397,4.5742,4.5742,4.5397,4.5397,4.5397,4.5397,4.5397,4.6017,4.7113,4.7458,4.8017,4.881,4.9154,4.9597,5.0011,5.0011,5.0011,5.0034,5.062,5.0803,5.091,5.1676,5.215,5.2431,5.2694,5.2974,5.3203,5.3203,5.3203,5.3203,5.3203,5.3203,5.3225,5.323,5.3582,5.4028,5.4501,5.4965,5.5265,5.5024,5.5327,5.5646,5.5706,5.606,5.632,5.632,5.6655,5.6989,5.6989,5.736,5.7658,5.7658,5.7658,5.7658,5.7658,5.7658,5.7893,5.8615,5.8703,5.9003,5.9654,5.9714,5.9704,5.9704,5.9242,5.8781,5.8396,5.7088,5.6214,5.5703,5.5703,5.5703,5.5703,5.5703,5.5703,0.0,0.0,0.0,0.0,0.0,0.0,0.0,0.0,0.0,0.0,0.0,0.0,0.0,0.0,0.0,0.0,0.0,0.0,0.0,0.0,0.0,0.0,0.0,0.0,0.0,0.0,0.0,0.0,0.0,4.5177,4.523,4.5318,4.5344,4.5344,4.5344,4.5344,4.5344,4.5371,4.5397,4.5397,4.5397,4.5397,4.5397,4.5397,4.5707,4.632,4.6527,4.7217,4.8258,4.8637,4.9154,4.9735,4.9942,5.0011,5.0068,5.0453,5.062,5.0667,5.1228,5.1651,5.203,5.2173,5.2545,5.2995,5.2995,5.3082,5.3203,5.3203,5.3203,5.324,5.3445,5.3959,5.4531,5.4985,5.5595,5.6116,5.6251,5.6356,5.6512,5.6857,5.6915,5.6915,5.6915,5.7398,5.7806,5.7806,5.8326,5.8698,5.8698,5.8698,5.8698,5.8698,5.8698,5.8784,5.9064,5.9502,5.9922,6.0165,6.0559,6.0781,6.0781,6.0165,5.9742,5.9511,5.828,5.7088,5.6011,5.5818,5.5703,5.5703,5.5703,5.5703,0.0,0.0,0.0,0.0,0.0,0.0,0.0,0.0,0.0,0.0,0.0,0.0,0.0,0.0,0.0,0.0,0.0,0.0,0.0,0.0,0.0,0.0,0.0,0.0,0.0,0.0,0.0,0.0,0.0,4.513,4.5371,4.5291,4.5203,4.5203,4.5203,4.5203,4.5203,4.5344,4.5397,4.5397,4.5397,4.5397,4.5397,4.5397,4.5432,4.55,4.6286,4.6665,4.6837,4.8224,4.881,4.8947,4.97,5.0011,5.0011,5.004,5.004,5.012,5.0675,5.0857,5.0964,5.1475,5.1994,5.2431,5.2431,5.2783,5.3203,5.3203,5.3203,5.3408,5.4142,5.4363,5.4803,5.6308,5.6712,5.6838,5.7149,5.7212,5.7513,5.8417,5.8586,5.8586,5.8586,5.8624,5.8661,5.8661,5.8661,5.8698,5.8698,5.8698,5.8698,5.8698,5.8698,5.8698,5.8719,5.9399,5.9826,5.9842,6.0455,6.0781,6.0781,6.0742,6.0319,5.9511,5.9396,5.855,5.6945,5.6088,5.5703,5.5703,5.5703,5.5703,0.0,0.0,0.0,0.0,0.0,0.0,0.0,0.0,0.0,0.0,0.0,0.0,0.0,0.0,0.0,0.0,0.0,0.0,0.0,0.0,0.0,0.0,0.0,0.0,0.0,0.0,0.0,0.0,0.0,0.0,4.513,4.5177,4.5203,4.5203,4.5203,4.5203,4.5203,4.5344,4.5397,4.5397,4.5397,4.5397,4.5397,4.5397,4.5397,4.5432,4.5707,4.6397,4.7327,4.7879,4.8672,4.9597,4.9907,5.0011,5.0011,5.0011,5.0011,5.004,5.0206,5.0721,5.1347,5.1525,5.2197,5.2893,5.2893,5.3039,5.3314,5.3812,5.3959,5.4179,5.495,5.5537,5.6235,5.7299,5.7556,5.7602,5.7825,5.795,5.811,5.8476,5.8572,5.8614,5.8677,5.8698,5.8698,5.8698,5.8698,5.8698,5.8698,5.8698,5.8698,5.8698,5.8698,5.8801,5.9006,5.9252,5.9622,6.0106,6.0335,6.0572,6.0781,6.0781,6.0666,6.0319,5.9781,5.8934,5.7819,5.6983,5.6522,5.6522,5.5972,5.5703,0.0,0.0,0.0,0.0,0.0,0.0,0.0,0.0,0.0,0.0,0.0,0.0,0.0,0.0,0.0,0.0,0.0,0.0,0.0,0.0,0.0,0.0,0.0,0.0,0.0,0.0,0.0,0.0,0.0,0.0,4.4961,4.5049,4.5076,4.5076,4.5096,4.515,4.5203,4.5344,4.5397,4.5397,4.5397,4.5397,4.5397,4.5397,4.5397,4.5397,4.5397,4.6121,4.7327,4.7596,4.8459,4.9631,4.9907,5.0011,5.0011,5.0011,5.0011,5.0011,5.0011,5.0592,5.1322,5.1322,5.2078,5.2952,5.2952,5.306,5.335,5.4179,5.4399,5.4656,5.5721,5.6602,5.7336,5.7886,5.7997,5.802,5.8111,5.826,5.8371,5.8443,5.8486,5.8551,5.8614,5.8656,5.8698,5.8698,5.8698,5.8698,5.8698,5.8698,5.8698,5.8698,5.8698,5.8764,5.9025,5.914,5.9395,5.9915,6.0141,6.039,6.061,6.0734,6.0781,6.0781,6.0242,5.9665,5.9127,5.7973,5.7434,5.7434,5.6819,5.6588,0.0,0.0,0.0,0.0,0.0,0.0,0.0,0.0,0.0,0.0,0.0,0.0,0.0,0.0,0.0,0.0,0.0,0.0,0.0,0.0,0.0,0.0,0.0,0.0,0.0,0.0,0.0,0.0,0.0,4.4858,4.4995,4.4886,4.4803,4.4803,4.494,4.5042,4.5177,4.5344,4.5397,4.5397,4.5397,4.5397,4.5397,4.5397,4.5397,4.5397,4.5397,4.5845,4.67,4.7396,4.8155,4.8913,4.97,5.0011,5.0011,5.0011,5.0011,5.0011,5.0011,5.0341,5.0803,5.0803,5.1525,5.2408,5.2408,5.2783,5.3387,5.4216,5.4436,5.484,5.6418,5.7409,5.7997,5.7997,5.7997,5.7997,5.7997,5.8088,5.8238,5.8371,5.8443,5.8471,5.8508,5.8614,5.8677,5.8677,5.8677,5.8698,5.8698,5.8698,5.8698,5.8698,5.8698,5.8698,5.8698,5.9006,5.9197,5.9215,5.9884,6.0279,6.0293,6.0597,6.0781,6.0781,6.0781,6.0781,6.0781,5.9127,5.8357,5.8319,5.8319,5.8319,2.4208,0.0,0.0,0.0,0.0,0.0,0.0,0.0,0.0,0.0,0.0,0.0,0.0,0.0,0.0,0.0,0.0,0.0,0.0,0.0,0.0,0.0,0.0,0.0,0.0,0.0,0.0,0.0,4.4671,4.4692,4.4858,4.4831,4.4803,4.4803,4.494,4.5022,4.5042,4.5291,4.5397,4.5397,4.5397,4.5397,4.5397,4.5397,4.5397,4.5397,4.5397,4.6155,4.7424,4.7631,4.8493,4.97,4.9907,5.0011,5.0011,5.0011,5.0011,5.0011,5.0011,5.0341,5.0803,5.0803,5.1525,5.2408,5.2408,5.3184,5.4252,5.5023,5.5684,5.6381,5.7409,5.7813,5.7997,5.7997,5.7997,5.7997,5.7997,5.802,5.8088,5.8238,5.8246,5.8312,5.8437,5.8508,5.8572,5.8572,5.8635,5.8698,5.8698,5.8698,5.8698,5.8698,5.8698,5.8698,5.8698,5.8801,5.8927,5.9197,5.9377,5.9734,6.0279,6.0376,6.0546,6.0781,6.0781,6.0781,6.0781,5.9704,5.9165,5.9165,5.8588,5.8319,0.0,0.0,0.0,0.0,0.0,0.0,0.0,3.1758,0.0,0.0,0.0,0.0,0.0,0.0,0.0,0.0,0.0,0.0,0.0,0.0,0.0,0.0,0.0,0.0,0.0,0.0,0.0,4.4581,4.4615,4.4643,4.4692,4.4692,4.4692,4.4692,4.4913,4.5022,4.5022,4.5264,4.5397,4.5397,4.5397,4.5397,4.5397,4.5397,4.5397,4.5397,4.5397,4.6259,4.7672,4.7672,4.8631,5.0011,5.0011,5.0011,5.0011,5.0011,5.0011,5.0011,5.0011,5.0341,5.0803,5.0803,5.1373,5.2162,5.2736,5.3449,5.434,5.5713,5.6675,5.7409,5.7886,5.7997,5.7997,5.7997,5.7997,5.7997,5.7997,5.7997,5.802,5.8088,5.8156,5.8201,5.8305,5.8415,5.8443,5.8443,5.8551,5.8614,5.8614,5.8656,5.8698,5.8698,5.8698,5.8698,5.8698,5.8698,5.8764,5.8967,5.9122,5.9377,5.9798,6.0127,6.0376,6.0585,6.0734,6.0781,6.0781,6.0281,6.005,6.0012,5.955,5.9358,0.0,0.0,0.0,0.0,0.0,0.0,3.1523,3.1386,0.0,0.0,0.0,0.0,0.0,0.0,0.0,0.0,0.0,0.0,0.0,0.0,0.0,0.0,0.0,0.0,0.0,4.3301,4.3606,4.4412,4.4547,4.4615,4.4615,4.4615,4.4615,4.4615,4.4858,4.4995,4.4995,4.5238,4.5371,4.5371,4.5371,4.5397,4.5397,4.5397,4.5397,4.5397,4.55,4.6362,4.7734,4.7775,4.87,5.0011,5.0011,5.0011,5.0011,5.0011,5.0011,5.0011,5.0011,5.032,5.0694,5.0694,5.1096,5.1744,5.3026,5.3568,5.4156,5.6319,5.7446,5.7997,5.7997,5.7997,5.7997,5.7997,5.7997,5.7997,5.7997,5.7997,5.7997,5.7997,5.8088,5.8193,5.8193,5.8305,5.8371,5.8371,5.8443,5.8508,5.8508,5.8593,5.8677,5.8677,5.8677,5.8698,5.8698,5.8698,5.8698,5.8698,5.8967,5.9159,5.9215,5.9884,6.0265,6.0293,6.061,6.0781,6.0781,6.0781,6.0781,6.0781,6.0781,6.0781,0.0,0.0,2.9035,0.0,0.0,0.0,0.0,2.7321,0.0,0.0,0.0,0.0,0.0,0.0,0.0,0.0,0.0,0.0,0.0,0.0,0.0,0.0,0.0,0.0,0.0,4.2577,4.2828,4.3572,4.4215,4.4615,4.4615,4.4615,4.4615,4.4615,4.4748,4.4831,4.4831,4.4995,4.5157,4.523,4.523,4.5318,4.5397,4.5397,4.5397,4.5432,4.6086,4.6845,4.7741,4.8327,4.912,5.0011,5.0011,5.0011,5.0011,5.0011,5.0011,5.0011,5.0011,5.0068,5.0149,5.0149,5.0509,5.1131,5.1952,5.3299,5.5014,5.7184,5.7886,5.7997,5.7997,5.7997,5.7997,5.7997,5.7997,5.7997,5.7997,5.7997,5.7997,5.7997,5.802,5.8042,5.8042,5.8133,5.826,5.826,5.8349,5.8437,5.8437,5.8486,5.8551,5.8551,5.8635,5.8698,5.8698,5.8698,5.8698,5.8698,5.8781,5.8945,5.9197,5.9656,6.0045,6.0293,6.061,6.0781,6.0781,6.0781,6.0781,6.0781,6.0781,6.0781,0.0,0.0,3.0552,2.9279,0.0,0.0,0.0,0.0,2.7886,0.0,0.0,0.0,0.0,0.0,0.0,0.0,0.0,0.0,0.0,0.0,0.0,0.0,0.0,0.0,0.0,4.1928,4.2129,4.2794,4.3572,4.4012,4.4012,4.4378,4.4615,4.4615,4.472,4.4803,4.4803,4.494,4.5015,4.5096,4.5096,4.5157,4.5211,4.5291,4.5471,4.5767,4.6343,4.7196,4.8174,4.8609,4.9258,5.0011,5.0011,5.0011,5.0011,5.0011,5.0011,5.0011,5.0011,5.0011,5.0011,5.0011,5.0648,5.1532,5.2277,5.4108,5.6225,5.7601,5.7997,5.7997,5.7997,5.7997,5.7997,5.7997,5.7997,5.7997,5.7997,5.7997,5.7997,5.7997,5.7997,5.7997,5.7997,5.8042,5.8088,5.8088,5.8201,5.8305,5.8305,5.8415,5.8465,5.8508,5.8572,5.8635,5.8677,5.8698,5.8698,5.8698,5.8698,5.8801,5.8927,5.9289,5.9755,6.0293,6.061,6.0781,6.0781,6.0781,6.0781,6.0781,6.0781,6.0781,0.0,0.0,0.0,0.0,0.0,2.9257,0.0,0.0,0.0,3.0197,0.0,0.0,0.0,0.0,0.0,0.0,0.0,0.0,0.0,0.0,0.0,0.0,0.0,0.0,0.0,4.0932,4.1146,4.2068,4.2414,4.2828,4.3375,4.4012,4.4445,4.4615,4.4726,4.4748,4.4748,4.4886,4.494,4.4968,4.4968,4.4995,4.5022,4.5267,4.5651,4.6122,4.6715,4.7595,4.8609,4.8862,4.9396,5.0011,5.0011,5.0011,5.0011,5.0011,5.0011,5.0011,5.0011,5.0011,5.0011,5.0183,5.1233,5.2572,5.3419,5.5293,5.7216,5.7821,5.7997,5.7997,5.7997,5.7997,5.7997,5.7997,5.7997,5.7997,5.7997,5.7997,5.7997,5.7997,5.7997,5.7997,5.7997,5.7997,5.7997,5.7997,5.8088,5.8156,5.8156,5.8282,5.8393,5.8443,5.8486,5.8529,5.8656,5.8656,5.8656,5.8698,5.8698,5.8698,5.8698,5.9025,5.9534,6.0279,6.0559,6.0734,6.0781,6.0781,6.0781,6.0781,6.0781,6.0781,0.0,0.0,0.0,0.0,3.2788,0.0,0.0,0.0,2.9438,2.7846,0.0,0.0,0.0,0.0,0.0,0.0,0.0,0.0,0.0,0.0,0.0,0.0,0.0,0.0,0.0,0.0,3.9374,4.1342,4.0315,4.0705,4.324,4.3504,4.3876,4.4581,4.4615,4.4643,4.4643,4.4643,4.4726,4.4831,4.4831,4.4886,4.5022,4.5678,4.6054,4.6163,4.7586,4.8357,4.8644,4.9296,4.9756,5.0011,5.0011,5.0011,5.0011,5.0011,5.0011,5.0011,5.0011,5.0011,5.0114,5.0769,5.2317,5.4155,5.5312,5.6353,5.7216,5.7821,5.7997,5.7997,5.7997,5.7997,5.7997,5.7997,5.7997,5.7997,5.7997,5.7997,5.7997,5.7997,5.7997,5.7997,5.7997,5.7997,5.7997,5.7997,5.802,5.802,5.802,5.8133,5.8238,5.8223,5.8349,5.8459,5.8529,5.8513,5.8572,5.8677,5.8698,5.8698,5.8698,5.9025,5.9534,6.0279,6.0335,6.0507,6.0781,6.0781,6.0781,6.0781,6.0781,6.0781,0.0,0.0,0.0,0.0,0.0,0.0,0.0,0.0,2.823,0.0,0.0,0.0,0.0,0.0,0.0,0.0,0.0,0.0,0.0,0.0,0.0,0.0,0.0,0.0,0.0,0.0,0.0,0.0,0.0,3.9713,4.2591,4.3166,4.3775,4.4581,4.4615,4.4615,4.4615,4.4615,4.4643,4.4665,4.4665,4.493,4.5427,4.5818,4.6402,4.7199,4.8016,4.8587,4.8967,4.9393,4.9679,4.983,4.983,4.9889,5.0011,5.0011,5.0011,5.0011,5.0011,5.0287,5.0897,5.2422,5.348,5.4536,5.616,5.6862,5.7216,5.7821,5.7997,5.7997,5.7997,5.7997,5.7997,5.7997,5.7997,5.7997,5.7997,5.7997,5.7997,5.7997,5.7997,5.7997,5.7997,5.7997,5.7997,5.7997,5.7997,5.7997,5.7997,5.8042,5.8111,5.8179,5.826,5.8349,5.8422,5.8486,5.8513,5.8593,5.8656,5.8698,5.8698,5.9025,5.9467,6.0015,6.0208,6.0481,6.0781,6.0781,6.0781,6.0781,6.0781,6.0781,3.8777,0.0,0.0,0.0,0.0,0.0,0.0,0.0,0.0,0.0,0.0,0.0,0.0,0.0,0.0,0.0,0.0,0.0,0.0,0.0,0.0,0.0,0.0,0.0,0.0,0.0,0.0,0.0,0.0,0.0,4.1813,4.2692,4.347,4.4248,4.4513,4.4615,4.4615,4.4615,4.4716,4.4919,4.4919,4.5297,4.6007,4.6326,4.6975,4.7936,4.8379,4.8813,4.9199,4.935,4.95,4.9649,4.9679,4.9801,4.9918,4.9982,5.0149,5.0321,5.0321,5.0942,5.1998,5.3655,5.4457,5.5051,5.6619,5.7216,5.7449,5.7867,5.7997,5.7997,5.7997,5.7997,5.7997,5.7997,5.7997,5.7997,5.7997,5.7997,5.7997,5.7997,5.7997,5.7997,5.7997,5.7997,5.7997,5.7997,5.7997,5.7997,5.7997,5.7997,5.8042,5.8133,5.8133,5.8179,5.8327,5.8378,5.8465,5.8508,5.8635,5.8698,5.8698,5.8927,5.9234,5.9622,5.9962,6.0321,6.0647,6.0746,6.0781,6.0781,6.0781,6.0781,0.0,0.0,0.0,3.5875,0.0,0.0,0.0,0.0,3.219,0.0,0.0,0.0,0.0,0.0,0.0,0.0,0.0,0.0,0.0,0.0,0.0,0.0,0.0,0.0,0.0,0.0,0.0,0.0,0.0,0.0,4.0967,4.1914,4.2658,4.3436,4.4181,4.4615,4.4615,4.4615,4.4959,4.5669,4.5669,4.6041,4.6786,4.753,4.7838,4.7939,4.868,4.9077,4.9199,4.9199,4.932,4.95,4.9649,4.9708,4.9737,4.9918,5.0459,5.108,5.108,5.208,5.3445,5.4005,5.5129,5.6349,5.6902,5.7498,5.7973,5.7997,5.7997,5.7997,5.7997,5.7997,5.7997,5.7997,5.7997,5.7997,5.7997,5.7997,5.7997,5.7997,5.7997,5.7997,5.7997,5.7997,5.7997,5.7997,5.7997,5.7997,5.7997,5.7997,5.7997,5.7997,5.7997,5.8065,5.8215,5.8201,5.829,5.8508,5.8635,5.8698,5.8698,5.8698,5.8885,5.9215,5.9605,6.0,6.0307,6.0622,6.0781,6.0781,6.0781,6.0781,0.0,0.0,4.2373,3.874,0.0,0.0,0.0,0.0,0.0,0.0,0.0,0.0,0.0,0.0,0.0,0.0,0.0,0.0,0.0,0.0,0.0,0.0,0.0,0.0,0.0,0.0,0.0,0.0,0.0,0.0,0.0,4.188,4.2625,4.3375,4.4181,4.4615,4.4615,4.506,4.5466,4.5703,4.6177,4.6819,4.7564,4.777,4.8142,4.8646,4.8883,4.9049,4.9077,4.9168,4.9229,4.932,4.95,4.9928,5.0527,5.0676,5.0907,5.1252,5.2287,5.2977,5.3491,5.4156,5.5244,5.633,5.6519,5.7252,5.7997,5.7997,5.7997,5.7997,5.7997,5.7997,5.7997,5.7997,5.7997,5.7997,5.7997,5.7997,5.7997,5.7997,5.7997,5.7997,5.7997,5.7997,5.7997,5.7997,5.7997,5.7997,5.7997,5.7997,5.7997,5.7997,5.7997,5.802,5.8065,5.8133,5.829,5.8508,5.8513,5.8614,5.8677,5.8698,5.8865,5.9197,5.9343,5.9706,6.0293,6.0403,6.0572,6.0781,6.0781,6.0781,4.3056,4.3357,0.0,4.0241,3.84,0.0,3.3628,0.0,0.0,0.0,0.0,0.0,0.0,0.0,0.0,0.0,0.0,0.0,0.0,0.0,0.0,0.0,0.0,0.0,0.0,0.0,3.225,3.5681,0.0,0.0,0.0,0.0,4.2523,4.2997,4.4012,4.475,4.4993,4.5466,4.5974,4.6515,4.6955,4.7597,4.8308,4.8308,4.8545,4.9018,4.9018,4.9018,4.9018,4.9077,4.9168,4.9263,4.9718,5.0309,5.0905,5.0995,5.1399,5.2114,5.3356,5.3804,5.3905,5.4603,5.5343,5.6055,5.6465,5.7091,5.7726,5.795,5.7997,5.7997,5.7997,5.7997,5.7997,5.7997,5.7997,5.7997,5.7997,5.7997,5.7997,5.7997,5.7997,5.7997,5.7997,5.7997,5.7997,5.7997,5.7997,5.7997,5.7997,5.7997,5.7997,5.7997,5.7997,5.7997,5.7997,5.8111,5.8246,5.84,5.8443,5.8508,5.8635,5.8635,5.8743,5.9025,5.914,5.9412,5.9915,6.0156,6.039,6.061,6.0746,6.0781]}]]